Wetterdaten: Donnerstag, 27.09.2018
Datum Zeit Temp. A. Pool Temp. Temp. 5cm Feuchte A. Luftdruck Regen Wind Richtung Richtung Sonnenschein ET UV Solar Taupunkt Windchill Windben Empfang
27.09.2018 00:00 7,9 C 15,6 C 6,1 C 88 % 1033,5 hPa 0,0 l/m 4,1 km/h (1 Bft) SW 214 0 min 0,000 mm 0,0 UV-I 0 W/m 6,0 C 7,9 C 6,4 km/h (2 Bft) 94,74 %
27.09.2018 00:02 7,9 C 15,6 C 6,1 C 88 % 1033,4 hPa 0,0 l/m 4,5 km/h (1 Bft) S 182 0 min 0,000 mm 0,0 UV-I 0 W/m 6,0 C 7,9 C 6,4 km/h (2 Bft) 97,50 %
27.09.2018 00:04 7,9 C 15,6 C 6,1 C 88 % 1033,4 hPa 0,0 l/m 4,4 km/h (1 Bft) S-SW 205 0 min 0,000 mm 0,0 UV-I 0 W/m 6,0 C 7,9 C 6,4 km/h (2 Bft) 96,00 %
27.09.2018 00:06 7,9 C 15,6 C 6,1 C 88 % 1033,4 hPa 0,0 l/m 4,5 km/h (1 Bft) S-SW 205 0 min 0,000 mm 0,0 UV-I 0 W/m 6,0 C 7,9 C 6,4 km/h (2 Bft) 95,74 %
27.09.2018 00:08 7,9 C 15,6 C 6,1 C 89 % 1033,4 hPa 0,0 l/m 4,0 km/h (1 Bft) S-SW 205 0 min 0,000 mm 0,0 UV-I 0 W/m 6,2 C 7,9 C 4,8 km/h (1 Bft) 95,74 %
27.09.2018 00:10 7,9 C 15,6 C 6,1 C 89 % 1033,4 hPa 0,0 l/m 4,4 km/h (1 Bft) SW 229 0 min 0,000 mm 0,0 UV-I 0 W/m 6,2 C 7,9 C 6,4 km/h (2 Bft) 98,00 %
27.09.2018 00:12 8,0 C 15,6 C 6,1 C 89 % 1033,4 hPa 0,0 l/m 4,3 km/h (1 Bft) S-SW 210 0 min 0,000 mm 0,0 UV-I 0 W/m 6,3 C 8,0 C 4,8 km/h (1 Bft) 92,86 %
27.09.2018 00:14 7,9 C 15,6 C 6,1 C 89 % 1033,4 hPa 0,0 l/m 5,0 km/h (1 Bft) S-SW 212 0 min 0,000 mm 0,0 UV-I 0 W/m 6,2 C 7,9 C 6,4 km/h (2 Bft) 93,62 %
27.09.2018 00:16 7,9 C 15,6 C 6,1 C 88 % 1033,5 hPa 0,0 l/m 5,1 km/h (1 Bft) SW 216 0 min 0,000 mm 0,0 UV-I 0 W/m 6,0 C 7,9 C 6,4 km/h (2 Bft) 95,74 %
27.09.2018 00:18 7,9 C 15,6 C 6,1 C 89 % 1033,5 hPa 0,0 l/m 5,4 km/h (1 Bft) S-SW 211 0 min 0,000 mm 0,0 UV-I 0 W/m 6,2 C 7,9 C 8,0 km/h (2 Bft) 96,00 %
27.09.2018 00:20 7,8 C 15,6 C 6,1 C 89 % 1033,4 hPa 0,0 l/m 4,8 km/h (1 Bft) S-SW 198 0 min 0,000 mm 0,0 UV-I 0 W/m 6,1 C 7,8 C 6,4 km/h (2 Bft) 97,87 %
27.09.2018 00:22 7,7 C 15,6 C 6,1 C 89 % 1033,4 hPa 0,0 l/m 5,4 km/h (1 Bft) S-SW 200 0 min 0,000 mm 0,0 UV-I 0 W/m 6,0 C 7,7 C 6,4 km/h (2 Bft) 93,62 %
27.09.2018 00:24 7,7 C 15,6 C 6,1 C 89 % 1033,4 hPa 0,0 l/m 4,7 km/h (1 Bft) S-SW 194 0 min 0,000 mm 0,0 UV-I 0 W/m 6,0 C 7,7 C 6,4 km/h (2 Bft) 95,74 %
27.09.2018 00:26 7,5 C 15,6 C 6,1 C 88 % 1033,4 hPa 0,0 l/m 4,5 km/h (1 Bft) S-SW 195 0 min 0,000 mm 0,0 UV-I 0 W/m 5,6 C 7,5 C 8,0 km/h (2 Bft) 97,87 %
27.09.2018 00:28 7,4 C 15,6 C 6,1 C 89 % 1033,4 hPa 0,0 l/m 4,8 km/h (1 Bft) SW 219 0 min 0,000 mm 0,0 UV-I 0 W/m 5,7 C 7,4 C 6,4 km/h (2 Bft) 95,74 %
27.09.2018 00:30 7,4 C 15,6 C 5,6 C 89 % 1033,4 hPa 0,0 l/m 3,7 km/h (1 Bft) SW 219 0 min 0,000 mm 0,0 UV-I 0 W/m 5,7 C 7,4 C 4,8 km/h (1 Bft) 97,22 %
27.09.2018 00:32 7,4 C 15,6 C 5,0 C 89 % 1033,4 hPa 0,0 l/m 4,6 km/h (1 Bft) S-SW 194 0 min 0,000 mm 0,0 UV-I 0 W/m 5,7 C 7,4 C 6,4 km/h (2 Bft) 98,04 %
27.09.2018 00:34 7,3 C 15,6 C 5,0 C 89 % 1033,4 hPa 0,0 l/m 3,6 km/h (1 Bft) S-SW 194 0 min 0,000 mm 0,0 UV-I 0 W/m 5,6 C 7,3 C 4,8 km/h (1 Bft) 97,87 %
27.09.2018 00:36 7,3 C 15,6 C 4,4 C 89 % 1033,4 hPa 0,0 l/m 4,0 km/h (1 Bft) S-SW 198 0 min 0,000 mm 0,0 UV-I 0 W/m 5,6 C 7,3 C 6,4 km/h (2 Bft) 97,87 %
27.09.2018 00:38 7,2 C 15,6 C 4,4 C 89 % 1033,4 hPa 0,0 l/m 5,1 km/h (1 Bft) S-SW 202 0 min 0,000 mm 0,0 UV-I 0 W/m 5,5 C 7,2 C 8,0 km/h (2 Bft) 95,74 %
27.09.2018 00:40 7,2 C 15,6 C 4,4 C 89 % 1033,4 hPa 0,0 l/m 4,3 km/h (1 Bft) S-SW 203 0 min 0,000 mm 0,0 UV-I 0 W/m 5,5 C 7,2 C 6,4 km/h (2 Bft) 97,87 %
27.09.2018 00:42 7,3 C 15,6 C 4,4 C 91 % 1033,4 hPa 0,0 l/m 5,6 km/h (1 Bft) S-SW 209 0 min 0,000 mm 0,0 UV-I 0 W/m 5,9 C 7,3 C 9,7 km/h (2 Bft) 97,87 %
27.09.2018 00:44 7,6 C 15,6 C 5,0 C 90 % 1033,4 hPa 0,0 l/m 4,7 km/h (1 Bft) S-SW 201 0 min 0,000 mm 0,0 UV-I 0 W/m 6,1 C 7,6 C 8,0 km/h (2 Bft) 97,87 %
27.09.2018 00:46 7,7 C 15,6 C 5,6 C 90 % 1033,4 hPa 0,0 l/m 4,6 km/h (1 Bft) S-SW 208 0 min 0,000 mm 0,0 UV-I 0 W/m 6,2 C 7,7 C 6,4 km/h (2 Bft) 98,00 %
27.09.2018 00:48 7,7 C 15,6 C 5,6 C 90 % 1033,4 hPa 0,0 l/m 4,4 km/h (1 Bft) S-SW 201 0 min 0,000 mm 0,0 UV-I 0 W/m 6,2 C 7,7 C 6,4 km/h (2 Bft) 100,00 %
27.09.2018 00:50 7,8 C 15,6 C 5,6 C 90 % 1033,4 hPa 0,0 l/m 4,2 km/h (1 Bft) S-SW 208 0 min 0,000 mm 0,0 UV-I 0 W/m 6,3 C 7,8 C 6,4 km/h (2 Bft) 100,00 %
27.09.2018 00:52 7,8 C 15,6 C 5,6 C 89 % 1033,4 hPa 0,0 l/m 4,3 km/h (1 Bft) S-SW 207 0 min 0,000 mm 0,0 UV-I 0 W/m 6,1 C 7,8 C 4,8 km/h (1 Bft) 100,00 %
27.09.2018 00:54 7,7 C 15,6 C 5,6 C 89 % 1033,4 hPa 0,0 l/m 4,0 km/h (1 Bft) S-SW 194 0 min 0,000 mm 0,0 UV-I 0 W/m 6,0 C 7,7 C 4,8 km/h (1 Bft) 100,00 %
27.09.2018 00:56 7,6 C 15,6 C 5,6 C 89 % 1033,4 hPa 0,0 l/m 3,9 km/h (1 Bft) S-SW 213 0 min 0,000 mm 0,0 UV-I 0 W/m 5,9 C 7,6 C 6,4 km/h (2 Bft) 100,00 %
27.09.2018 00:58 7,6 C 15,6 C 5,0 C 89 % 1033,4 hPa 0,0 l/m 4,0 km/h (1 Bft) S-SW 213 0 min 0,000 mm 0,0 UV-I 0 W/m 5,9 C 7,6 C 6,4 km/h (2 Bft) 100,00 %
27.09.2018 01:00 7,6 C 15,6 C 4,4 C 90 % 1033,4 hPa 0,0 l/m 4,0 km/h (1 Bft) S-SW 213 0 min 0,000 mm 0,0 UV-I 0 W/m 6,1 C 7,6 C 6,4 km/h (2 Bft) 98,00 %
27.09.2018 01:02 7,6 C 15,6 C 4,4 C 89 % 1033,4 hPa 0,0 l/m 2,8 km/h (1 Bft) S-SW 213 0 min 0,000 mm 0,0 UV-I 0 W/m 5,9 C 7,6 C 4,8 km/h (1 Bft) 97,87 %
27.09.2018 01:04 7,4 C 15,6 C 4,4 C 89 % 1033,4 hPa 0,0 l/m 2,4 km/h (1 Bft) S-SW 213 0 min 0,000 mm 0,0 UV-I 0 W/m 5,7 C 7,4 C 3,2 km/h (1 Bft) 100,00 %
27.09.2018 01:06 7,2 C 15,6 C 4,4 C 89 % 1033,4 hPa 0,0 l/m 3,3 km/h (1 Bft) SW 225 0 min 0,000 mm 0,0 UV-I 0 W/m 5,5 C 7,2 C 4,8 km/h (1 Bft) 97,92 %
27.09.2018 01:08 7,1 C 15,6 C 4,4 C 90 % 1033,4 hPa 0,0 l/m 3,6 km/h (1 Bft) SW 225 0 min 0,000 mm 0,0 UV-I 0 W/m 5,6 C 7,1 C 4,8 km/h (1 Bft) 100,00 %
27.09.2018 01:10 6,9 C 15,6 C 4,4 C 90 % 1033,4 hPa 0,0 l/m 4,2 km/h (1 Bft) SW 225 0 min 0,000 mm 0,0 UV-I 0 W/m 5,4 C 6,9 C 4,8 km/h (1 Bft) 100,00 %
27.09.2018 01:12 6,9 C 15,6 C 4,4 C 90 % 1033,4 hPa 0,0 l/m 4,2 km/h (1 Bft) SW 225 0 min 0,000 mm 0,0 UV-I 0 W/m 5,4 C 6,9 C 4,8 km/h (1 Bft) 95,74 %
27.09.2018 01:14 6,8 C 15,6 C 4,4 C 90 % 1033,3 hPa 0,0 l/m 4,0 km/h (1 Bft) SW 225 0 min 0,000 mm 0,0 UV-I 0 W/m 5,3 C 6,8 C 4,8 km/h (1 Bft) 100,00 %
27.09.2018 01:16 6,9 C 15,6 C 3,9 C 91 % 1033,4 hPa 0,0 l/m 4,5 km/h (1 Bft) SW 225 0 min 0,000 mm 0,0 UV-I 0 W/m 5,5 C 6,9 C 6,4 km/h (2 Bft) 95,74 %
27.09.2018 01:18 6,9 C 15,6 C 3,9 C 91 % 1033,4 hPa 0,0 l/m 3,6 km/h (1 Bft) SW 225 0 min 0,000 mm 0,0 UV-I 0 W/m 5,5 C 6,9 C 4,8 km/h (1 Bft) 94,74 %
27.09.2018 01:20 7,0 C 15,6 C 3,9 C 91 % 1033,4 hPa 0,0 l/m 2,3 km/h (1 Bft) SW 225 0 min 0,000 mm 0,0 UV-I 0 W/m 5,6 C 7,0 C 3,2 km/h (1 Bft) 95,74 %
27.09.2018 01:22 7,0 C 15,6 C 3,9 C 91 % 1033,3 hPa 0,0 l/m 2,4 km/h (1 Bft) SW 225 0 min 0,000 mm 0,0 UV-I 0 W/m 5,6 C 7,0 C 3,2 km/h (1 Bft) 98,04 %
27.09.2018 01:24 6,9 C 15,6 C 3,9 C 90 % 1033,3 hPa 0,0 l/m 2,1 km/h (1 Bft) SW 225 0 min 0,000 mm 0,0 UV-I 0 W/m 5,4 C 6,9 C 3,2 km/h (1 Bft) 97,87 %
27.09.2018 01:26 6,7 C 15,6 C 3,3 C 90 % 1033,3 hPa 0,0 l/m 2,5 km/h (1 Bft) SW 225 0 min 0,000 mm 0,0 UV-I 0 W/m 5,2 C 6,7 C 3,2 km/h (1 Bft) 97,87 %
27.09.2018 01:28 6,6 C 15,6 C 3,3 C 90 % 1033,3 hPa 0,0 l/m 2,5 km/h (1 Bft) SW 225 0 min 0,000 mm 0,0 UV-I 0 W/m 5,1 C 6,6 C 4,8 km/h (1 Bft) 95,74 %
27.09.2018 01:30 6,4 C 15,6 C 3,3 C 91 % 1033,3 hPa 0,0 l/m 3,2 km/h (1 Bft) SW 225 0 min 0,000 mm 0,0 UV-I 0 W/m 5,0 C 6,4 C 4,8 km/h (1 Bft) 97,87 %
27.09.2018 01:32 6,3 C 15,6 C 3,3 C 91 % 1033,3 hPa 0,0 l/m 3,5 km/h (1 Bft) SW 225 0 min 0,000 mm 0,0 UV-I 0 W/m 4,9 C 6,3 C 4,8 km/h (1 Bft) 97,87 %
27.09.2018 01:34 6,1 C 15,6 C 3,3 C 91 % 1033,3 hPa 0,0 l/m 3,2 km/h (1 Bft) SW 225 0 min 0,000 mm 0,0 UV-I 0 W/m 4,7 C 6,1 C 4,8 km/h (1 Bft) 97,92 %
27.09.2018 01:36 6,1 C 15,6 C 2,8 C 91 % 1033,3 hPa 0,0 l/m 3,3 km/h (1 Bft) SW 225 0 min 0,000 mm 0,0 UV-I 0 W/m 4,7 C 6,1 C 4,8 km/h (1 Bft) 93,62 %
27.09.2018 01:38 6,1 C 15,6 C 2,8 C 91 % 1033,2 hPa 0,0 l/m 3,2 km/h (1 Bft) SW 225 0 min 0,000 mm 0,0 UV-I 0 W/m 4,7 C 6,1 C 4,8 km/h (1 Bft) 97,87 %
27.09.2018 01:40 6,1 C 15,6 C 2,8 C 92 % 1033,2 hPa 0,0 l/m 3,6 km/h (1 Bft) SW 225 0 min 0,000 mm 0,0 UV-I 0 W/m 4,9 C 6,1 C 4,8 km/h (1 Bft) 93,62 %
27.09.2018 01:42 6,1 C 15,6 C 2,8 C 92 % 1033,2 hPa 0,0 l/m 2,6 km/h (1 Bft) SW 225 0 min 0,000 mm 0,0 UV-I 0 W/m 4,9 C 6,1 C 3,2 km/h (1 Bft) 96,00 %
27.09.2018 01:44 6,0 C 15,6 C 2,8 C 91 % 1033,2 hPa 0,0 l/m 2,2 km/h (1 Bft) SW 225 0 min 0,000 mm 0,0 UV-I 0 W/m 4,6 C 6,0 C 3,2 km/h (1 Bft) 91,67 %
27.09.2018 01:46 6,1 C 15,6 C 2,8 C 92 % 1033,2 hPa 0,0 l/m 2,3 km/h (1 Bft) SW 225 0 min 0,000 mm 0,0 UV-I 0 W/m 4,9 C 6,1 C 3,2 km/h (1 Bft) 95,74 %
27.09.2018 01:48 6,0 C 15,6 C 2,8 C 92 % 1033,2 hPa 0,0 l/m 1,6 km/h (1 Bft) SW 225 0 min 0,000 mm 0,0 UV-I 0 W/m 4,8 C 6,0 C 3,2 km/h (1 Bft) 95,74 %
27.09.2018 01:50 6,0 C 15,6 C 2,8 C 92 % 1033,2 hPa 0,0 l/m 1,1 km/h (1 Bft) SW 225 0 min 0,000 mm 0,0 UV-I 0 W/m 4,8 C 6,0 C 1,6 km/h (1 Bft) 95,74 %
27.09.2018 01:52 6,1 C 15,6 C 2,2 C 92 % 1033,2 hPa 0,0 l/m 1,4 km/h (1 Bft) SW 225 0 min 0,000 mm 0,0 UV-I 0 W/m 4,9 C 6,1 C 3,2 km/h (1 Bft) 93,62 %
27.09.2018 01:54 6,1 C 15,6 C 2,2 C 92 % 1033,2 hPa 0,0 l/m 1,8 km/h (1 Bft) SW 225 0 min 0,000 mm 0,0 UV-I 0 W/m 4,9 C 6,1 C 3,2 km/h (1 Bft) 92,00 %
27.09.2018 01:56 6,1 C 15,6 C 2,2 C 91 % 1033,2 hPa 0,0 l/m 2,1 km/h (1 Bft) SW 225 0 min 0,000 mm 0,0 UV-I 0 W/m 4,7 C 6,1 C 3,2 km/h (1 Bft) 96,00 %
27.09.2018 01:58 6,1 C 15,6 C 2,8 C 92 % 1033,3 hPa 0,0 l/m 2,4 km/h (1 Bft) SW 225 0 min 0,000 mm 0,0 UV-I 0 W/m 4,9 C 6,1 C 3,2 km/h (1 Bft) 93,62 %
27.09.2018 02:00 6,0 C 15,6 C 2,2 C 91 % 1033,3 hPa 0,0 l/m 2,3 km/h (1 Bft) SW 225 0 min 0,000 mm 0,0 UV-I 0 W/m 4,6 C 6,0 C 3,2 km/h (1 Bft) 96,00 %
27.09.2018 02:02 6,0 C 15,6 C 2,8 C 91 % 1033,3 hPa 0,0 l/m 2,5 km/h (1 Bft) SW 225 0 min 0,000 mm 0,0 UV-I 0 W/m 4,6 C 6,0 C 3,2 km/h (1 Bft) 95,74 %
27.09.2018 02:04 5,9 C 15,6 C 2,2 C 91 % 1033,2 hPa 0,0 l/m 3,2 km/h (1 Bft) SW 225 0 min 0,000 mm 0,0 UV-I 0 W/m 4,5 C 5,9 C 4,8 km/h (1 Bft) 91,49 %
27.09.2018 02:06 5,8 C 15,6 C 2,8 C 91 % 1033,2 hPa 0,0 l/m 2,9 km/h (1 Bft) SW 225 0 min 0,000 mm 0,0 UV-I 0 W/m 4,4 C 5,8 C 3,2 km/h (1 Bft) 95,74 %
27.09.2018 02:08 5,6 C 15,6 C 2,8 C 91 % 1033,2 hPa 0,0 l/m 3,4 km/h (1 Bft) SW 225 0 min 0,000 mm 0,0 UV-I 0 W/m 4,2 C 5,6 C 4,8 km/h (1 Bft) 97,22 %
27.09.2018 02:10 5,4 C 15,6 C 2,2 C 91 % 1033,1 hPa 0,0 l/m 2,7 km/h (1 Bft) SW 225 0 min 0,000 mm 0,0 UV-I 0 W/m 4,1 C 5,4 C 3,2 km/h (1 Bft) 98,00 %
27.09.2018 02:12 5,4 C 15,6 C 2,2 C 92 % 1033,1 hPa 0,0 l/m 2,6 km/h (1 Bft) SW 225 0 min 0,000 mm 0,0 UV-I 0 W/m 4,2 C 5,4 C 3,2 km/h (1 Bft) 97,87 %
27.09.2018 02:14 5,4 C 15,6 C 2,2 C 92 % 1033,1 hPa 0,0 l/m 2,5 km/h (1 Bft) SW 225 0 min 0,000 mm 0,0 UV-I 0 W/m 4,2 C 5,4 C 3,2 km/h (1 Bft) 97,87 %
27.09.2018 02:16 5,4 C 15,6 C 2,2 C 92 % 1033,1 hPa 0,0 l/m 2,6 km/h (1 Bft) SW 225 0 min 0,000 mm 0,0 UV-I 0 W/m 4,2 C 5,4 C 3,2 km/h (1 Bft) 97,87 %
27.09.2018 02:18 5,4 C 15,6 C 2,2 C 92 % 1033,1 hPa 0,0 l/m 2,7 km/h (1 Bft) SW 225 0 min 0,000 mm 0,0 UV-I 0 W/m 4,2 C 5,4 C 3,2 km/h (1 Bft) 95,74 %
27.09.2018 02:20 5,4 C 15,6 C 2,2 C 92 % 1033,0 hPa 0,0 l/m 3,8 km/h (1 Bft) SW 225 0 min 0,000 mm 0,0 UV-I 0 W/m 4,2 C 5,4 C 4,8 km/h (1 Bft) 95,83 %
27.09.2018 02:22 5,6 C 15,6 C 2,8 C 92 % 1033,0 hPa 0,0 l/m 3,7 km/h (1 Bft) SW 225 0 min 0,000 mm 0,0 UV-I 0 W/m 4,4 C 5,6 C 4,8 km/h (1 Bft) 97,87 %
27.09.2018 02:24 5,7 C 15,6 C 2,8 C 92 % 1033,0 hPa 0,0 l/m 3,3 km/h (1 Bft) SW 225 0 min 0,000 mm 0,0 UV-I 0 W/m 4,5 C 5,7 C 4,8 km/h (1 Bft) 97,87 %
27.09.2018 02:26 5,8 C 15,6 C 2,8 C 92 % 1032,9 hPa 0,0 l/m 4,5 km/h (1 Bft) SW 225 0 min 0,000 mm 0,0 UV-I 0 W/m 4,6 C 5,8 C 6,4 km/h (2 Bft) 97,56 %
27.09.2018 02:28 5,8 C 15,6 C 3,3 C 92 % 1032,9 hPa 0,0 l/m 5,3 km/h (1 Bft) SW 225 0 min 0,000 mm 0,0 UV-I 0 W/m 4,6 C 5,8 C 6,4 km/h (2 Bft) 100,00 %
27.09.2018 02:30 5,7 C 15,6 C 2,8 C 92 % 1032,9 hPa 0,0 l/m 4,9 km/h (1 Bft) SW 225 0 min 0,000 mm 0,0 UV-I 0 W/m 4,5 C 5,7 C 6,4 km/h (2 Bft) 95,74 %
27.09.2018 02:32 5,7 C 15,6 C 2,8 C 92 % 1032,9 hPa 0,0 l/m 4,3 km/h (1 Bft) SW 225 0 min 0,000 mm 0,0 UV-I 0 W/m 4,5 C 5,7 C 6,4 km/h (2 Bft) 95,74 %
27.09.2018 02:34 5,8 C 15,6 C 2,8 C 92 % 1032,9 hPa 0,0 l/m 4,3 km/h (1 Bft) SW 225 0 min 0,000 mm 0,0 UV-I 0 W/m 4,6 C 5,8 C 4,8 km/h (1 Bft) 93,62 %
27.09.2018 02:36 5,7 C 15,6 C 2,8 C 92 % 1033,0 hPa 0,0 l/m 3,6 km/h (1 Bft) SW 225 0 min 0,000 mm 0,0 UV-I 0 W/m 4,5 C 5,7 C 4,8 km/h (1 Bft) 95,74 %
27.09.2018 02:38 5,6 C 15,6 C 2,8 C 91 % 1033,0 hPa 0,0 l/m 3,7 km/h (1 Bft) SW 225 0 min 0,000 mm 0,0 UV-I 0 W/m 4,2 C 5,6 C 4,8 km/h (1 Bft) 100,00 %
27.09.2018 02:40 5,5 C 15,6 C 2,8 C 91 % 1032,9 hPa 0,0 l/m 4,4 km/h (1 Bft) SW 225 0 min 0,000 mm 0,0 UV-I 0 W/m 4,2 C 5,5 C 4,8 km/h (1 Bft) 97,87 %
27.09.2018 02:42 5,6 C 15,6 C 2,8 C 92 % 1032,9 hPa 0,0 l/m 3,9 km/h (1 Bft) SW 225 0 min 0,000 mm 0,0 UV-I 0 W/m 4,4 C 5,6 C 4,8 km/h (1 Bft) 98,00 %
27.09.2018 02:44 5,6 C 15,6 C 2,2 C 92 % 1033,0 hPa 0,0 l/m 4,3 km/h (1 Bft) SW 225 0 min 0,000 mm 0,0 UV-I 0 W/m 4,4 C 5,6 C 4,8 km/h (1 Bft) 100,00 %
27.09.2018 02:46 5,6 C 15,6 C 2,2 C 92 % 1032,9 hPa 0,0 l/m 4,5 km/h (1 Bft) SW 225 0 min 0,000 mm 0,0 UV-I 0 W/m 4,4 C 5,6 C 6,4 km/h (2 Bft) 100,00 %
27.09.2018 02:48 5,6 C 15,6 C 2,2 C 92 % 1032,9 hPa 0,0 l/m 4,2 km/h (1 Bft) SW 225 0 min 0,000 mm 0,0 UV-I 0 W/m 4,4 C 5,6 C 4,8 km/h (1 Bft) 97,87 %
27.09.2018 02:50 5,5 C 15,6 C 2,2 C 92 % 1032,9 hPa 0,0 l/m 5,4 km/h (1 Bft) S-SW 205 0 min 0,000 mm 0,0 UV-I 0 W/m 4,3 C 5,5 C 6,4 km/h (2 Bft) 97,87 %
27.09.2018 02:52 5,6 C 15,6 C 2,8 C 92 % 1032,8 hPa 0,0 l/m 5,0 km/h (1 Bft) S-SW 200 0 min 0,000 mm 0,0 UV-I 0 W/m 4,4 C 5,6 C 6,4 km/h (2 Bft) 98,00 %
27.09.2018 02:54 5,6 C 15,6 C 2,8 C 92 % 1032,9 hPa 0,0 l/m 4,5 km/h (1 Bft) SW 227 0 min 0,000 mm 0,0 UV-I 0 W/m 4,4 C 5,6 C 6,4 km/h (2 Bft) 95,74 %
27.09.2018 02:56 5,6 C 15,6 C 2,8 C 92 % 1032,9 hPa 0,0 l/m 3,2 km/h (1 Bft) SW 214 0 min 0,000 mm 0,0 UV-I 0 W/m 4,4 C 5,6 C 6,4 km/h (2 Bft) 97,87 %
27.09.2018 02:58 5,6 C 15,6 C 2,2 C 92 % 1033,0 hPa 0,0 l/m 3,9 km/h (1 Bft) SW 216 0 min 0,000 mm 0,0 UV-I 0 W/m 4,4 C 5,6 C 6,4 km/h (2 Bft) 97,87 %
27.09.2018 03:00 5,6 C 15,6 C 2,2 C 92 % 1032,9 hPa 0,0 l/m 3,8 km/h (1 Bft) SW 216 0 min 0,000 mm 0,0 UV-I 0 W/m 4,4 C 5,6 C 4,8 km/h (1 Bft) 97,37 %
27.09.2018 03:02 5,7 C 15,6 C 2,2 C 92 % 1032,9 hPa 0,0 l/m 4,3 km/h (1 Bft) SW 215 0 min 0,000 mm 0,0 UV-I 0 W/m 4,5 C 5,7 C 4,8 km/h (1 Bft) 95,74 %
27.09.2018 03:04 5,7 C 15,6 C 2,8 C 92 % 1033,0 hPa 0,0 l/m 4,0 km/h (1 Bft) S-SW 211 0 min 0,000 mm 0,0 UV-I 0 W/m 4,5 C 5,7 C 6,4 km/h (2 Bft) 97,87 %
27.09.2018 03:06 5,7 C 15,6 C 2,2 C 92 % 1032,9 hPa 0,0 l/m 4,1 km/h (1 Bft) SW 225 0 min 0,000 mm 0,0 UV-I 0 W/m 4,5 C 5,7 C 6,4 km/h (2 Bft) 95,74 %
27.09.2018 03:08 5,7 C 15,6 C 2,2 C 92 % 1032,9 hPa 0,0 l/m 4,6 km/h (1 Bft) SW 220 0 min 0,000 mm 0,0 UV-I 0 W/m 4,5 C 5,7 C 9,7 km/h (2 Bft) 97,87 %
27.09.2018 03:10 5,8 C 15,6 C 2,8 C 92 % 1032,9 hPa 0,0 l/m 4,2 km/h (1 Bft) SW 217 0 min 0,000 mm 0,0 UV-I 0 W/m 4,6 C 5,8 C 6,4 km/h (2 Bft) 97,87 %
27.09.2018 03:12 5,8 C 15,6 C 3,3 C 92 % 1032,8 hPa 0,0 l/m 4,2 km/h (1 Bft) SW 215 0 min 0,000 mm 0,0 UV-I 0 W/m 4,6 C 5,8 C 6,4 km/h (2 Bft) 95,74 %
27.09.2018 03:14 5,9 C 15,6 C 3,3 C 92 % 1032,8 hPa 0,0 l/m 4,0 km/h (1 Bft) S-SW 202 0 min 0,000 mm 0,0 UV-I 0 W/m 4,7 C 5,9 C 6,4 km/h (2 Bft) 100,00 %
27.09.2018 03:16 5,9 C 15,6 C 3,3 C 92 % 1032,7 hPa 0,0 l/m 4,8 km/h (1 Bft) S-SW 205 0 min 0,000 mm 0,0 UV-I 0 W/m 4,7 C 5,9 C 6,4 km/h (2 Bft) 100,00 %
27.09.2018 03:18 5,7 C 15,6 C 3,3 C 91 % 1032,7 hPa 0,0 l/m 4,4 km/h (1 Bft) S-SW 210 0 min 0,000 mm 0,0 UV-I 0 W/m 4,3 C 5,7 C 6,4 km/h (2 Bft) 97,92 %
27.09.2018 03:20 5,6 C 15,6 C 2,8 C 91 % 1032,7 hPa 0,0 l/m 4,3 km/h (1 Bft) S-SW 210 0 min 0,000 mm 0,0 UV-I 0 W/m 4,2 C 5,6 C 4,8 km/h (1 Bft) 100,00 %
27.09.2018 03:22 5,6 C 15,6 C 3,3 C 92 % 1032,7 hPa 0,0 l/m 4,5 km/h (1 Bft) S-SW 209 0 min 0,000 mm 0,0 UV-I 0 W/m 4,4 C 5,6 C 6,4 km/h (2 Bft) 95,74 %
27.09.2018 03:24 5,7 C 15,6 C 3,3 C 92 % 1032,6 hPa 0,0 l/m 4,5 km/h (1 Bft) SW 218 0 min 0,000 mm 0,0 UV-I 0 W/m 4,5 C 5,7 C 6,4 km/h (2 Bft) 100,00 %
27.09.2018 03:26 5,7 C 15,6 C 2,8 C 92 % 1032,7 hPa 0,0 l/m 4,0 km/h (1 Bft) SW 215 0 min 0,000 mm 0,0 UV-I 0 W/m 4,5 C 5,7 C 6,4 km/h (2 Bft) 100,00 %
27.09.2018 03:28 5,8 C 15,6 C 3,3 C 92 % 1032,7 hPa 0,0 l/m 4,7 km/h (1 Bft) S-SW 205 0 min 0,000 mm 0,0 UV-I 0 W/m 4,6 C 5,8 C 6,4 km/h (2 Bft) 100,00 %
27.09.2018 03:30 5,8 C 15,6 C 3,3 C 92 % 1032,6 hPa 0,0 l/m 5,0 km/h (1 Bft) S-SW 209 0 min 0,000 mm 0,0 UV-I 0 W/m 4,6 C 5,8 C 8,0 km/h (2 Bft) 100,00 %
27.09.2018 03:32 5,7 C 15,6 C 3,9 C 92 % 1032,6 hPa 0,0 l/m 4,4 km/h (1 Bft) S-SW 208 0 min 0,000 mm 0,0 UV-I 0 W/m 4,5 C 5,7 C 6,4 km/h (2 Bft) 97,87 %
27.09.2018 03:34 5,7 C 15,6 C 3,9 C 92 % 1032,6 hPa 0,0 l/m 3,9 km/h (1 Bft) S-SW 208 0 min 0,000 mm 0,0 UV-I 0 W/m 4,5 C 5,7 C 4,8 km/h (1 Bft) 100,00 %
27.09.2018 03:36 5,5 C 15,6 C 3,3 C 92 % 1032,6 hPa 0,0 l/m 3,4 km/h (1 Bft) S-SW 208 0 min 0,000 mm 0,0 UV-I 0 W/m 4,3 C 5,5 C 6,4 km/h (2 Bft) 100,00 %
27.09.2018 03:38 5,3 C 15,6 C 2,8 C 91 % 1032,6 hPa 0,0 l/m 3,5 km/h (1 Bft) S-SW 210 0 min 0,000 mm 0,0 UV-I 0 W/m 4,0 C 5,3 C 4,8 km/h (1 Bft) 97,87 %
27.09.2018 03:40 5,2 C 15,6 C 2,8 C 92 % 1032,6 hPa 0,0 l/m 4,5 km/h (1 Bft) S-SW 210 0 min 0,000 mm 0,0 UV-I 0 W/m 4,0 C 5,2 C 6,4 km/h (2 Bft) 97,87 %
27.09.2018 03:42 5,2 C 15,6 C 2,8 C 92 % 1032,6 hPa 0,0 l/m 5,8 km/h (2 Bft) S 190 0 min 0,000 mm 0,0 UV-I 0 W/m 4,0 C 5,2 C 8,0 km/h (2 Bft) 100,00 %
27.09.2018 03:44 5,1 C 15,6 C 2,8 C 92 % 1032,6 hPa 0,0 l/m 6,1 km/h (2 Bft) S 189 0 min 0,000 mm 0,0 UV-I 0 W/m 3,9 C 5,1 C 8,0 km/h (2 Bft) 100,00 %
27.09.2018 03:46 5,1 C 15,6 C 2,8 C 92 % 1032,6 hPa 0,0 l/m 5,6 km/h (1 Bft) S-SW 198 0 min 0,000 mm 0,0 UV-I 0 W/m 3,9 C 5,1 C 6,4 km/h (2 Bft) 100,00 %
27.09.2018 03:48 5,1 C 15,6 C 2,8 C 92 % 1032,6 hPa 0,0 l/m 5,1 km/h (1 Bft) S-SW 196 0 min 0,000 mm 0,0 UV-I 0 W/m 3,9 C 5,1 C 6,4 km/h (2 Bft) 100,00 %
27.09.2018 03:50 5,3 C 15,6 C 2,8 C 93 % 1032,6 hPa 0,0 l/m 4,8 km/h (1 Bft) S-SW 196 0 min 0,000 mm 0,0 UV-I 0 W/m 4,3 C 5,3 C 6,4 km/h (2 Bft) 100,00 %
27.09.2018 03:52 5,4 C 15,6 C 2,2 C 93 % 1032,6 hPa 0,0 l/m 4,1 km/h (1 Bft) S-SW 196 0 min 0,000 mm 0,0 UV-I 0 W/m 4,4 C 5,4 C 6,4 km/h (2 Bft) 100,00 %
27.09.2018 03:54 5,6 C 15,6 C 2,2 C 93 % 1032,6 hPa 0,0 l/m 2,4 km/h (1 Bft) S-SW 197 0 min 0,000 mm 0,0 UV-I 0 W/m 4,6 C 5,6 C 3,2 km/h (1 Bft) 100,00 %
27.09.2018 03:56 5,7 C 15,6 C 1,7 C 92 % 1032,6 hPa 0,0 l/m 2,3 km/h (1 Bft) S-SW 197 0 min 0,000 mm 0,0 UV-I 0 W/m 4,5 C 5,7 C 4,8 km/h (1 Bft) 97,87 %
27.09.2018 03:58 5,7 C 15,6 C 1,7 C 92 % 1032,6 hPa 0,0 l/m 2,6 km/h (1 Bft) S-SW 197 0 min 0,000 mm 0,0 UV-I 0 W/m 4,5 C 5,7 C 4,8 km/h (1 Bft) 93,62 %
27.09.2018 04:00 5,7 C 15,6 C 1,7 C 92 % 1032,6 hPa 0,0 l/m 3,1 km/h (1 Bft) S-SW 197 0 min 0,000 mm 0,0 UV-I 0 W/m 4,5 C 5,7 C 4,8 km/h (1 Bft) 98,00 %
27.09.2018 04:02 5,6 C 15,6 C 1,7 C 91 % 1032,5 hPa 0,0 l/m 2,8 km/h (1 Bft) S-SW 197 0 min 0,000 mm 0,0 UV-I 0 W/m 4,2 C 5,6 C 4,8 km/h (1 Bft) 100,00 %
27.09.2018 04:04 5,4 C 15,6 C 1,7 C 91 % 1032,5 hPa 0,0 l/m 3,5 km/h (1 Bft) S-SW 197 0 min 0,000 mm 0,0 UV-I 0 W/m 4,1 C 5,4 C 4,8 km/h (1 Bft) 95,74 %
27.09.2018 04:06 5,3 C 15,0 C 1,7 C 91 % 1032,5 hPa 0,0 l/m 3,5 km/h (1 Bft) S-SW 197 0 min 0,000 mm 0,0 UV-I 0 W/m 4,0 C 5,3 C 4,8 km/h (1 Bft) 100,00 %
27.09.2018 04:08 5,3 C 15,0 C 2,2 C 92 % 1032,5 hPa 0,0 l/m 4,7 km/h (1 Bft) S-SW 198 0 min 0,000 mm 0,0 UV-I 0 W/m 4,1 C 5,3 C 6,4 km/h (2 Bft) 100,00 %
27.09.2018 04:10 5,3 C 15,0 C 2,8 C 92 % 1032,5 hPa 0,0 l/m 4,0 km/h (1 Bft) S-SW 206 0 min 0,000 mm 0,0 UV-I 0 W/m 4,1 C 5,3 C 6,4 km/h (2 Bft) 97,87 %
27.09.2018 04:12 5,3 C 15,0 C 2,8 C 92 % 1032,5 hPa 0,0 l/m 2,8 km/h (1 Bft) S-SW 206 0 min 0,000 mm 0,0 UV-I 0 W/m 4,1 C 5,3 C 4,8 km/h (1 Bft) 98,00 %
27.09.2018 04:14 5,4 C 15,0 C 2,2 C 92 % 1032,5 hPa 0,0 l/m 2,9 km/h (1 Bft) S-SW 206 0 min 0,000 mm 0,0 UV-I 0 W/m 4,2 C 5,4 C 4,8 km/h (1 Bft) 97,37 %
27.09.2018 04:16 5,3 C 15,0 C 1,7 C 92 % 1032,5 hPa 0,0 l/m 3,2 km/h (1 Bft) S-SW 206 0 min 0,000 mm 0,0 UV-I 0 W/m 4,1 C 5,3 C 4,8 km/h (1 Bft) 95,74 %
27.09.2018 04:18 5,4 C 15,0 C 1,7 C 92 % 1032,5 hPa 0,0 l/m 4,1 km/h (1 Bft) S-SW 206 0 min 0,000 mm 0,0 UV-I 0 W/m 4,2 C 5,4 C 4,8 km/h (1 Bft) 92,00 %
27.09.2018 04:20 5,3 C 15,0 C 1,7 C 92 % 1032,5 hPa 0,0 l/m 3,7 km/h (1 Bft) S-SW 206 0 min 0,000 mm 0,0 UV-I 0 W/m 4,1 C 5,3 C 4,8 km/h (1 Bft) 93,62 %
27.09.2018 04:22 5,3 C 15,0 C 1,7 C 91 % 1032,5 hPa 0,0 l/m 3,8 km/h (1 Bft) S-SW 206 0 min 0,000 mm 0,0 UV-I 0 W/m 4,0 C 5,3 C 4,8 km/h (1 Bft) 91,49 %
27.09.2018 04:25 5,3 C 15,0 C 1,1 C 91 % 1032,5 hPa 0,0 l/m 3,8 km/h (1 Bft) S-SW 206 0 min 0,000 mm 0,0 UV-I 0 W/m 4,0 C 5,3 C 4,8 km/h (1 Bft) 92,96 %
27.09.2018 04:26 5,4 C 15,0 C 1,1 C 92 % 1032,5 hPa 0,0 l/m 4,1 km/h (1 Bft) S-SW 206 0 min 0,000 mm 0,0 UV-I 0 W/m 4,2 C 5,4 C 4,8 km/h (1 Bft) 82,61 %
27.09.2018 04:28 5,4 C 15,0 C 1,1 C 91 % 1032,5 hPa 0,0 l/m 4,1 km/h (1 Bft) S-SW 206 0 min 0,000 mm 0,0 UV-I 0 W/m 4,1 C 5,4 C 6,4 km/h (2 Bft) 94,00 %
27.09.2018 04:30 5,5 C 15,0 C 1,7 C 91 % 1032,5 hPa 0,0 l/m 3,4 km/h (1 Bft) S-SW 206 0 min 0,000 mm 0,0 UV-I 0 W/m 4,2 C 5,5 C 4,8 km/h (1 Bft) 91,67 %
27.09.2018 04:32 5,4 C 15,0 C 1,7 C 91 % 1032,5 hPa 0,0 l/m 4,0 km/h (1 Bft) S-SW 206 0 min 0,000 mm 0,0 UV-I 0 W/m 4,1 C 5,4 C 6,4 km/h (2 Bft) 92,00 %
27.09.2018 04:34 5,6 C 15,0 C 2,2 C 91 % 1032,5 hPa 0,0 l/m 4,0 km/h (1 Bft) S-SW 206 0 min 0,000 mm 0,0 UV-I 0 W/m 4,2 C 5,6 C 6,4 km/h (2 Bft) 93,62 %
27.09.2018 04:36 5,6 C 15,0 C 2,8 C 91 % 1032,5 hPa 0,0 l/m 3,8 km/h (1 Bft) S-SW 206 0 min 0,000 mm 0,0 UV-I 0 W/m 4,2 C 5,6 C 4,8 km/h (1 Bft) 91,49 %
27.09.2018 04:38 5,6 C 15,0 C 2,8 C 90 % 1032,4 hPa 0,0 l/m 3,8 km/h (1 Bft) S-SW 206 0 min 0,000 mm 0,0 UV-I 0 W/m 4,1 C 5,6 C 4,8 km/h (1 Bft) 95,74 %
27.09.2018 04:40 5,5 C 15,0 C 2,8 C 90 % 1032,4 hPa 0,0 l/m 4,7 km/h (1 Bft) S-SW 207 0 min 0,000 mm 0,0 UV-I 0 W/m 4,0 C 5,5 C 6,4 km/h (2 Bft) 93,62 %
27.09.2018 04:42 5,5 C 15,0 C 3,3 C 91 % 1032,4 hPa 0,0 l/m 4,3 km/h (1 Bft) S-SW 211 0 min 0,000 mm 0,0 UV-I 0 W/m 4,2 C 5,5 C 4,8 km/h (1 Bft) 95,74 %
27.09.2018 04:44 5,5 C 15,0 C 3,3 C 91 % 1032,4 hPa 0,0 l/m 4,6 km/h (1 Bft) S-SW 211 0 min 0,000 mm 0,0 UV-I 0 W/m 4,2 C 5,5 C 6,4 km/h (2 Bft) 93,62 %
27.09.2018 04:46 5,4 C 15,0 C 3,3 C 90 % 1032,4 hPa 0,0 l/m 5,2 km/h (1 Bft) S-SW 205 0 min 0,000 mm 0,0 UV-I 0 W/m 3,9 C 5,4 C 6,4 km/h (2 Bft) 95,74 %
27.09.2018 04:48 5,4 C 15,0 C 3,3 C 90 % 1032,4 hPa 0,0 l/m 5,2 km/h (1 Bft) S-SW 205 0 min 0,000 mm 0,0 UV-I 0 W/m 3,9 C 5,4 C 6,4 km/h (2 Bft) 95,74 %
27.09.2018 04:50 5,3 C 15,0 C 3,9 C 91 % 1032,3 hPa 0,0 l/m 6,0 km/h (2 Bft) S-SW 198 0 min 0,000 mm 0,0 UV-I 0 W/m 4,0 C 5,3 C 8,0 km/h (2 Bft) 93,62 %
27.09.2018 04:52 5,4 C 15,0 C 3,9 C 91 % 1032,3 hPa 0,0 l/m 6,3 km/h (2 Bft) S-SW 205 0 min 0,000 mm 0,0 UV-I 0 W/m 4,1 C 5,4 C 9,7 km/h (2 Bft) 95,74 %
27.09.2018 04:54 5,4 C 15,0 C 3,9 C 91 % 1032,2 hPa 0,0 l/m 6,5 km/h (2 Bft) S-SW 198 0 min 0,000 mm 0,0 UV-I 0 W/m 4,1 C 5,3 C 9,7 km/h (2 Bft) 89,36 %
27.09.2018 04:56 5,6 C 15,0 C 3,9 C 91 % 1032,3 hPa 0,0 l/m 5,6 km/h (1 Bft) SW 215 0 min 0,000 mm 0,0 UV-I 0 W/m 4,2 C 5,6 C 8,0 km/h (2 Bft) 94,34 %
27.09.2018 04:58 5,7 C 15,0 C 3,9 C 91 % 1032,2 hPa 0,0 l/m 5,6 km/h (1 Bft) S-SW 200 0 min 0,000 mm 0,0 UV-I 0 W/m 4,3 C 5,7 C 8,0 km/h (2 Bft) 92,11 %
27.09.2018 05:00 5,7 C 15,0 C 3,9 C 90 % 1032,2 hPa 0,0 l/m 6,0 km/h (2 Bft) S-SW 193 0 min 0,000 mm 0,0 UV-I 0 W/m 4,2 C 5,7 C 9,7 km/h (2 Bft) 95,74 %
27.09.2018 05:02 5,7 C 15,0 C 3,9 C 90 % 1032,2 hPa 0,0 l/m 5,5 km/h (1 Bft) S-SW 200 0 min 0,000 mm 0,0 UV-I 0 W/m 4,2 C 5,7 C 8,0 km/h (2 Bft) 95,74 %
27.09.2018 05:04 5,7 C 15,0 C 3,9 C 90 % 1032,2 hPa 0,0 l/m 5,6 km/h (1 Bft) S-SW 208 0 min 0,000 mm 0,0 UV-I 0 W/m 4,2 C 5,7 C 8,0 km/h (2 Bft) 95,74 %
27.09.2018 05:06 5,7 C 15,0 C 3,9 C 90 % 1032,1 hPa 0,0 l/m 6,0 km/h (2 Bft) S-SW 199 0 min 0,000 mm 0,0 UV-I 0 W/m 4,2 C 5,7 C 8,0 km/h (2 Bft) 95,74 %
27.09.2018 05:08 5,7 C 15,0 C 3,9 C 90 % 1032,1 hPa 0,0 l/m 5,1 km/h (1 Bft) S-SW 213 0 min 0,000 mm 0,0 UV-I 0 W/m 4,2 C 5,7 C 8,0 km/h (2 Bft) 100,00 %
27.09.2018 05:10 5,7 C 15,0 C 3,9 C 90 % 1032,2 hPa 0,0 l/m 5,3 km/h (1 Bft) SW 215 0 min 0,000 mm 0,0 UV-I 0 W/m 4,2 C 5,7 C 6,4 km/h (2 Bft) 100,00 %
27.09.2018 05:12 5,6 C 15,0 C 3,3 C 89 % 1032,2 hPa 0,0 l/m 5,6 km/h (1 Bft) SW 223 0 min 0,000 mm 0,0 UV-I 0 W/m 3,9 C 5,6 C 6,4 km/h (2 Bft) 95,74 %
27.09.2018 05:14 5,5 C 15,0 C 3,3 C 89 % 1032,2 hPa 0,0 l/m 6,3 km/h (2 Bft) SW 219 0 min 0,000 mm 0,0 UV-I 0 W/m 3,8 C 5,5 C 8,0 km/h (2 Bft) 100,00 %
27.09.2018 05:16 5,4 C 15,0 C 3,3 C 89 % 1032,1 hPa 0,0 l/m 5,9 km/h (2 Bft) SW 221 0 min 0,000 mm 0,0 UV-I 0 W/m 3,7 C 5,4 C 6,4 km/h (2 Bft) 97,62 %
27.09.2018 05:18 5,2 C 15,0 C 3,3 C 90 % 1032,1 hPa 0,0 l/m 6,3 km/h (2 Bft) SW 216 0 min 0,000 mm 0,0 UV-I 0 W/m 3,7 C 5,2 C 8,0 km/h (2 Bft) 100,00 %
27.09.2018 05:20 5,1 C 15,0 C 3,3 C 90 % 1032,1 hPa 0,0 l/m 6,4 km/h (2 Bft) SW 215 0 min 0,000 mm 0,0 UV-I 0 W/m 3,6 C 5,1 C 8,0 km/h (2 Bft) 97,87 %
27.09.2018 05:22 5,1 C 15,0 C 2,8 C 90 % 1032,1 hPa 0,0 l/m 5,7 km/h (1 Bft) SW 223 0 min 0,000 mm 0,0 UV-I 0 W/m 3,6 C 5,1 C 8,0 km/h (2 Bft) 95,74 %
27.09.2018 05:24 5,2 C 15,0 C 2,8 C 91 % 1032,1 hPa 0,0 l/m 4,6 km/h (1 Bft) SW 226 0 min 0,000 mm 0,0 UV-I 0 W/m 3,9 C 5,2 C 6,4 km/h (2 Bft) 97,96 %
27.09.2018 05:26 5,2 C 15,0 C 2,8 C 90 % 1032,1 hPa 0,0 l/m 4,0 km/h (1 Bft) SW 226 0 min 0,000 mm 0,0 UV-I 0 W/m 3,7 C 5,2 C 4,8 km/h (1 Bft) 93,62 %
27.09.2018 05:28 5,2 C 15,0 C 2,8 C 90 % 1032,1 hPa 0,0 l/m 4,0 km/h (1 Bft) SW 226 0 min 0,000 mm 0,0 UV-I 0 W/m 3,7 C 5,2 C 4,8 km/h (1 Bft) 95,74 %
27.09.2018 05:30 5,2 C 15,0 C 2,2 C 90 % 1032,1 hPa 0,0 l/m 4,1 km/h (1 Bft) SW 226 0 min 0,000 mm 0,0 UV-I 0 W/m 3,7 C 5,2 C 4,8 km/h (1 Bft) 97,87 %
27.09.2018 05:32 5,1 C 15,0 C 2,2 C 90 % 1032,1 hPa 0,0 l/m 5,3 km/h (1 Bft) SW 225 0 min 0,000 mm 0,0 UV-I 0 W/m 3,6 C 5,1 C 6,4 km/h (2 Bft) 97,87 %
27.09.2018 05:34 5,1 C 15,0 C 2,2 C 90 % 1032,0 hPa 0,0 l/m 4,8 km/h (1 Bft) SW 225 0 min 0,000 mm 0,0 UV-I 0 W/m 3,6 C 5,1 C 6,4 km/h (2 Bft) 98,00 %
27.09.2018 05:36 5,1 C 15,0 C 2,2 C 90 % 1032,0 hPa 0,0 l/m 4,5 km/h (1 Bft) SW 225 0 min 0,000 mm 0,0 UV-I 0 W/m 3,6 C 5,1 C 6,4 km/h (2 Bft) 97,87 %
27.09.2018 05:38 5,1 C 15,0 C 2,2 C 90 % 1031,9 hPa 0,0 l/m 4,6 km/h (1 Bft) SW 225 0 min 0,000 mm 0,0 UV-I 0 W/m 3,6 C 5,1 C 6,4 km/h (2 Bft) 97,87 %
27.09.2018 05:40 5,0 C 15,0 C 2,8 C 90 % 1031,9 hPa 0,0 l/m 4,5 km/h (1 Bft) SW 225 0 min 0,000 mm 0,0 UV-I 0 W/m 3,5 C 5,0 C 4,8 km/h (1 Bft) 97,14 %
27.09.2018 05:42 4,8 C 15,0 C 2,8 C 89 % 1031,9 hPa 0,0 l/m 4,7 km/h (1 Bft) SW 219 0 min 0,000 mm 0,0 UV-I 0 W/m 3,1 C 4,8 C 4,8 km/h (1 Bft) 100,00 %
27.09.2018 05:44 4,7 C 15,0 C 2,8 C 89 % 1031,9 hPa 0,0 l/m 5,5 km/h (1 Bft) SW 217 0 min 0,000 mm 0,0 UV-I 0 W/m 3,0 C 4,7 C 6,4 km/h (2 Bft) 100,00 %
27.09.2018 05:46 4,7 C 15,0 C 2,8 C 90 % 1031,9 hPa 0,0 l/m 4,9 km/h (1 Bft) SW 215 0 min 0,000 mm 0,0 UV-I 0 W/m 3,2 C 4,7 C 9,7 km/h (2 Bft) 100,00 %
27.09.2018 05:48 4,7 C 15,0 C 2,8 C 90 % 1031,9 hPa 0,0 l/m 4,2 km/h (1 Bft) SW 227 0 min 0,000 mm 0,0 UV-I 0 W/m 3,2 C 4,7 C 6,4 km/h (2 Bft) 100,00 %
27.09.2018 05:50 4,7 C 15,0 C 2,2 C 90 % 1031,9 hPa 0,0 l/m 4,0 km/h (1 Bft) SW 225 0 min 0,000 mm 0,0 UV-I 0 W/m 3,2 C 4,7 C 4,8 km/h (1 Bft) 97,92 %
27.09.2018 05:52 4,9 C 15,0 C 2,8 C 91 % 1032,0 hPa 0,0 l/m 4,2 km/h (1 Bft) SW 225 0 min 0,000 mm 0,0 UV-I 0 W/m 3,6 C 4,9 C 6,4 km/h (2 Bft) 100,00 %
27.09.2018 05:54 5,1 C 15,0 C 2,8 C 90 % 1032,0 hPa 0,0 l/m 4,4 km/h (1 Bft) SW 224 0 min 0,000 mm 0,0 UV-I 0 W/m 3,6 C 5,1 C 6,4 km/h (2 Bft) 100,00 %
27.09.2018 05:56 5,1 C 15,0 C 2,8 C 90 % 1031,9 hPa 0,0 l/m 4,3 km/h (1 Bft) SW 224 0 min 0,000 mm 0,0 UV-I 0 W/m 3,6 C 5,1 C 6,4 km/h (2 Bft) 100,00 %
27.09.2018 05:58 5,2 C 15,0 C 2,8 C 90 % 1031,9 hPa 0,0 l/m 4,3 km/h (1 Bft) SW 224 0 min 0,000 mm 0,0 UV-I 0 W/m 3,7 C 5,2 C 6,4 km/h (2 Bft) 100,00 %
27.09.2018 06:00 5,2 C 15,0 C 2,2 C 89 % 1031,9 hPa 0,0 l/m 5,0 km/h (1 Bft) SW 224 0 min 0,000 mm 0,0 UV-I 0 W/m 3,5 C 5,2 C 6,4 km/h (2 Bft) 100,00 %
27.09.2018 06:02 5,1 C 15,0 C 2,2 C 89 % 1031,9 hPa 0,0 l/m 5,3 km/h (1 Bft) SW 224 0 min 0,000 mm 0,0 UV-I 0 W/m 3,4 C 5,1 C 6,4 km/h (2 Bft) 100,00 %
27.09.2018 06:04 5,2 C 15,0 C 2,8 C 90 % 1031,9 hPa 0,0 l/m 5,7 km/h (1 Bft) S-SW 212 0 min 0,000 mm 0,0 UV-I 0 W/m 3,7 C 5,2 C 8,0 km/h (2 Bft) 100,00 %
27.09.2018 06:06 5,2 C 15,0 C 2,8 C 90 % 1031,9 hPa 0,0 l/m 5,5 km/h (1 Bft) SW 217 0 min 0,000 mm 0,0 UV-I 0 W/m 3,7 C 5,2 C 8,0 km/h (2 Bft) 100,00 %
27.09.2018 06:08 5,3 C 15,0 C 2,8 C 89 % 1031,8 hPa 0,0 l/m 5,3 km/h (1 Bft) SW 227 0 min 0,000 mm 0,0 UV-I 0 W/m 3,6 C 5,3 C 6,4 km/h (2 Bft) 97,87 %
27.09.2018 06:10 5,4 C 15,0 C 2,8 C 89 % 1031,9 hPa 0,0 l/m 4,2 km/h (1 Bft) SW 229 0 min 0,000 mm 0,0 UV-I 0 W/m 3,7 C 5,4 C 4,8 km/h (1 Bft) 100,00 %
27.09.2018 06:12 5,4 C 15,0 C 2,8 C 89 % 1031,9 hPa 0,0 l/m 1,8 km/h (1 Bft) SW 229 0 min 0,000 mm 0,0 UV-I 0 W/m 3,7 C 5,4 C 3,2 km/h (1 Bft) 100,00 %
27.09.2018 06:14 5,4 C 15,0 C 2,2 C 89 % 1032,0 hPa 0,0 l/m 2,5 km/h (1 Bft) SW 229 0 min 0,000 mm 0,0 UV-I 0 W/m 3,7 C 5,4 C 3,2 km/h (1 Bft) 100,00 %
27.09.2018 06:16 5,3 C 15,0 C 2,2 C 89 % 1032,0 hPa 0,0 l/m 2,8 km/h (1 Bft) SW 229 0 min 0,000 mm 0,0 UV-I 0 W/m 3,6 C 5,3 C 3,2 km/h (1 Bft) 97,87 %
27.09.2018 06:18 5,1 C 15,0 C 2,2 C 88 % 1032,0 hPa 0,0 l/m 1,9 km/h (1 Bft) SW 229 0 min 0,000 mm 0,0 UV-I 0 W/m 3,3 C 5,1 C 3,2 km/h (1 Bft) 97,87 %
27.09.2018 06:20 4,7 C 15,0 C 1,7 C 89 % 1032,0 hPa 0,0 l/m 0,8 km/h (0 Bft) SW 229 0 min 0,000 mm 0,0 UV-I 0 W/m 3,0 C 4,7 C 1,6 km/h (1 Bft) 100,00 %
27.09.2018 06:22 4,6 C 15,0 C 1,7 C 90 % 1032,0 hPa 0,0 l/m 1,3 km/h (1 Bft) SW 229 0 min 0,000 mm 0,0 UV-I 0 W/m 3,1 C 4,6 C 3,2 km/h (1 Bft) 100,00 %
27.09.2018 06:24 4,6 C 15,0 C 1,1 C 90 % 1032,0 hPa 0,0 l/m 0,5 km/h (0 Bft) SW 229 0 min 0,000 mm 0,0 UV-I 0 W/m 3,1 C 4,6 C 1,6 km/h (1 Bft) 95,83 %
27.09.2018 06:26 4,4 C 15,0 C 1,7 C 90 % 1032,1 hPa 0,0 l/m 1,0 km/h (0 Bft) SW 229 0 min 0,000 mm 0,0 UV-I 0 W/m 2,9 C 4,4 C 3,2 km/h (1 Bft) 100,00 %
27.09.2018 06:28 4,2 C 15,0 C 1,7 C 90 % 1032,0 hPa 0,0 l/m 2,0 km/h (1 Bft) SW 229 0 min 0,000 mm 0,0 UV-I 0 W/m 2,7 C 4,2 C 3,2 km/h (1 Bft) 98,00 %
27.09.2018 06:30 4,0 C 15,0 C 1,7 C 90 % 1032,0 hPa 0,0 l/m 1,9 km/h (1 Bft) SW 229 0 min 0,000 mm 0,0 UV-I 0 W/m 2,5 C 4,0 C 3,2 km/h (1 Bft) 97,87 %
27.09.2018 06:32 3,9 C 15,0 C 1,7 C 91 % 1032,0 hPa 0,0 l/m 2,0 km/h (1 Bft) SW 229 0 min 0,000 mm 0,0 UV-I 0 W/m 2,6 C 3,9 C 3,2 km/h (1 Bft) 98,00 %
27.09.2018 06:34 3,9 C 15,0 C 1,1 C 92 % 1032,0 hPa 0,0 l/m 1,7 km/h (1 Bft) SW 229 0 min 0,000 mm 0,0 UV-I 0 W/m 2,7 C 3,9 C 3,2 km/h (1 Bft) 97,87 %
27.09.2018 06:36 4,1 C 15,0 C 1,1 C 92 % 1032,1 hPa 0,0 l/m 1,3 km/h (1 Bft) SW 229 0 min 0,000 mm 0,0 UV-I 0 W/m 2,9 C 4,1 C 1,6 km/h (1 Bft) 94,00 %
27.09.2018 06:38 4,2 C 15,0 C 1,1 C 92 % 1032,1 hPa 0,0 l/m 0,3 km/h (0 Bft) SW 229 0 min 0,000 mm 0,0 UV-I 0 W/m 3,0 C 4,2 C 1,6 km/h (1 Bft) 97,14 %
27.09.2018 06:40 4,3 C 15,0 C 1,1 C 92 % 1032,2 hPa 0,0 l/m 0,0 km/h (0 Bft) SW 229 0 min 0,000 mm 0,0 UV-I 0 W/m 3,1 C 4,3 C 0,0 km/h (0 Bft) 92,00 %
27.09.2018 06:42 4,3 C 15,0 C 1,1 C 91 % 1032,2 hPa 0,0 l/m 1,5 km/h (1 Bft) SW 229 0 min 0,000 mm 0,0 UV-I 0 W/m 3,0 C 4,3 C 3,2 km/h (1 Bft) 91,49 %
27.09.2018 06:44 4,2 C 15,0 C 1,1 C 91 % 1032,2 hPa 0,0 l/m 3,4 km/h (1 Bft) SW 227 0 min 0,000 mm 0,0 UV-I 1 W/m 2,9 C 4,2 C 4,8 km/h (1 Bft) 93,62 %
27.09.2018 06:46 4,0 C 15,0 C 1,7 C 91 % 1032,2 hPa 0,0 l/m 4,5 km/h (1 Bft) O-NO 61 0 min 0,000 mm 0,0 UV-I 5 W/m 2,7 C 4,0 C 6,4 km/h (2 Bft) 94,00 %
27.09.2018 06:48 4,0 C 15,0 C 1,7 C 92 % 1032,2 hPa 0,0 l/m 4,9 km/h (1 Bft) O-NO 64 0 min 0,000 mm 0,0 UV-I 5 W/m 2,8 C 4,0 C 6,4 km/h (2 Bft) 95,74 %
27.09.2018 06:50 4,1 C 15,0 C 2,2 C 92 % 1032,2 hPa 0,0 l/m 4,9 km/h (1 Bft) O-NO 64 0 min 0,000 mm 0,0 UV-I 5 W/m 2,9 C 4,1 C 6,4 km/h (2 Bft) 95,74 %
27.09.2018 06:52 4,2 C 15,0 C 2,2 C 93 % 1032,2 hPa 0,0 l/m 5,1 km/h (1 Bft) O-NO 63 0 min 0,000 mm 0,0 UV-I 7 W/m 3,2 C 4,2 C 6,4 km/h (2 Bft) 91,49 %
27.09.2018 06:54 4,2 C 15,0 C 2,8 C 93 % 1032,2 hPa 0,0 l/m 3,7 km/h (1 Bft) O-NO 63 0 min 0,000 mm 0,0 UV-I 7 W/m 3,2 C 4,2 C 6,4 km/h (2 Bft) 93,62 %
27.09.2018 06:56 4,2 C 15,0 C 2,8 C 93 % 1032,2 hPa 0,0 l/m 2,5 km/h (1 Bft) O-NO 63 0 min 0,000 mm 0,0 UV-I 7 W/m 3,2 C 4,2 C 3,2 km/h (1 Bft) 97,87 %
27.09.2018 06:58 4,1 C 15,0 C 2,8 C 93 % 1032,3 hPa 0,0 l/m 1,4 km/h (1 Bft) O-NO 63 0 min 0,000 mm 0,0 UV-I 9 W/m 3,1 C 4,1 C 3,2 km/h (1 Bft) 95,74 %
27.09.2018 07:00 4,1 C 15,0 C 2,2 C 93 % 1032,3 hPa 0,0 l/m 1,4 km/h (1 Bft) O-NO 63 0 min 0,000 mm 0,0 UV-I 9 W/m 3,1 C 4,1 C 3,2 km/h (1 Bft) 96,00 %
27.09.2018 07:02 4,1 C 15,0 C 2,2 C 93 % 1032,3 hPa 0,0 l/m 2,1 km/h (1 Bft) O-NO 63 0 min 0,000 mm 0,0 UV-I 11 W/m 3,1 C 4,1 C 3,2 km/h (1 Bft) 97,56 %
27.09.2018 07:04 4,0 C 15,0 C 1,7 C 93 % 1032,3 hPa 0,0 l/m 2,2 km/h (1 Bft) O-NO 63 0 min 0,000 mm 0,0 UV-I 13 W/m 3,0 C 4,0 C 3,2 km/h (1 Bft) 94,00 %
27.09.2018 07:06 4,0 C 15,0 C 1,7 C 94 % 1032,3 hPa 0,0 l/m 2,2 km/h (1 Bft) O-NO 63 0 min 0,000 mm 0,0 UV-I 17 W/m 3,1 C 4,0 C 3,2 km/h (1 Bft) 97,92 %
27.09.2018 07:08 3,9 C 15,0 C 1,7 C 94 % 1032,3 hPa 0,0 l/m 3,1 km/h (1 Bft) O-NO 63 2 min 0,000 mm 0,0 UV-I 20 W/m 3,0 C 3,9 C 4,8 km/h (1 Bft) 97,87 %
27.09.2018 07:10 3,9 C 15,0 C 1,7 C 94 % 1032,3 hPa 0,0 l/m 3,3 km/h (1 Bft) O-NO 63 2 min 0,000 mm 0,0 UV-I 23 W/m 3,0 C 3,9 C 4,8 km/h (1 Bft) 95,74 %
27.09.2018 07:12 3,9 C 15,0 C 2,2 C 94 % 1032,4 hPa 0,0 l/m 2,4 km/h (1 Bft) O-NO 63 2 min 0,000 mm 0,0 UV-I 26 W/m 3,0 C 3,9 C 4,8 km/h (1 Bft) 97,87 %
27.09.2018 07:14 4,0 C 15,0 C 2,2 C 94 % 1032,3 hPa 0,0 l/m 0,9 km/h (0 Bft) O-NO 63 2 min 0,000 mm 0,0 UV-I 30 W/m 3,1 C 4,0 C 1,6 km/h (1 Bft) 95,74 %
27.09.2018 07:16 3,9 C 15,0 C 2,8 C 94 % 1032,2 hPa 0,0 l/m 1,7 km/h (1 Bft) O-NO 63 2 min 0,000 mm 0,0 UV-I 33 W/m 3,0 C 3,9 C 3,2 km/h (1 Bft) 95,74 %
27.09.2018 07:18 3,8 C 15,0 C 2,2 C 94 % 1032,2 hPa 0,0 l/m 2,0 km/h (1 Bft) O-NO 63 2 min 0,000 mm 0,0 UV-I 38 W/m 2,9 C 3,8 C 3,2 km/h (1 Bft) 93,62 %
27.09.2018 07:20 3,4 C 15,0 C 2,2 C 93 % 1032,2 hPa 0,0 l/m 1,6 km/h (1 Bft) O-NO 63 2 min 0,000 mm 0,0 UV-I 42 W/m 2,4 C 3,4 C 3,2 km/h (1 Bft) 94,29 %
27.09.2018 07:22 3,2 C 15,0 C 2,2 C 93 % 1032,1 hPa 0,0 l/m 2,7 km/h (1 Bft) O-NO 63 2 min 0,000 mm 0,0 UV-I 45 W/m 2,2 C 3,2 C 3,2 km/h (1 Bft) 98,11 %
27.09.2018 07:24 3,1 C 15,0 C 2,2 C 93 % 1032,2 hPa 0,0 l/m 2,4 km/h (1 Bft) O-NO 63 2 min 0,000 mm 0,0 UV-I 50 W/m 2,1 C 3,1 C 3,2 km/h (1 Bft) 97,87 %
27.09.2018 07:26 3,3 C 15,0 C 2,2 C 94 % 1032,2 hPa 0,0 l/m 2,7 km/h (1 Bft) S-SO 147 2 min 0,000 mm 0,0 UV-I 54 W/m 2,4 C 3,3 C 4,8 km/h (1 Bft) 93,62 %
27.09.2018 07:28 3,5 C 15,0 C 2,8 C 94 % 1032,2 hPa 0,0 l/m 3,5 km/h (1 Bft) S-SO 149 2 min 0,000 mm 0,0 UV-I 60 W/m 2,6 C 3,5 C 4,8 km/h (1 Bft) 95,74 %
27.09.2018 07:30 3,6 C 15,0 C 2,8 C 95 % 1032,2 hPa 0,0 l/m 3,5 km/h (1 Bft) S-SO 151 2 min 0,000 mm 0,0 UV-I 65 W/m 2,9 C 3,6 C 4,8 km/h (1 Bft) 96,00 %
27.09.2018 07:32 3,6 C 15,0 C 2,8 C 94 % 1032,2 hPa 0,0 l/m 3,0 km/h (1 Bft) S-SO 152 2 min 0,000 mm 0,0 UV-I 70 W/m 2,7 C 3,6 C 4,8 km/h (1 Bft) 97,87 %
27.09.2018 07:34 3,4 C 15,0 C 2,8 C 94 % 1032,2 hPa 0,0 l/m 4,7 km/h (1 Bft) S-SO 167 2 min 0,000 mm 0,0 UV-I 75 W/m 2,5 C 3,4 C 6,4 km/h (2 Bft) 97,87 %
27.09.2018 07:36 3,6 C 15,0 C 2,8 C 94 % 1032,1 hPa 0,0 l/m 4,8 km/h (1 Bft) S-SO 166 2 min 0,000 mm 0,0 UV-I 78 W/m 2,7 C 3,6 C 6,4 km/h (2 Bft) 93,62 %
27.09.2018 07:38 3,9 C 15,0 C 3,3 C 95 % 1032,2 hPa 0,0 l/m 3,3 km/h (1 Bft) S 169 2 min 0,000 mm 0,0 UV-I 83 W/m 3,2 C 3,9 C 6,4 km/h (2 Bft) 97,87 %
27.09.2018 07:40 4,2 C 15,0 C 3,3 C 95 % 1032,2 hPa 0,0 l/m 4,7 km/h (1 Bft) S 190 2 min 0,000 mm 0,0 UV-I 87 W/m 3,5 C 4,2 C 8,0 km/h (2 Bft) 95,74 %
27.09.2018 07:42 4,4 C 15,0 C 3,3 C 95 % 1032,2 hPa 0,0 l/m 5,1 km/h (1 Bft) S-SO 163 2 min 0,000 mm 0,0 UV-I 91 W/m 3,7 C 4,4 C 8,0 km/h (2 Bft) 95,74 %
27.09.2018 07:44 4,5 C 15,0 C 3,9 C 94 % 1032,2 hPa 0,0 l/m 6,2 km/h (2 Bft) S-SO 167 2 min 0,000 mm 0,0 UV-I 95 W/m 3,6 C 4,5 C 9,7 km/h (2 Bft) 97,87 %
27.09.2018 07:46 4,7 C 15,0 C 3,9 C 94 % 1032,2 hPa 0,0 l/m 3,4 km/h (1 Bft) S-SO 160 2 min 0,000 mm 0,0 UV-I 99 W/m 3,8 C 4,7 C 6,4 km/h (2 Bft) 97,44 %
27.09.2018 07:48 4,8 C 15,0 C 3,9 C 94 % 1032,2 hPa 0,0 l/m 3,5 km/h (1 Bft) S-SO 160 2 min 0,000 mm 0,0 UV-I 103 W/m 3,9 C 4,8 C 6,4 km/h (2 Bft) 97,87 %
27.09.2018 07:50 4,8 C 15,0 C 3,9 C 94 % 1032,2 hPa 0,0 l/m 1,4 km/h (1 Bft) S-SO 160 2 min 0,000 mm 0,0 UV-I 107 W/m 3,9 C 4,8 C 3,2 km/h (1 Bft) 96,00 %
27.09.2018 07:52 4,9 C 15,0 C 3,9 C 94 % 1032,2 hPa 0,0 l/m 2,2 km/h (1 Bft) S-SO 160 2 min 0,000 mm 0,0 UV-I 112 W/m 4,0 C 4,9 C 3,2 km/h (1 Bft) 91,49 %
27.09.2018 07:54 5,0 C 15,0 C 3,9 C 93 % 1032,2 hPa 0,0 l/m 1,9 km/h (1 Bft) S 170 2 min 0,000 mm 0,0 UV-I 116 W/m 4,0 C 5,0 C 3,2 km/h (1 Bft) 95,74 %
27.09.2018 07:56 5,2 C 15,0 C 3,9 C 93 % 1032,2 hPa 0,0 l/m 1,6 km/h (1 Bft) S 170 2 min 0,000 mm 0,0 UV-I 120 W/m 4,2 C 5,2 C 3,2 km/h (1 Bft) 93,62 %
27.09.2018 07:58 5,2 C 15,0 C 3,9 C 93 % 1032,2 hPa 0,0 l/m 1,6 km/h (1 Bft) S 170 2 min 0,000 mm 0,0 UV-I 123 W/m 4,2 C 5,2 C 1,6 km/h (1 Bft) 94,00 %
27.09.2018 08:00 5,2 C 15,0 C 3,9 C 92 % 1032,2 hPa 0,0 l/m 1,8 km/h (1 Bft) S 170 2 min 0,025 mm 0,0 UV-I 130 W/m 4,0 C 5,2 C 3,2 km/h (1 Bft) 95,74 %
27.09.2018 08:02 5,2 C 15,0 C 4,4 C 92 % 1032,2 hPa 0,0 l/m 2,1 km/h (1 Bft) S 170 2 min 0,000 mm 0,0 UV-I 134 W/m 4,0 C 5,2 C 3,2 km/h (1 Bft) 91,49 %
27.09.2018 08:05 5,2 C 15,0 C 4,4 C 92 % 1032,2 hPa 0,0 l/m 2,2 km/h (1 Bft) S 170 3 min 0,000 mm 0,0 UV-I 141 W/m 4,0 C 5,2 C 3,2 km/h (1 Bft) 98,57 %
27.09.2018 08:06 5,2 C 15,0 C 4,4 C 91 % 1032,2 hPa 0,0 l/m 2,1 km/h (1 Bft) S 170 1 min 0,000 mm 0,0 UV-I 145 W/m 3,9 C 5,2 C 3,2 km/h (1 Bft) 95,83 %
27.09.2018 08:08 5,3 C 15,0 C 4,4 C 91 % 1032,1 hPa 0,0 l/m 1,6 km/h (1 Bft) S 170 2 min 0,000 mm 0,0 UV-I 149 W/m 4,0 C 5,3 C 3,2 km/h (1 Bft) 100,00 %
27.09.2018 08:11 5,6 C 15,0 C 4,4 C 91 % 1032,1 hPa 0,0 l/m 2,8 km/h (1 Bft) S-SW 210 3 min 0,000 mm 0,0 UV-I 155 W/m 4,2 C 5,6 C 4,8 km/h (1 Bft) 98,65 %
27.09.2018 08:12 5,7 C 15,0 C 4,4 C 91 % 1032,1 hPa 0,0 l/m 3,9 km/h (1 Bft) SW 216 1 min 0,000 mm 0,0 UV-I 161 W/m 4,3 C 5,7 C 4,8 km/h (1 Bft) 100,00 %
27.09.2018 08:16 6,0 C 15,0 C 5,0 C 90 % 1032,1 hPa 0,0 l/m 2,7 km/h (1 Bft) SW 217 4 min 0,000 mm 0,0 UV-I 167 W/m 4,5 C 6,0 C 4,8 km/h (1 Bft) 100,00 %
27.09.2018 08:18 6,1 C 15,0 C 5,0 C 89 % 1032,1 hPa 0,0 l/m 4,0 km/h (1 Bft) SW 219 2 min 0,000 mm 0,0 UV-I 175 W/m 4,4 C 6,1 C 4,8 km/h (1 Bft) 100,00 %
27.09.2018 08:20 6,2 C 15,0 C 5,0 C 88 % 1032,1 hPa 0,0 l/m 4,7 km/h (1 Bft) W-SW 237 2 min 0,000 mm 0,0 UV-I 180 W/m 4,4 C 6,2 C 6,4 km/h (2 Bft) 100,00 %
27.09.2018 08:22 6,2 C 15,0 C 5,0 C 88 % 1032,1 hPa 0,0 l/m 5,7 km/h (1 Bft) W-SW 243 2 min 0,000 mm 0,0 UV-I 185 W/m 4,4 C 6,2 C 6,4 km/h (2 Bft) 100,00 %
27.09.2018 08:24 6,3 C 15,0 C 5,6 C 87 % 1032,1 hPa 0,0 l/m 5,0 km/h (1 Bft) W-SW 242 2 min 0,000 mm 0,0 UV-I 191 W/m 4,3 C 6,3 C 6,4 km/h (2 Bft) 97,96 %
27.09.2018 08:26 6,4 C 15,0 C 5,6 C 86 % 1032,1 hPa 0,0 l/m 4,7 km/h (1 Bft) W-SW 237 2 min 0,000 mm 0,0 UV-I 195 W/m 4,2 C 6,4 C 6,4 km/h (2 Bft) 100,00 %
27.09.2018 08:29 6,7 C 15,0 C 5,6 C 86 % 1032,1 hPa 0,0 l/m 3,4 km/h (1 Bft) W-SW 238 3 min 0,000 mm 0,0 UV-I 202 W/m 4,5 C 6,7 C 6,4 km/h (2 Bft) 98,65 %
27.09.2018 08:30 6,7 C 15,0 C 5,6 C 85 % 1032,1 hPa 0,0 l/m 2,2 km/h (1 Bft) W-SW 238 1 min 0,000 mm 0,0 UV-I 207 W/m 4,4 C 6,7 C 3,2 km/h (1 Bft) 100,00 %
27.09.2018 08:32 6,9 C 15,0 C 6,1 C 85 % 1032,2 hPa 0,0 l/m 1,8 km/h (1 Bft) W-SW 238 2 min 0,000 mm 0,0 UV-I 209 W/m 4,6 C 6,9 C 3,2 km/h (1 Bft) 97,87 %
27.09.2018 08:34 7,2 C 15,0 C 6,1 C 85 % 1032,2 hPa 0,0 l/m 2,0 km/h (1 Bft) W-SW 238 2 min 0,000 mm 0,0 UV-I 215 W/m 4,9 C 7,2 C 3,2 km/h (1 Bft) 100,00 %
27.09.2018 08:36 7,4 C 15,0 C 6,1 C 85 % 1032,2 hPa 0,0 l/m 2,1 km/h (1 Bft) W-SW 238 2 min 0,000 mm 0,0 UV-I 220 W/m 5,0 C 7,4 C 3,2 km/h (1 Bft) 100,00 %
27.09.2018 08:38 7,6 C 15,0 C 6,1 C 83 % 1032,2 hPa 0,0 l/m 1,6 km/h (1 Bft) W-SW 238 2 min 0,000 mm 0,2 UV-I 225 W/m 4,9 C 7,6 C 3,2 km/h (1 Bft) 98,00 %
27.09.2018 08:40 7,8 C 15,0 C 6,1 C 83 % 1032,1 hPa 0,0 l/m 1,4 km/h (1 Bft) W-SW 238 2 min 0,000 mm 0,5 UV-I 230 W/m 5,1 C 7,8 C 3,2 km/h (1 Bft) 97,87 %
27.09.2018 08:42 7,9 C 15,0 C 6,7 C 81 % 1032,1 hPa 0,0 l/m 2,6 km/h (1 Bft) W-SW 238 2 min 0,000 mm 0,5 UV-I 236 W/m 4,8 C 7,9 C 4,8 km/h (1 Bft) 100,00 %
27.09.2018 08:44 7,9 C 15,0 C 6,7 C 82 % 1032,0 hPa 0,0 l/m 2,2 km/h (1 Bft) W-SW 238 2 min 0,000 mm 0,5 UV-I 240 W/m 5,0 C 7,9 C 3,2 km/h (1 Bft) 95,74 %
27.09.2018 08:46 8,1 C 15,0 C 6,7 C 82 % 1032,0 hPa 0,0 l/m 1,5 km/h (1 Bft) W-SW 238 2 min 0,000 mm 0,5 UV-I 246 W/m 5,2 C 8,1 C 3,2 km/h (1 Bft) 100,00 %
27.09.2018 08:48 8,1 C 15,0 C 6,7 C 81 % 1032,1 hPa 0,0 l/m 2,1 km/h (1 Bft) W-SW 238 2 min 0,000 mm 0,5 UV-I 251 W/m 5,0 C 8,1 C 4,8 km/h (1 Bft) 98,00 %
27.09.2018 08:50 8,3 C 15,0 C 7,2 C 82 % 1032,1 hPa 0,0 l/m 4,0 km/h (1 Bft) W-SW 238 2 min 0,000 mm 0,6 UV-I 256 W/m 5,4 C 8,3 C 6,4 km/h (2 Bft) 100,00 %
27.09.2018 08:52 8,4 C 15,0 C 7,2 C 81 % 1032,0 hPa 0,0 l/m 4,8 km/h (1 Bft) W-SW 238 2 min 0,000 mm 0,6 UV-I 263 W/m 5,3 C 8,4 C 6,4 km/h (2 Bft) 97,37 %
27.09.2018 08:54 8,4 C 15,0 C 7,2 C 81 % 1032,1 hPa 0,0 l/m 4,2 km/h (1 Bft) W-SW 238 2 min 0,000 mm 0,6 UV-I 267 W/m 5,3 C 8,4 C 4,8 km/h (1 Bft) 97,87 %
27.09.2018 08:56 8,6 C 15,0 C 7,2 C 81 % 1032,0 hPa 0,0 l/m 4,7 km/h (1 Bft) S-SW 204 2 min 0,000 mm 0,6 UV-I 272 W/m 5,5 C 8,6 C 6,4 km/h (2 Bft) 93,62 %
27.09.2018 08:59 8,7 C 15,0 C 7,8 C 80 % 1032,0 hPa 0,0 l/m 6,0 km/h (2 Bft) S-SW 213 3 min 0,000 mm 0,6 UV-I 278 W/m 5,4 C 8,7 C 8,0 km/h (2 Bft) 94,59 %
27.09.2018 09:00 8,7 C 15,0 C 7,8 C 81 % 1032,0 hPa 0,0 l/m 3,6 km/h (1 Bft) S-SW 213 1 min 0,102 mm 0,7 UV-I 284 W/m 5,6 C 8,7 C 6,4 km/h (2 Bft) 87,50 %
27.09.2018 09:02 8,7 C 15,0 C 7,8 C 80 % 1032,0 hPa 0,0 l/m 3,7 km/h (1 Bft) S-SW 205 2 min 0,000 mm 0,7 UV-I 287 W/m 5,4 C 8,7 C 6,4 km/h (2 Bft) 93,62 %
27.09.2018 09:04 8,7 C 15,0 C 7,8 C 81 % 1032,0 hPa 0,0 l/m 3,3 km/h (1 Bft) S-SW 208 2 min 0,000 mm 0,7 UV-I 292 W/m 5,6 C 8,7 C 6,4 km/h (2 Bft) 95,74 %
27.09.2018 09:06 8,9 C 15,0 C 7,8 C 81 % 1032,0 hPa 0,0 l/m 2,9 km/h (1 Bft) SW 232 2 min 0,000 mm 0,7 UV-I 297 W/m 5,8 C 8,9 C 4,8 km/h (1 Bft) 93,62 %
27.09.2018 09:08 9,0 C 15,0 C 7,8 C 81 % 1032,1 hPa 0,0 l/m 4,9 km/h (1 Bft) W-SW 254 2 min 0,000 mm 0,8 UV-I 301 W/m 5,9 C 9,0 C 6,4 km/h (2 Bft) 95,74 %
27.09.2018 09:10 9,1 C 15,0 C 7,8 C 80 % 1032,1 hPa 0,0 l/m 4,1 km/h (1 Bft) SW 234 2 min 0,000 mm 0,8 UV-I 306 W/m 5,8 C 9,1 C 6,4 km/h (2 Bft) 95,74 %
27.09.2018 09:12 9,2 C 15,0 C 8,3 C 80 % 1032,1 hPa 0,0 l/m 3,7 km/h (1 Bft) W-SW 252 2 min 0,000 mm 0,8 UV-I 311 W/m 5,9 C 9,2 C 6,4 km/h (2 Bft) 93,62 %
27.09.2018 09:14 9,3 C 15,0 C 8,3 C 79 % 1032,2 hPa 0,0 l/m 3,0 km/h (1 Bft) W-SW 252 2 min 0,000 mm 0,8 UV-I 316 W/m 5,8 C 9,3 C 4,8 km/h (1 Bft) 95,74 %
27.09.2018 09:16 9,4 C 15,0 C 8,3 C 79 % 1032,1 hPa 0,0 l/m 1,8 km/h (1 Bft) W-SW 252 2 min 0,000 mm 0,9 UV-I 320 W/m 5,9 C 9,4 C 4,8 km/h (1 Bft) 96,00 %
27.09.2018 09:18 9,6 C 15,0 C 8,3 C 79 % 1032,1 hPa 0,0 l/m 1,3 km/h (1 Bft) W-SW 252 2 min 0,000 mm 0,9 UV-I 325 W/m 6,1 C 9,6 C 3,2 km/h (1 Bft) 97,14 %
27.09.2018 09:20 9,7 C 15,0 C 8,3 C 79 % 1032,1 hPa 0,0 l/m 2,0 km/h (1 Bft) W-SW 252 2 min 0,000 mm 0,9 UV-I 331 W/m 6,2 C 9,7 C 3,2 km/h (1 Bft) 98,00 %
27.09.2018 09:22 9,8 C 15,0 C 8,9 C 79 % 1032,0 hPa 0,0 l/m 1,5 km/h (1 Bft) W-SW 252 2 min 0,000 mm 0,9 UV-I 336 W/m 6,3 C 9,8 C 3,2 km/h (1 Bft) 97,87 %
27.09.2018 09:24 9,9 C 15,0 C 8,9 C 79 % 1032,0 hPa 0,0 l/m 1,7 km/h (1 Bft) W-SW 252 2 min 0,000 mm 1,0 UV-I 340 W/m 6,4 C 9,9 C 3,2 km/h (1 Bft) 100,00 %
27.09.2018 09:26 9,9 C 15,0 C 8,9 C 78 % 1032,0 hPa 0,0 l/m 1,8 km/h (1 Bft) W-SW 252 2 min 0,000 mm 1,0 UV-I 345 W/m 6,2 C 9,9 C 4,8 km/h (1 Bft) 96,00 %
27.09.2018 09:28 10,1 C 15,0 C 9,4 C 79 % 1031,9 hPa 0,0 l/m 3,0 km/h (1 Bft) W-SW 252 2 min 0,000 mm 1,0 UV-I 350 W/m 6,6 C 10,1 C 4,8 km/h (1 Bft) 100,00 %
27.09.2018 09:30 10,3 C 15,0 C 9,4 C 79 % 1031,9 hPa 0,0 l/m 4,2 km/h (1 Bft) W-SW 252 2 min 0,000 mm 1,0 UV-I 355 W/m 6,8 C 10,3 C 4,8 km/h (1 Bft) 100,00 %
27.09.2018 09:32 10,4 C 15,0 C 9,4 C 78 % 1031,9 hPa 0,0 l/m 5,4 km/h (1 Bft) SW 232 2 min 0,000 mm 1,1 UV-I 360 W/m 6,7 C 10,4 C 8,0 km/h (2 Bft) 100,00 %
27.09.2018 09:34 10,5 C 15,0 C 9,4 C 77 % 1031,9 hPa 0,0 l/m 3,9 km/h (1 Bft) S-SW 197 2 min 0,000 mm 1,1 UV-I 365 W/m 6,6 C 10,5 C 6,4 km/h (2 Bft) 100,00 %
27.09.2018 09:36 10,7 C 15,0 C 9,4 C 77 % 1031,9 hPa 0,0 l/m 3,5 km/h (1 Bft) SW 235 2 min 0,000 mm 1,1 UV-I 369 W/m 6,8 C 10,7 C 4,8 km/h (1 Bft) 100,00 %
27.09.2018 09:38 10,8 C 15,0 C 10,0 C 76 % 1031,9 hPa 0,0 l/m 3,9 km/h (1 Bft) SW 225 2 min 0,000 mm 1,1 UV-I 374 W/m 6,7 C 10,8 C 6,4 km/h (2 Bft) 100,00 %
27.09.2018 09:40 10,9 C 15,0 C 10,0 C 76 % 1031,9 hPa 0,0 l/m 5,5 km/h (1 Bft) SW 234 2 min 0,000 mm 1,2 UV-I 379 W/m 6,8 C 10,9 C 8,0 km/h (2 Bft) 100,00 %
27.09.2018 09:42 11,1 C 15,0 C 10,0 C 76 % 1032,0 hPa 0,0 l/m 5,2 km/h (1 Bft) S-SW 209 2 min 0,000 mm 1,2 UV-I 384 W/m 7,0 C 11,1 C 8,0 km/h (2 Bft) 100,00 %
27.09.2018 09:44 11,3 C 15,0 C 10,6 C 75 % 1032,0 hPa 0,0 l/m 4,7 km/h (1 Bft) SW 225 2 min 0,000 mm 1,2 UV-I 389 W/m 7,0 C 11,3 C 6,4 km/h (2 Bft) 100,00 %
27.09.2018 09:46 11,4 C 15,0 C 10,6 C 75 % 1032,0 hPa 0,0 l/m 2,2 km/h (1 Bft) SW 225 2 min 0,000 mm 1,3 UV-I 393 W/m 7,1 C 11,4 C 4,8 km/h (1 Bft) 100,00 %
27.09.2018 09:48 11,4 C 15,0 C 10,6 C 73 % 1032,0 hPa 0,0 l/m 1,5 km/h (1 Bft) N-NW 332 2 min 0,000 mm 1,3 UV-I 396 W/m 6,7 C 11,4 C 4,8 km/h (1 Bft) 100,00 %
27.09.2018 09:50 11,6 C 15,0 C 10,6 C 75 % 1032,1 hPa 0,0 l/m 5,3 km/h (1 Bft) N-NO 27 2 min 0,000 mm 1,3 UV-I 400 W/m 7,3 C 11,6 C 8,0 km/h (2 Bft) 100,00 %
27.09.2018 09:52 11,8 C 15,0 C 11,7 C 76 % 1032,1 hPa 0,0 l/m 6,1 km/h (2 Bft) N-NO 27 2 min 0,000 mm 1,3 UV-I 404 W/m 7,7 C 11,8 C 8,0 km/h (2 Bft) 97,87 %
27.09.2018 09:54 11,8 C 15,0 C 12,2 C 78 % 1032,0 hPa 0,0 l/m 5,3 km/h (1 Bft) NW 321 2 min 0,000 mm 1,4 UV-I 408 W/m 8,1 C 11,8 C 8,0 km/h (2 Bft) 95,74 %
27.09.2018 09:56 11,8 C 15,0 C 12,8 C 75 % 1032,1 hPa 0,0 l/m 3,8 km/h (1 Bft) NW 321 2 min 0,000 mm 1,4 UV-I 413 W/m 7,5 C 11,8 C 4,8 km/h (1 Bft) 97,87 %
27.09.2018 09:58 11,8 C 15,0 C 13,9 C 75 % 1032,1 hPa 0,0 l/m 4,5 km/h (1 Bft) N 355 2 min 0,000 mm 1,4 UV-I 417 W/m 7,5 C 11,8 C 8,0 km/h (2 Bft) 100,00 %
27.09.2018 10:00 11,9 C 15,0 C 15,0 C 74 % 1032,1 hPa 0,0 l/m 2,0 km/h (1 Bft) NO 55 2 min 0,178 mm 1,4 UV-I 420 W/m 7,4 C 11,9 C 4,8 km/h (1 Bft) 100,00 %
27.09.2018 10:02 12,1 C 15,0 C 15,6 C 79 % 1032,1 hPa 0,0 l/m 6,2 km/h (2 Bft) NO 47 2 min 0,000 mm 1,5 UV-I 425 W/m 8,6 C 12,1 C 8,0 km/h (2 Bft) 100,00 %
27.09.2018 10:04 12,1 C 15,0 C 16,7 C 78 % 1032,0 hPa 0,0 l/m 5,4 km/h (1 Bft) N-NO 26 2 min 0,000 mm 1,5 UV-I 429 W/m 8,4 C 12,1 C 8,0 km/h (2 Bft) 97,87 %
27.09.2018 10:06 12,1 C 15,0 C 18,3 C 78 % 1032,0 hPa 0,0 l/m 3,4 km/h (1 Bft) N-NO 24 2 min 0,000 mm 1,5 UV-I 433 W/m 8,4 C 12,1 C 6,4 km/h (2 Bft) 95,74 %
27.09.2018 10:08 12,1 C 15,0 C 20,0 C 79 % 1032,0 hPa 0,0 l/m 4,2 km/h (1 Bft) NO 35 2 min 0,000 mm 1,6 UV-I 437 W/m 8,6 C 12,1 C 6,4 km/h (2 Bft) 100,00 %
27.09.2018 10:10 12,2 C 15,0 C 21,1 C 76 % 1032,0 hPa 0,0 l/m 3,5 km/h (1 Bft) NO 34 2 min 0,000 mm 1,6 UV-I 441 W/m 8,1 C 12,2 C 4,8 km/h (1 Bft) 97,87 %
27.09.2018 10:12 12,3 C 15,0 C 21,7 C 77 % 1032,0 hPa 0,0 l/m 4,5 km/h (1 Bft) N-NO 19 2 min 0,000 mm 1,6 UV-I 445 W/m 8,4 C 12,3 C 6,4 km/h (2 Bft) 98,00 %
27.09.2018 10:14 12,3 C 15,0 C 22,2 C 78 % 1032,0 hPa 0,0 l/m 6,0 km/h (2 Bft) N-NO 29 2 min 0,000 mm 1,7 UV-I 449 W/m 8,6 C 12,3 C 8,0 km/h (2 Bft) 95,74 %
27.09.2018 10:16 12,3 C 15,0 C 22,8 C 77 % 1032,0 hPa 0,0 l/m 4,7 km/h (1 Bft) N-NO 28 2 min 0,000 mm 1,7 UV-I 453 W/m 8,4 C 12,3 C 8,0 km/h (2 Bft) 95,74 %
27.09.2018 10:18 12,3 C 15,0 C 23,3 C 77 % 1032,0 hPa 0,0 l/m 6,2 km/h (2 Bft) N-NO 16 2 min 0,000 mm 1,7 UV-I 456 W/m 8,4 C 12,3 C 8,0 km/h (2 Bft) 93,75 %
27.09.2018 10:20 12,3 C 15,0 C 23,9 C 78 % 1032,0 hPa 0,0 l/m 7,1 km/h (2 Bft) N-NO 22 2 min 0,000 mm 1,7 UV-I 460 W/m 8,6 C 11,8 C 12,9 km/h (3 Bft) 97,37 %
27.09.2018 10:22 12,4 C 15,0 C 24,4 C 78 % 1032,0 hPa 0,0 l/m 4,7 km/h (1 Bft) N 11 2 min 0,000 mm 1,8 UV-I 462 W/m 8,7 C 12,4 C 6,4 km/h (2 Bft) 97,87 %
27.09.2018 10:24 12,4 C 15,0 C 24,4 C 78 % 1032,0 hPa 0,0 l/m 5,7 km/h (1 Bft) N-NO 17 2 min 0,000 mm 1,8 UV-I 468 W/m 8,7 C 12,4 C 8,0 km/h (2 Bft) 97,87 %
27.09.2018 10:26 12,4 C 15,0 C 24,4 C 77 % 1032,0 hPa 0,0 l/m 4,3 km/h (1 Bft) N-NO 28 2 min 0,000 mm 1,8 UV-I 470 W/m 8,5 C 12,4 C 6,4 km/h (2 Bft) 95,74 %
27.09.2018 10:28 12,4 C 15,0 C 24,4 C 77 % 1032,0 hPa 0,0 l/m 5,3 km/h (1 Bft) N-NO 14 2 min 0,000 mm 1,9 UV-I 475 W/m 8,5 C 12,4 C 8,0 km/h (2 Bft) 97,87 %
27.09.2018 10:30 12,4 C 15,0 C 24,4 C 78 % 1032,0 hPa 0,0 l/m 4,6 km/h (1 Bft) N-NO 27 2 min 0,000 mm 1,9 UV-I 479 W/m 8,7 C 12,4 C 8,0 km/h (2 Bft) 91,49 %
27.09.2018 10:32 12,6 C 15,0 C 25,6 C 77 % 1032,0 hPa 0,0 l/m 3,4 km/h (1 Bft) NO 38 2 min 0,000 mm 1,9 UV-I 483 W/m 8,7 C 12,6 C 4,8 km/h (1 Bft) 96,00 %
27.09.2018 10:34 12,8 C 15,0 C 26,1 C 78 % 1031,9 hPa 0,0 l/m 5,7 km/h (1 Bft) N-NO 19 2 min 0,000 mm 1,9 UV-I 486 W/m 9,1 C 12,8 C 8,0 km/h (2 Bft) 95,74 %
27.09.2018 10:36 12,8 C 15,0 C 26,1 C 76 % 1032,0 hPa 0,0 l/m 5,3 km/h (1 Bft) N-NO 24 2 min 0,000 mm 2,0 UV-I 490 W/m 8,7 C 12,8 C 8,0 km/h (2 Bft) 95,74 %
27.09.2018 10:38 12,7 C 15,0 C 25,6 C 76 % 1031,9 hPa 0,0 l/m 5,2 km/h (1 Bft) NO 40 2 min 0,000 mm 2,0 UV-I 494 W/m 8,6 C 12,7 C 11,3 km/h (2 Bft) 97,87 %
27.09.2018 10:40 12,8 C 15,0 C 25,6 C 78 % 1031,9 hPa 0,0 l/m 6,4 km/h (2 Bft) N-NO 12 2 min 0,000 mm 2,0 UV-I 497 W/m 9,1 C 12,8 C 12,9 km/h (3 Bft) 96,00 %
27.09.2018 10:42 12,9 C 15,0 C 24,4 C 77 % 1031,9 hPa 0,0 l/m 6,3 km/h (2 Bft) NO 53 2 min 0,000 mm 2,1 UV-I 500 W/m 9,0 C 12,9 C 8,0 km/h (2 Bft) 95,74 %
27.09.2018 10:44 13,0 C 15,0 C 24,4 C 77 % 1031,9 hPa 0,0 l/m 5,9 km/h (2 Bft) NO 44 2 min 0,000 mm 2,1 UV-I 504 W/m 9,1 C 13,0 C 8,0 km/h (2 Bft) 97,87 %
27.09.2018 10:46 13,2 C 15,0 C 25,0 C 76 % 1031,9 hPa 0,0 l/m 6,5 km/h (2 Bft) N-NO 15 2 min 0,000 mm 2,1 UV-I 507 W/m 9,1 C 13,2 C 8,0 km/h (2 Bft) 97,87 %
27.09.2018 10:48 13,2 C 15,0 C 25,0 C 76 % 1031,8 hPa 0,0 l/m 5,0 km/h (1 Bft) N 11 2 min 0,000 mm 2,2 UV-I 511 W/m 9,1 C 13,2 C 8,0 km/h (2 Bft) 97,87 %
27.09.2018 10:50 13,3 C 15,0 C 25,6 C 78 % 1031,8 hPa 0,0 l/m 5,3 km/h (1 Bft) N-NO 24 2 min 0,000 mm 2,2 UV-I 513 W/m 9,5 C 13,3 C 9,7 km/h (2 Bft) 97,44 %
27.09.2018 10:52 13,4 C 15,0 C 26,1 C 74 % 1031,8 hPa 0,0 l/m 3,5 km/h (1 Bft) N-NO 17 2 min 0,000 mm 2,2 UV-I 517 W/m 8,9 C 13,4 C 4,8 km/h (1 Bft) 100,00 %
27.09.2018 10:54 13,6 C 15,0 C 26,1 C 75 % 1031,7 hPa 0,0 l/m 4,3 km/h (1 Bft) N-NO 17 2 min 0,000 mm 2,2 UV-I 520 W/m 9,3 C 13,6 C 8,0 km/h (2 Bft) 100,00 %
27.09.2018 10:56 13,6 C 15,0 C 26,7 C 73 % 1031,7 hPa 0,0 l/m 4,3 km/h (1 Bft) N-NO 22 2 min 0,000 mm 2,3 UV-I 523 W/m 8,9 C 13,6 C 6,4 km/h (2 Bft) 98,00 %
27.09.2018 10:58 13,7 C 15,0 C 26,7 C 73 % 1031,8 hPa 0,0 l/m 4,2 km/h (1 Bft) NO 44 2 min 0,000 mm 2,3 UV-I 526 W/m 8,9 C 13,7 C 6,4 km/h (2 Bft) 100,00 %
27.09.2018 11:00 13,8 C 15,0 C 26,7 C 72 % 1031,7 hPa 0,0 l/m 3,9 km/h (1 Bft) O-NO 57 2 min 0,254 mm 2,3 UV-I 529 W/m 8,8 C 13,8 C 4,8 km/h (1 Bft) 100,00 %
27.09.2018 11:02 13,9 C 15,0 C 27,2 C 73 % 1031,7 hPa 0,0 l/m 4,6 km/h (1 Bft) O-NO 57 2 min 0,000 mm 2,4 UV-I 534 W/m 9,1 C 13,9 C 8,0 km/h (2 Bft) 97,87 %
27.09.2018 11:04 14,0 C 15,0 C 27,2 C 71 % 1031,7 hPa 0,0 l/m 2,1 km/h (1 Bft) O-NO 57 2 min 0,000 mm 2,4 UV-I 535 W/m 8,8 C 14,0 C 3,2 km/h (1 Bft) 97,37 %
27.09.2018 11:06 14,2 C 15,0 C 26,7 C 70 % 1031,6 hPa 0,0 l/m 2,4 km/h (1 Bft) NW 312 2 min 0,000 mm 2,4 UV-I 538 W/m 8,8 C 14,2 C 4,8 km/h (1 Bft) 95,74 %
27.09.2018 11:08 14,2 C 15,0 C 26,7 C 70 % 1031,6 hPa 0,0 l/m 3,9 km/h (1 Bft) NO 45 2 min 0,000 mm 2,5 UV-I 541 W/m 8,8 C 14,2 C 8,0 km/h (2 Bft) 97,87 %
27.09.2018 11:10 14,4 C 15,0 C 27,2 C 73 % 1031,6 hPa 0,0 l/m 4,6 km/h (1 Bft) NO 51 2 min 0,000 mm 2,5 UV-I 543 W/m 9,6 C 14,4 C 8,0 km/h (2 Bft) 95,74 %
27.09.2018 11:12 14,6 C 15,0 C 26,7 C 73 % 1031,6 hPa 0,0 l/m 6,1 km/h (2 Bft) O-NO 76 2 min 0,000 mm 2,5 UV-I 547 W/m 9,8 C 14,6 C 9,7 km/h (2 Bft) 100,00 %
27.09.2018 11:14 14,6 C 15,0 C 27,8 C 70 % 1031,6 hPa 0,0 l/m 5,0 km/h (1 Bft) O-NO 73 2 min 0,000 mm 2,6 UV-I 550 W/m 9,2 C 14,6 C 9,7 km/h (2 Bft) 100,00 %
27.09.2018 11:16 14,5 C 15,0 C 28,3 C 69 % 1031,6 hPa 0,0 l/m 3,8 km/h (1 Bft) O 82 2 min 0,000 mm 2,6 UV-I 553 W/m 8,9 C 14,5 C 6,4 km/h (2 Bft) 100,00 %
27.09.2018 11:18 14,6 C 15,0 C 28,9 C 69 % 1031,5 hPa 0,0 l/m 4,4 km/h (1 Bft) O 88 2 min 0,000 mm 2,6 UV-I 555 W/m 9,0 C 14,6 C 9,7 km/h (2 Bft) 100,00 %
27.09.2018 11:20 14,6 C 15,0 C 28,9 C 68 % 1031,4 hPa 0,0 l/m 5,1 km/h (1 Bft) O-SO 105 2 min 0,000 mm 2,7 UV-I 559 W/m 8,8 C 14,6 C 9,7 km/h (2 Bft) 100,00 %
27.09.2018 11:22 14,4 C 15,0 C 28,9 C 68 % 1031,4 hPa 0,0 l/m 4,6 km/h (1 Bft) O-SO 117 2 min 0,000 mm 2,7 UV-I 560 W/m 8,6 C 14,4 C 6,4 km/h (2 Bft) 97,87 %
27.09.2018 11:24 14,6 C 15,0 C 28,9 C 70 % 1031,4 hPa 0,0 l/m 3,3 km/h (1 Bft) O-SO 115 2 min 0,000 mm 2,7 UV-I 563 W/m 9,2 C 14,6 C 4,8 km/h (1 Bft) 100,00 %
27.09.2018 11:26 14,6 C 15,0 C 28,9 C 68 % 1031,4 hPa 0,0 l/m 3,6 km/h (1 Bft) O-NO 64 2 min 0,000 mm 2,8 UV-I 565 W/m 8,8 C 14,6 C 6,4 km/h (2 Bft) 100,00 %
27.09.2018 11:28 14,8 C 15,0 C 29,4 C 69 % 1031,4 hPa 0,0 l/m 4,4 km/h (1 Bft) O 85 2 min 0,000 mm 2,8 UV-I 568 W/m 9,2 C 14,8 C 6,4 km/h (2 Bft) 97,44 %
27.09.2018 11:30 14,9 C 15,0 C 30,0 C 68 % 1031,3 hPa 0,0 l/m 2,6 km/h (1 Bft) O 85 2 min 0,000 mm 2,8 UV-I 569 W/m 9,0 C 14,9 C 4,8 km/h (1 Bft) 97,87 %
27.09.2018 11:32 14,9 C 15,0 C 29,4 C 67 % 1031,4 hPa 0,0 l/m 1,0 km/h (0 Bft) O 85 2 min 0,000 mm 2,9 UV-I 571 W/m 8,8 C 14,9 C 3,2 km/h (1 Bft) 98,00 %
27.09.2018 11:34 15,0 C 15,0 C 29,4 C 67 % 1031,3 hPa 0,0 l/m 3,4 km/h (1 Bft) O 95 2 min 0,000 mm 2,9 UV-I 573 W/m 8,9 C 15,0 C 6,4 km/h (2 Bft) 95,74 %
27.09.2018 11:36 15,3 C 15,0 C 30,0 C 69 % 1031,3 hPa 0,0 l/m 3,5 km/h (1 Bft) O-NO 65 2 min 0,000 mm 3,0 UV-I 575 W/m 9,6 C 15,3 C 8,0 km/h (2 Bft) 98,00 %
27.09.2018 11:38 15,3 C 15,0 C 30,0 C 65 % 1031,3 hPa 0,0 l/m 2,5 km/h (1 Bft) O-NO 59 2 min 0,000 mm 3,0 UV-I 579 W/m 8,8 C 15,3 C 8,0 km/h (2 Bft) 95,74 %
27.09.2018 11:40 15,6 C 15,0 C 30,0 C 68 % 1031,2 hPa 0,0 l/m 6,3 km/h (2 Bft) NO 56 2 min 0,000 mm 3,0 UV-I 580 W/m 9,7 C 15,6 C 8,0 km/h (2 Bft) 94,00 %
27.09.2018 11:42 15,8 C 15,0 C 30,0 C 65 % 1031,3 hPa 0,0 l/m 3,7 km/h (1 Bft) NO 46 2 min 0,000 mm 3,0 UV-I 582 W/m 9,2 C 15,8 C 6,4 km/h (2 Bft) 97,87 %
27.09.2018 11:44 15,9 C 15,0 C 30,0 C 64 % 1031,3 hPa 0,0 l/m 3,2 km/h (1 Bft) O 82 2 min 0,000 mm 3,0 UV-I 583 W/m 9,1 C 15,9 C 4,8 km/h (1 Bft) 97,87 %
27.09.2018 11:46 15,8 C 15,0 C 30,0 C 62 % 1031,2 hPa 0,0 l/m 1,3 km/h (1 Bft) O 82 2 min 0,000 mm 3,1 UV-I 586 W/m 8,5 C 15,8 C 1,6 km/h (1 Bft) 95,74 %
27.09.2018 11:48 15,8 C 15,0 C 30,6 C 62 % 1031,2 hPa 0,0 l/m 2,1 km/h (1 Bft) O 82 2 min 0,000 mm 3,1 UV-I 589 W/m 8,5 C 15,8 C 4,8 km/h (1 Bft) 97,87 %
27.09.2018 11:50 15,9 C 15,0 C 31,1 C 63 % 1031,2 hPa 0,0 l/m 4,8 km/h (1 Bft) O 88 2 min 0,000 mm 3,1 UV-I 590 W/m 8,9 C 15,9 C 8,0 km/h (2 Bft) 100,00 %
27.09.2018 11:52 16,1 C 15,0 C 30,6 C 65 % 1031,2 hPa 0,0 l/m 3,2 km/h (1 Bft) O 87 2 min 0,000 mm 3,1 UV-I 592 W/m 9,5 C 16,1 C 4,8 km/h (1 Bft) 97,87 %
27.09.2018 11:54 15,9 C 15,0 C 30,6 C 63 % 1031,1 hPa 0,0 l/m 1,4 km/h (1 Bft) O 84 2 min 0,000 mm 3,1 UV-I 593 W/m 8,9 C 15,9 C 3,2 km/h (1 Bft) 100,00 %
27.09.2018 11:56 15,9 C 15,0 C 30,6 C 65 % 1031,0 hPa 0,0 l/m 3,7 km/h (1 Bft) N-NO 32 2 min 0,000 mm 3,2 UV-I 594 W/m 9,3 C 15,9 C 6,4 km/h (2 Bft) 100,00 %
27.09.2018 11:58 16,1 C 15,0 C 30,6 C 64 % 1031,1 hPa 0,0 l/m 2,6 km/h (1 Bft) N-NO 32 2 min 0,000 mm 3,2 UV-I 597 W/m 9,3 C 16,1 C 4,8 km/h (1 Bft) 96,00 %
27.09.2018 12:00 16,3 C 15,0 C 30,0 C 65 % 1031,0 hPa 0,0 l/m 3,2 km/h (1 Bft) O-NO 72 2 min 0,305 mm 3,2 UV-I 598 W/m 9,7 C 16,3 C 4,8 km/h (1 Bft) 97,87 %
27.09.2018 12:02 16,3 C 15,0 C 29,4 C 64 % 1031,0 hPa 0,0 l/m 3,3 km/h (1 Bft) W 261 2 min 0,000 mm 3,2 UV-I 598 W/m 9,5 C 16,3 C 6,4 km/h (2 Bft) 97,87 %
27.09.2018 12:04 16,4 C 15,0 C 30,0 C 64 % 1031,0 hPa 0,0 l/m 2,9 km/h (1 Bft) NW 315 2 min 0,000 mm 3,2 UV-I 601 W/m 9,6 C 16,4 C 4,8 km/h (1 Bft) 96,00 %
27.09.2018 12:06 16,4 C 15,0 C 29,4 C 61 % 1031,0 hPa 0,0 l/m 3,2 km/h (1 Bft) NW 314 2 min 0,000 mm 3,3 UV-I 601 W/m 8,9 C 16,4 C 4,8 km/h (1 Bft) 97,87 %
27.09.2018 12:08 16,3 C 15,0 C 29,4 C 62 % 1031,0 hPa 0,0 l/m 1,9 km/h (1 Bft) N 360 2 min 0,000 mm 3,3 UV-I 603 W/m 9,0 C 16,3 C 4,8 km/h (1 Bft) 97,44 %
27.09.2018 12:10 16,4 C 15,0 C 30,6 C 62 % 1030,9 hPa 0,0 l/m 2,9 km/h (1 Bft) N 360 2 min 0,000 mm 3,3 UV-I 603 W/m 9,1 C 16,4 C 4,8 km/h (1 Bft) 92,00 %
27.09.2018 12:12 16,4 C 15,0 C 30,6 C 62 % 1030,8 hPa 0,0 l/m 1,6 km/h (1 Bft) N 360 2 min 0,000 mm 3,3 UV-I 605 W/m 9,1 C 16,4 C 3,2 km/h (1 Bft) 97,87 %
27.09.2018 12:14 16,6 C 15,0 C 30,6 C 62 % 1030,8 hPa 0,0 l/m 2,9 km/h (1 Bft) NW 319 2 min 0,000 mm 3,3 UV-I 573 W/m 9,3 C 16,6 C 4,8 km/h (1 Bft) 97,87 %
27.09.2018 12:16 16,7 C 15,0 C 30,6 C 63 % 1030,8 hPa 0,0 l/m 3,3 km/h (1 Bft) NW 309 2 min 0,000 mm 3,3 UV-I 597 W/m 9,6 C 16,7 C 4,8 km/h (1 Bft) 97,87 %
27.09.2018 12:18 16,8 C 15,0 C 30,6 C 61 % 1030,8 hPa 0,0 l/m 1,9 km/h (1 Bft) NW 312 2 min 0,000 mm 3,3 UV-I 606 W/m 9,2 C 16,8 C 4,8 km/h (1 Bft) 98,00 %
27.09.2018 12:20 16,8 C 15,0 C 31,1 C 58 % 1030,7 hPa 0,0 l/m 2,4 km/h (1 Bft) NW 313 2 min 0,000 mm 3,3 UV-I 606 W/m 8,5 C 16,8 C 3,2 km/h (1 Bft) 97,87 %
27.09.2018 12:22 16,9 C 15,0 C 30,6 C 61 % 1030,7 hPa 0,0 l/m 5,0 km/h (1 Bft) N 9 2 min 0,000 mm 3,3 UV-I 608 W/m 9,3 C 16,9 C 8,0 km/h (2 Bft) 95,74 %
27.09.2018 12:24 16,9 C 15,0 C 30,0 C 62 % 1030,7 hPa 0,0 l/m 4,8 km/h (1 Bft) NO 47 2 min 0,000 mm 3,3 UV-I 607 W/m 9,6 C 16,9 C 8,0 km/h (2 Bft) 100,00 %
27.09.2018 12:26 17,1 C 15,0 C 29,4 C 63 % 1030,7 hPa 0,0 l/m 5,7 km/h (1 Bft) O-SO 108 2 min 0,000 mm 3,4 UV-I 610 W/m 10,0 C 17,1 C 11,3 km/h (2 Bft) 95,74 %
27.09.2018 12:28 16,9 C 15,0 C 30,0 C 59 % 1030,7 hPa 0,0 l/m 3,5 km/h (1 Bft) O 100 2 min 0,000 mm 3,4 UV-I 612 W/m 8,8 C 16,9 C 6,4 km/h (2 Bft) 98,00 %
27.09.2018 12:30 16,8 C 15,0 C 30,0 C 59 % 1030,6 hPa 0,0 l/m 3,6 km/h (1 Bft) O-SO 109 2 min 0,000 mm 3,4 UV-I 612 W/m 8,7 C 16,8 C 6,4 km/h (2 Bft) 100,00 %
27.09.2018 12:32 16,8 C 15,0 C 30,6 C 61 % 1030,6 hPa 0,0 l/m 3,4 km/h (1 Bft) NO 50 2 min 0,000 mm 3,4 UV-I 612 W/m 9,2 C 16,8 C 6,4 km/h (2 Bft) 100,00 %
27.09.2018 12:34 17,1 C 15,0 C 30,6 C 63 % 1030,6 hPa 0,0 l/m 4,5 km/h (1 Bft) N-NO 24 2 min 0,000 mm 2,7 UV-I 613 W/m 10,0 C 17,1 C 6,4 km/h (2 Bft) 100,00 %
27.09.2018 12:36 17,2 C 15,0 C 29,4 C 61 % 1030,6 hPa 0,0 l/m 4,7 km/h (1 Bft) NO 42 2 min 0,000 mm 3,4 UV-I 613 W/m 9,6 C 17,2 C 6,4 km/h (2 Bft) 97,87 %
27.09.2018 12:38 17,1 C 15,0 C 28,9 C 59 % 1030,6 hPa 0,0 l/m 5,2 km/h (1 Bft) O-NO 64 2 min 0,000 mm 3,4 UV-I 614 W/m 9,0 C 17,1 C 8,0 km/h (2 Bft) 100,00 %
27.09.2018 12:40 17,2 C 15,0 C 29,4 C 59 % 1030,6 hPa 0,0 l/m 5,1 km/h (1 Bft) O-NO 68 2 min 0,000 mm 3,4 UV-I 614 W/m 9,1 C 17,2 C 9,7 km/h (2 Bft) 100,00 %
27.09.2018 12:42 17,3 C 15,0 C 28,9 C 59 % 1030,6 hPa 0,0 l/m 4,4 km/h (1 Bft) O-NO 76 2 min 0,000 mm 3,4 UV-I 612 W/m 9,2 C 17,3 C 8,0 km/h (2 Bft) 100,00 %
27.09.2018 12:44 17,3 C 15,0 C 29,4 C 59 % 1030,5 hPa 0,0 l/m 4,3 km/h (1 Bft) O 79 2 min 0,000 mm 3,4 UV-I 612 W/m 9,2 C 17,3 C 6,4 km/h (2 Bft) 100,00 %
27.09.2018 12:46 17,5 C 15,0 C 30,0 C 59 % 1030,5 hPa 0,0 l/m 3,8 km/h (1 Bft) O 84 2 min 0,000 mm 2,4 UV-I 614 W/m 9,4 C 17,5 C 6,4 km/h (2 Bft) 95,74 %
27.09.2018 12:48 17,4 C 15,0 C 30,0 C 57 % 1030,5 hPa 0,0 l/m 5,1 km/h (1 Bft) O-SO 104 2 min 0,000 mm 3,4 UV-I 614 W/m 8,8 C 17,4 C 6,4 km/h (2 Bft) 100,00 %
27.09.2018 12:50 17,4 C 15,0 C 30,6 C 57 % 1030,4 hPa 0,0 l/m 4,5 km/h (1 Bft) O-SO 105 2 min 0,000 mm 3,4 UV-I 615 W/m 8,8 C 17,4 C 6,4 km/h (2 Bft) 100,00 %
27.09.2018 12:52 17,4 C 15,0 C 30,6 C 57 % 1030,4 hPa 0,0 l/m 4,3 km/h (1 Bft) NO 41 2 min 0,000 mm 3,4 UV-I 616 W/m 8,8 C 17,4 C 9,7 km/h (2 Bft) 97,87 %
27.09.2018 12:54 17,6 C 15,0 C 30,0 C 59 % 1030,4 hPa 0,0 l/m 6,5 km/h (2 Bft) NO 39 2 min 0,000 mm 3,4 UV-I 615 W/m 9,5 C 17,6 C 8,0 km/h (2 Bft) 97,87 %
27.09.2018 12:56 17,6 C 15,0 C 29,4 C 57 % 1030,3 hPa 0,0 l/m 6,5 km/h (2 Bft) O-NO 64 2 min 0,000 mm 3,4 UV-I 616 W/m 9,0 C 17,6 C 9,7 km/h (2 Bft) 97,87 %
27.09.2018 12:58 17,6 C 15,0 C 29,4 C 57 % 1030,3 hPa 0,0 l/m 6,3 km/h (2 Bft) NO 48 2 min 0,000 mm 3,4 UV-I 617 W/m 9,0 C 17,6 C 8,0 km/h (2 Bft) 97,87 %
27.09.2018 13:00 17,7 C 15,0 C 30,0 C 58 % 1030,2 hPa 0,0 l/m 3,3 km/h (1 Bft) N-NO 28 2 min 0,000 mm 3,4 UV-I 618 W/m 9,3 C 17,7 C 8,0 km/h (2 Bft) 97,87 %
27.09.2018 13:02 17,6 C 15,0 C 30,0 C 54 % 1030,1 hPa 0,0 l/m 1,7 km/h (1 Bft) O-NO 77 2 min 0,355 mm 3,4 UV-I 615 W/m 8,2 C 17,6 C 4,8 km/h (1 Bft) 95,74 %
27.09.2018 13:04 17,7 C 15,0 C 30,6 C 54 % 1030,1 hPa 0,0 l/m 4,8 km/h (1 Bft) O-NO 76 2 min 0,000 mm 3,0 UV-I 613 W/m 8,3 C 17,7 C 6,4 km/h (2 Bft) 93,62 %
27.09.2018 13:06 17,9 C 15,0 C 31,1 C 58 % 1030,1 hPa 0,0 l/m 5,0 km/h (1 Bft) N-NO 20 2 min 0,000 mm 3,4 UV-I 613 W/m 9,5 C 17,9 C 11,3 km/h (2 Bft) 93,62 %
27.09.2018 13:08 17,9 C 15,0 C 30,6 C 52 % 1030,1 hPa 0,0 l/m 3,7 km/h (1 Bft) N-NW 331 2 min 0,000 mm 3,4 UV-I 613 W/m 7,9 C 17,9 C 6,4 km/h (2 Bft) 97,87 %
27.09.2018 13:10 17,9 C 15,0 C 30,0 C 55 % 1030,1 hPa 0,0 l/m 4,4 km/h (1 Bft) N-NO 33 2 min 0,000 mm 3,4 UV-I 613 W/m 8,7 C 17,9 C 8,0 km/h (2 Bft) 96,00 %
27.09.2018 13:12 17,8 C 15,0 C 30,6 C 53 % 1030,1 hPa 0,0 l/m 3,0 km/h (1 Bft) NO 51 2 min 0,000 mm 3,4 UV-I 613 W/m 8,1 C 17,8 C 4,8 km/h (1 Bft) 98,00 %
27.09.2018 13:14 17,7 C 15,0 C 30,6 C 52 % 1030,0 hPa 0,0 l/m 0,9 km/h (0 Bft) NO 51 2 min 0,000 mm 3,4 UV-I 611 W/m 7,7 C 17,7 C 3,2 km/h (1 Bft) 95,74 %
27.09.2018 13:16 17,9 C 15,0 C 31,7 C 55 % 1030,0 hPa 0,0 l/m 1,3 km/h (1 Bft) O 80 2 min 0,000 mm 3,4 UV-I 610 W/m 8,7 C 17,9 C 3,2 km/h (1 Bft) 97,87 %
27.09.2018 13:18 18,0 C 15,0 C 31,7 C 50 % 1030,0 hPa 0,0 l/m 1,8 km/h (1 Bft) W-SW 257 2 min 0,000 mm 3,4 UV-I 609 W/m 7,4 C 18,0 C 3,2 km/h (1 Bft) 97,22 %
27.09.2018 13:20 17,9 C 15,0 C 31,1 C 50 % 1029,9 hPa 0,0 l/m 2,0 km/h (1 Bft) W-SW 258 2 min 0,000 mm 3,4 UV-I 584 W/m 7,3 C 17,9 C 3,2 km/h (1 Bft) 97,87 %
27.09.2018 13:22 17,9 C 15,0 C 31,1 C 51 % 1029,9 hPa 0,0 l/m 0,4 km/h (0 Bft) W-SW 258 2 min 0,000 mm 3,4 UV-I 609 W/m 7,6 C 17,9 C 1,6 km/h (1 Bft) 98,00 %
27.09.2018 13:24 18,1 C 15,0 C 31,1 C 52 % 1029,8 hPa 0,0 l/m 2,6 km/h (1 Bft) NW 325 2 min 0,000 mm 3,4 UV-I 608 W/m 8,1 C 18,1 C 4,8 km/h (1 Bft) 100,00 %
27.09.2018 13:26 18,3 C 15,0 C 30,6 C 53 % 1029,8 hPa 0,0 l/m 6,0 km/h (2 Bft) NO 43 2 min 0,000 mm 3,4 UV-I 609 W/m 8,6 C 18,3 C 9,7 km/h (2 Bft) 97,87 %
27.09.2018 13:28 18,4 C 15,0 C 30,0 C 56 % 1029,8 hPa 0,0 l/m 6,6 km/h (2 Bft) NO 55 2 min 0,000 mm 3,4 UV-I 609 W/m 9,5 C 18,3 C 12,9 km/h (3 Bft) 100,00 %
27.09.2018 13:30 18,4 C 15,0 C 30,0 C 53 % 1029,7 hPa 0,0 l/m 4,8 km/h (1 Bft) NO 36 2 min 0,000 mm 3,4 UV-I 606 W/m 8,6 C 18,4 C 6,4 km/h (2 Bft) 97,37 %
27.09.2018 13:32 18,3 C 15,0 C 29,4 C 49 % 1029,7 hPa 0,0 l/m 3,5 km/h (1 Bft) O-NO 62 2 min 0,000 mm 3,4 UV-I 604 W/m 7,4 C 18,3 C 6,4 km/h (2 Bft) 100,00 %
27.09.2018 13:34 18,4 C 15,0 C 29,4 C 51 % 1029,6 hPa 0,0 l/m 5,6 km/h (1 Bft) N-NO 29 2 min 0,000 mm 3,3 UV-I 603 W/m 8,1 C 18,4 C 8,0 km/h (2 Bft) 100,00 %
27.09.2018 13:36 18,6 C 15,0 C 30,0 C 49 % 1029,6 hPa 0,0 l/m 4,4 km/h (1 Bft) N-NO 15 2 min 0,000 mm 3,3 UV-I 599 W/m 7,7 C 18,6 C 6,4 km/h (2 Bft) 100,00 %
27.09.2018 13:38 18,6 C 15,0 C 30,0 C 48 % 1029,6 hPa 0,0 l/m 3,5 km/h (1 Bft) N 5 2 min 0,000 mm 3,3 UV-I 599 W/m 7,4 C 18,6 C 4,8 km/h (1 Bft) 100,00 %
27.09.2018 13:40 18,6 C 15,0 C 30,0 C 48 % 1029,5 hPa 0,0 l/m 2,2 km/h (1 Bft) N-NW 342 2 min 0,000 mm 3,3 UV-I 598 W/m 7,4 C 18,6 C 3,2 km/h (1 Bft) 100,00 %
27.09.2018 13:42 18,5 C 15,0 C 30,6 C 49 % 1029,4 hPa 0,0 l/m 1,2 km/h (1 Bft) N-NW 342 2 min 0,000 mm 3,3 UV-I 597 W/m 7,6 C 18,5 C 3,2 km/h (1 Bft) 97,87 %
27.09.2018 13:44 18,6 C 15,0 C 30,6 C 50 % 1029,4 hPa 0,0 l/m 4,8 km/h (1 Bft) NO 54 2 min 0,000 mm 3,3 UV-I 596 W/m 8,0 C 18,6 C 6,4 km/h (2 Bft) 97,87 %
27.09.2018 13:46 18,7 C 15,0 C 30,0 C 51 % 1029,4 hPa 0,0 l/m 4,4 km/h (1 Bft) O-NO 57 2 min 0,000 mm 3,2 UV-I 594 W/m 8,4 C 18,7 C 6,4 km/h (2 Bft) 97,87 %
27.09.2018 13:48 18,8 C 15,0 C 30,6 C 50 % 1029,4 hPa 0,0 l/m 4,5 km/h (1 Bft) NO 46 2 min 0,000 mm 3,2 UV-I 587 W/m 8,2 C 18,8 C 6,4 km/h (2 Bft) 95,74 %
27.09.2018 13:50 18,8 C 15,0 C 30,0 C 48 % 1029,4 hPa 0,0 l/m 2,8 km/h (1 Bft) NO 45 2 min 0,000 mm 3,2 UV-I 590 W/m 7,6 C 18,8 C 4,8 km/h (1 Bft) 97,87 %
27.09.2018 13:52 18,7 C 15,0 C 30,0 C 50 % 1029,3 hPa 0,0 l/m 3,7 km/h (1 Bft) NO 45 2 min 0,000 mm 3,2 UV-I 588 W/m 8,1 C 18,7 C 6,4 km/h (2 Bft) 97,37 %
27.09.2018 13:54 18,6 C 15,0 C 30,0 C 47 % 1029,3 hPa 0,0 l/m 1,8 km/h (1 Bft) O-SO 109 2 min 0,000 mm 3,2 UV-I 589 W/m 7,1 C 18,6 C 3,2 km/h (1 Bft) 95,83 %
27.09.2018 13:56 18,4 C 15,0 C 30,6 C 47 % 1029,3 hPa 0,0 l/m 2,5 km/h (1 Bft) NO 40 2 min 0,000 mm 3,2 UV-I 583 W/m 6,9 C 18,4 C 4,8 km/h (1 Bft) 97,87 %
27.09.2018 13:58 18,7 C 15,0 C 30,6 C 48 % 1029,3 hPa 0,0 l/m 4,7 km/h (1 Bft) N-NO 13 2 min 0,000 mm 3,1 UV-I 583 W/m 7,5 C 18,7 C 6,4 km/h (2 Bft) 95,74 %
27.09.2018 14:00 18,8 C 15,0 C 30,0 C 51 % 1029,2 hPa 0,0 l/m 4,7 km/h (1 Bft) N-NO 22 2 min 0,356 mm 3,1 UV-I 561 W/m 8,4 C 18,8 C 8,0 km/h (2 Bft) 98,00 %
27.09.2018 14:02 18,9 C 15,0 C 30,0 C 50 % 1029,2 hPa 0,0 l/m 4,9 km/h (1 Bft) O-NO 67 2 min 0,000 mm 3,1 UV-I 579 W/m 8,2 C 18,9 C 6,4 km/h (2 Bft) 97,87 %
27.09.2018 14:04 19,0 C 15,0 C 29,4 C 51 % 1029,1 hPa 0,0 l/m 5,4 km/h (1 Bft) O-NO 69 2 min 0,000 mm 3,1 UV-I 577 W/m 8,6 C 19,0 C 8,0 km/h (2 Bft) 97,87 %
27.09.2018 14:06 19,0 C 15,0 C 29,4 C 52 % 1029,1 hPa 0,0 l/m 3,4 km/h (1 Bft) O-NO 69 2 min 0,000 mm 2,9 UV-I 575 W/m 8,9 C 19,0 C 4,8 km/h (1 Bft) 97,87 %
27.09.2018 14:08 19,1 C 15,0 C 29,4 C 49 % 1029,1 hPa 0,0 l/m 3,9 km/h (1 Bft) NO 51 2 min 0,000 mm 3,0 UV-I 574 W/m 8,1 C 19,1 C 6,4 km/h (2 Bft) 95,74 %
27.09.2018 14:10 19,1 C 15,0 C 30,0 C 49 % 1029,0 hPa 0,0 l/m 4,9 km/h (1 Bft) NO 40 2 min 0,000 mm 3,0 UV-I 570 W/m 8,1 C 19,1 C 8,0 km/h (2 Bft) 97,87 %
27.09.2018 14:12 19,2 C 15,0 C 29,4 C 52 % 1029,0 hPa 0,0 l/m 6,6 km/h (2 Bft) N-NO 17 2 min 0,000 mm 3,0 UV-I 567 W/m 9,1 C 19,1 C 9,7 km/h (2 Bft) 97,87 %
27.09.2018 14:14 19,2 C 15,0 C 28,9 C 49 % 1028,9 hPa 0,0 l/m 4,5 km/h (1 Bft) N 11 2 min 0,000 mm 3,0 UV-I 564 W/m 8,2 C 19,2 C 6,4 km/h (2 Bft) 97,87 %
27.09.2018 14:16 19,1 C 15,0 C 29,4 C 52 % 1028,9 hPa 0,0 l/m 4,3 km/h (1 Bft) NO 41 2 min 0,000 mm 3,0 UV-I 565 W/m 9,0 C 19,1 C 8,0 km/h (2 Bft) 97,87 %
27.09.2018 14:18 19,1 C 15,0 C 28,9 C 48 % 1028,9 hPa 0,0 l/m 2,8 km/h (1 Bft) N-NO 30 2 min 0,000 mm 2,9 UV-I 561 W/m 7,8 C 19,1 C 6,4 km/h (2 Bft) 97,87 %
27.09.2018 14:20 19,2 C 15,0 C 28,9 C 49 % 1028,9 hPa 0,0 l/m 6,7 km/h (2 Bft) O-NO 64 2 min 0,000 mm 2,9 UV-I 558 W/m 8,2 C 19,1 C 11,3 km/h (2 Bft) 97,87 %
27.09.2018 14:22 19,2 C 15,0 C 28,3 C 51 % 1028,8 hPa 0,0 l/m 5,5 km/h (1 Bft) N-NO 21 2 min 0,000 mm 2,9 UV-I 555 W/m 8,8 C 19,2 C 8,0 km/h (2 Bft) 97,87 %
27.09.2018 14:24 19,3 C 15,0 C 28,9 C 49 % 1028,8 hPa 0,0 l/m 4,4 km/h (1 Bft) O 93 2 min 0,000 mm 2,9 UV-I 553 W/m 8,3 C 19,3 C 9,7 km/h (2 Bft) 92,00 %
27.09.2018 14:26 19,4 C 15,0 C 29,4 C 51 % 1028,8 hPa 0,0 l/m 4,6 km/h (1 Bft) O-NO 59 2 min 0,000 mm 2,8 UV-I 552 W/m 9,0 C 19,4 C 8,0 km/h (2 Bft) 97,37 %
27.09.2018 14:28 19,4 C 15,0 C 30,0 C 47 % 1028,8 hPa 0,0 l/m 5,5 km/h (1 Bft) O-NO 77 2 min 0,000 mm 2,8 UV-I 548 W/m 7,8 C 19,4 C 11,3 km/h (2 Bft) 93,62 %
27.09.2018 14:30 19,4 C 15,0 C 29,4 C 48 % 1028,8 hPa 0,0 l/m 4,5 km/h (1 Bft) O-NO 60 2 min 0,000 mm 2,8 UV-I 547 W/m 8,1 C 19,4 C 8,0 km/h (2 Bft) 95,74 %
27.09.2018 14:32 19,5 C 15,0 C 28,9 C 49 % 1028,7 hPa 0,0 l/m 3,6 km/h (1 Bft) O-NO 65 2 min 0,000 mm 2,8 UV-I 544 W/m 8,5 C 19,5 C 8,0 km/h (2 Bft) 95,74 %
27.09.2018 14:34 19,6 C 15,0 C 28,3 C 50 % 1028,6 hPa 0,0 l/m 4,7 km/h (1 Bft) O-NO 57 2 min 0,000 mm 2,7 UV-I 542 W/m 8,9 C 19,6 C 8,0 km/h (2 Bft) 94,34 %
27.09.2018 14:36 19,4 C 15,0 C 27,8 C 49 % 1028,6 hPa 0,0 l/m 4,3 km/h (1 Bft) NO 38 2 min 0,000 mm 2,7 UV-I 540 W/m 8,4 C 19,4 C 8,0 km/h (2 Bft) 95,74 %
27.09.2018 14:38 19,6 C 15,0 C 26,7 C 47 % 1028,6 hPa 0,0 l/m 5,0 km/h (1 Bft) N-NO 13 2 min 0,000 mm 2,7 UV-I 537 W/m 8,0 C 19,6 C 8,0 km/h (2 Bft) 93,75 %
27.09.2018 14:40 19,9 C 15,0 C 26,1 C 48 % 1028,5 hPa 0,0 l/m 4,1 km/h (1 Bft) NO 56 2 min 0,000 mm 2,6 UV-I 533 W/m 8,6 C 19,9 C 6,4 km/h (2 Bft) 95,74 %
27.09.2018 14:42 20,1 C 15,0 C 25,6 C 48 % 1028,5 hPa 0,0 l/m 3,5 km/h (1 Bft) O 82 2 min 0,000 mm 2,6 UV-I 532 W/m 8,7 C 20,1 C 4,8 km/h (1 Bft) 95,74 %
27.09.2018 14:44 20,2 C 15,0 C 25,6 C 47 % 1028,4 hPa 0,0 l/m 5,2 km/h (1 Bft) SO 125 2 min 0,000 mm 2,6 UV-I 529 W/m 8,5 C 20,2 C 11,3 km/h (2 Bft) 93,62 %
27.09.2018 14:46 20,1 C 15,0 C 25,6 C 49 % 1028,4 hPa 0,0 l/m 5,8 km/h (2 Bft) O-NO 69 2 min 0,000 mm 2,6 UV-I 524 W/m 9,0 C 20,1 C 11,3 km/h (2 Bft) 94,74 %
27.09.2018 14:48 20,1 C 15,0 C 25,0 C 48 % 1028,4 hPa 0,0 l/m 9,6 km/h (2 Bft) O-NO 71 2 min 0,000 mm 2,5 UV-I 520 W/m 8,7 C 18,9 C 17,7 km/h (3 Bft) 91,49 %
27.09.2018 14:50 20,2 C 15,0 C 25,0 C 48 % 1028,4 hPa 0,0 l/m 6,6 km/h (2 Bft) O 94 2 min 0,000 mm 2,5 UV-I 517 W/m 8,8 C 20,1 C 11,3 km/h (2 Bft) 96,00 %
27.09.2018 14:52 20,2 C 15,0 C 25,0 C 45 % 1028,3 hPa 0,0 l/m 6,5 km/h (2 Bft) SO 134 2 min 0,000 mm 2,5 UV-I 514 W/m 7,9 C 20,2 C 11,3 km/h (2 Bft) 97,87 %
27.09.2018 14:54 20,2 C 15,0 C 25,0 C 46 % 1028,2 hPa 0,0 l/m 7,3 km/h (2 Bft) O-NO 75 2 min 0,000 mm 2,4 UV-I 513 W/m 8,2 C 19,8 C 11,3 km/h (2 Bft) 96,00 %
27.09.2018 14:56 20,2 C 15,0 C 25,6 C 46 % 1028,2 hPa 0,0 l/m 5,6 km/h (1 Bft) O-NO 78 2 min 0,000 mm 2,4 UV-I 508 W/m 8,2 C 20,2 C 9,7 km/h (2 Bft) 95,74 %
27.09.2018 14:58 20,1 C 15,0 C 25,0 C 44 % 1028,2 hPa 0,0 l/m 3,5 km/h (1 Bft) O 82 2 min 0,000 mm 2,4 UV-I 504 W/m 7,5 C 20,1 C 8,0 km/h (2 Bft) 97,87 %
27.09.2018 15:00 20,0 C 15,0 C 24,4 C 44 % 1028,2 hPa 0,0 l/m 3,3 km/h (1 Bft) O 94 2 min 0,355 mm 2,4 UV-I 503 W/m 7,4 C 20,0 C 6,4 km/h (2 Bft) 97,87 %
27.09.2018 15:02 20,1 C 15,0 C 25,0 C 43 % 1028,2 hPa 0,0 l/m 4,3 km/h (1 Bft) O-SO 111 2 min 0,000 mm 2,3 UV-I 501 W/m 7,1 C 20,1 C 6,4 km/h (2 Bft) 95,74 %
27.09.2018 15:04 20,1 C 15,0 C 24,4 C 42 % 1028,1 hPa 0,0 l/m 5,1 km/h (1 Bft) O 99 2 min 0,000 mm 2,3 UV-I 496 W/m 6,8 C 20,1 C 6,4 km/h (2 Bft) 97,87 %
27.09.2018 15:06 19,9 C 15,0 C 24,4 C 43 % 1028,2 hPa 0,0 l/m 1,6 km/h (1 Bft) O 99 2 min 0,000 mm 2,3 UV-I 491 W/m 6,9 C 19,9 C 4,8 km/h (1 Bft) 95,74 %
27.09.2018 15:08 19,9 C 15,0 C 25,6 C 44 % 1028,1 hPa 0,0 l/m 0,4 km/h (0 Bft) O 99 2 min 0,000 mm 2,2 UV-I 490 W/m 7,3 C 19,9 C 1,6 km/h (1 Bft) 95,74 %
27.09.2018 15:10 19,9 C 15,0 C 25,6 C 43 % 1028,0 hPa 0,0 l/m 1,2 km/h (1 Bft) O 93 2 min 0,000 mm 2,2 UV-I 488 W/m 6,9 C 19,9 C 3,2 km/h (1 Bft) 91,49 %
27.09.2018 15:12 20,1 C 15,0 C 25,0 C 43 % 1027,9 hPa 0,0 l/m 1,8 km/h (1 Bft) NO 38 2 min 0,000 mm 2,2 UV-I 485 W/m 7,1 C 20,1 C 4,8 km/h (1 Bft) 97,87 %
27.09.2018 15:14 20,1 C 15,0 C 24,4 C 41 % 1027,9 hPa 0,0 l/m 3,5 km/h (1 Bft) O-NO 59 2 min 0,000 mm 2,2 UV-I 482 W/m 6,4 C 20,1 C 6,4 km/h (2 Bft) 97,87 %
27.09.2018 15:16 20,3 C 15,0 C 24,4 C 40 % 1027,9 hPa 0,0 l/m 6,0 km/h (2 Bft) O 80 2 min 0,000 mm 2,2 UV-I 478 W/m 6,3 C 20,3 C 9,7 km/h (2 Bft) 97,44 %
27.09.2018 15:18 20,4 C 15,0 C 24,4 C 41 % 1027,7 hPa 0,0 l/m 4,9 km/h (1 Bft) O-NO 71 2 min 0,000 mm 2,1 UV-I 474 W/m 6,7 C 20,4 C 6,4 km/h (2 Bft) 97,87 %
27.09.2018 15:20 20,4 C 15,0 C 24,4 C 39 % 1027,8 hPa 0,0 l/m 5,4 km/h (1 Bft) SO 139 2 min 0,000 mm 2,1 UV-I 471 W/m 6,0 C 20,4 C 9,7 km/h (2 Bft) 97,87 %
27.09.2018 15:22 20,3 C 15,0 C 24,4 C 39 % 1027,8 hPa 0,0 l/m 2,3 km/h (1 Bft) SO 139 2 min 0,000 mm 2,0 UV-I 466 W/m 5,9 C 20,3 C 4,8 km/h (1 Bft) 98,00 %
27.09.2018 15:24 20,2 C 15,0 C 23,9 C 39 % 1027,8 hPa 0,0 l/m 2,1 km/h (1 Bft) SO 130 2 min 0,000 mm 2,0 UV-I 462 W/m 5,8 C 20,2 C 4,8 km/h (1 Bft) 93,62 %
27.09.2018 15:26 20,3 C 15,0 C 23,3 C 46 % 1027,7 hPa 0,0 l/m 3,6 km/h (1 Bft) O 87 2 min 0,000 mm 2,0 UV-I 456 W/m 8,3 C 20,3 C 6,4 km/h (2 Bft) 97,87 %
27.09.2018 15:28 20,4 C 15,0 C 22,2 C 50 % 1027,7 hPa 0,0 l/m 4,6 km/h (1 Bft) O-NO 67 2 min 0,000 mm 1,9 UV-I 452 W/m 9,6 C 20,4 C 6,4 km/h (2 Bft) 97,87 %
27.09.2018 15:30 20,4 C 15,0 C 21,1 C 44 % 1027,6 hPa 0,0 l/m 4,2 km/h (1 Bft) O-SO 105 2 min 0,000 mm 1,9 UV-I 447 W/m 7,7 C 20,4 C 9,7 km/h (2 Bft) 93,62 %
27.09.2018 15:32 20,3 C 15,0 C 20,6 C 42 % 1027,5 hPa 0,0 l/m 2,3 km/h (1 Bft) O-NO 76 2 min 0,000 mm 1,9 UV-I 443 W/m 7,0 C 20,3 C 8,0 km/h (2 Bft) 95,74 %
27.09.2018 15:34 20,4 C 15,0 C 20,6 C 43 % 1027,5 hPa 0,0 l/m 6,2 km/h (2 Bft) O-NO 58 2 min 0,000 mm 1,8 UV-I 438 W/m 7,4 C 20,4 C 11,3 km/h (2 Bft) 98,00 %
27.09.2018 15:36 20,4 C 15,0 C 20,0 C 44 % 1027,5 hPa 0,0 l/m 4,1 km/h (1 Bft) NO 34 2 min 0,000 mm 1,8 UV-I 432 W/m 7,7 C 20,4 C 6,4 km/h (2 Bft) 93,62 %
27.09.2018 15:38 20,6 C 15,0 C 19,4 C 40 % 1027,4 hPa 0,0 l/m 5,2 km/h (1 Bft) O-SO 102 2 min 0,000 mm 1,8 UV-I 411 W/m 6,5 C 20,6 C 8,0 km/h (2 Bft) 94,29 %
27.09.2018 15:40 20,7 C 15,0 C 19,4 C 40 % 1027,4 hPa 0,0 l/m 3,6 km/h (1 Bft) O 96 2 min 0,000 mm 1,7 UV-I 413 W/m 6,6 C 20,7 C 6,4 km/h (2 Bft) 96,00 %
27.09.2018 15:42 20,7 C 15,0 C 19,4 C 40 % 1027,4 hPa 0,0 l/m 3,2 km/h (1 Bft) O-NO 68 2 min 0,000 mm 1,7 UV-I 428 W/m 6,6 C 20,7 C 6,4 km/h (2 Bft) 95,74 %
27.09.2018 15:44 20,7 C 15,0 C 18,9 C 42 % 1027,3 hPa 0,0 l/m 3,3 km/h (1 Bft) NO 54 2 min 0,000 mm 1,7 UV-I 419 W/m 7,3 C 20,7 C 6,4 km/h (2 Bft) 97,87 %
27.09.2018 15:46 20,7 C 15,0 C 18,9 C 40 % 1027,3 hPa 0,0 l/m 3,2 km/h (1 Bft) SO 135 2 min 0,000 mm 1,7 UV-I 412 W/m 6,6 C 20,7 C 4,8 km/h (1 Bft) 95,74 %
27.09.2018 15:48 20,7 C 15,0 C 18,9 C 40 % 1027,3 hPa 0,0 l/m 3,5 km/h (1 Bft) O-NO 75 2 min 0,000 mm 1,6 UV-I 411 W/m 6,6 C 20,7 C 6,4 km/h (2 Bft) 93,75 %
27.09.2018 15:50 20,8 C 15,0 C 18,9 C 41 % 1027,3 hPa 0,0 l/m 5,8 km/h (2 Bft) O-NO 74 2 min 0,000 mm 1,6 UV-I 406 W/m 7,1 C 20,8 C 8,0 km/h (2 Bft) 95,74 %
27.09.2018 15:52 20,8 C 15,0 C 18,9 C 40 % 1027,2 hPa 0,0 l/m 5,3 km/h (1 Bft) O-NO 67 2 min 0,000 mm 1,6 UV-I 401 W/m 6,7 C 20,8 C 8,0 km/h (2 Bft) 93,62 %
27.09.2018 15:54 20,8 C 15,0 C 18,9 C 37 % 1027,2 hPa 0,0 l/m 4,6 km/h (1 Bft) O-NO 67 2 min 0,000 mm 1,5 UV-I 396 W/m 5,6 C 20,8 C 6,4 km/h (2 Bft) 91,49 %
27.09.2018 15:56 20,8 C 15,0 C 18,9 C 39 % 1027,2 hPa 0,0 l/m 4,8 km/h (1 Bft) O-NO 65 2 min 0,000 mm 1,5 UV-I 395 W/m 6,3 C 20,8 C 8,0 km/h (2 Bft) 91,49 %
27.09.2018 15:58 20,7 C 15,0 C 18,9 C 36 % 1027,1 hPa 0,0 l/m 4,1 km/h (1 Bft) O 88 2 min 0,000 mm 1,5 UV-I 392 W/m 5,1 C 20,7 C 8,0 km/h (2 Bft) 91,49 %
27.09.2018 16:00 20,6 C 15,0 C 18,3 C 37 % 1027,1 hPa 0,0 l/m 3,0 km/h (1 Bft) O 82 2 min 0,305 mm 1,4 UV-I 383 W/m 5,4 C 20,6 C 4,8 km/h (1 Bft) 91,49 %
27.09.2018 16:02 20,6 C 15,0 C 18,3 C 36 % 1027,2 hPa 0,0 l/m 2,2 km/h (1 Bft) O 99 2 min 0,000 mm 1,4 UV-I 380 W/m 5,0 C 20,6 C 4,8 km/h (1 Bft) 96,00 %
27.09.2018 16:04 20,6 C 15,0 C 18,3 C 39 % 1027,1 hPa 0,0 l/m 5,1 km/h (1 Bft) NO 42 2 min 0,000 mm 1,4 UV-I 375 W/m 6,2 C 20,6 C 8,0 km/h (2 Bft) 96,00 %
27.09.2018 16:06 20,7 C 15,0 C 18,3 C 36 % 1027,0 hPa 0,0 l/m 2,5 km/h (1 Bft) N-NO 27 2 min 0,000 mm 1,3 UV-I 368 W/m 5,1 C 20,7 C 6,4 km/h (2 Bft) 95,74 %
27.09.2018 16:08 20,7 C 15,0 C 18,3 C 37 % 1027,0 hPa 0,0 l/m 5,3 km/h (1 Bft) O 79 2 min 0,000 mm 1,3 UV-I 364 W/m 5,5 C 20,7 C 8,0 km/h (2 Bft) 93,62 %
27.09.2018 16:10 20,9 C 15,0 C 18,3 C 38 % 1027,0 hPa 0,0 l/m 5,3 km/h (1 Bft) O 90 2 min 0,000 mm 1,3 UV-I 360 W/m 6,0 C 20,9 C 8,0 km/h (2 Bft) 97,87 %
27.09.2018 16:12 20,7 C 15,0 C 18,3 C 36 % 1027,0 hPa 0,0 l/m 2,6 km/h (1 Bft) O-SO 121 2 min 0,000 mm 1,3 UV-I 356 W/m 5,1 C 20,7 C 4,8 km/h (1 Bft) 97,87 %
27.09.2018 16:14 20,7 C 15,0 C 18,3 C 38 % 1026,9 hPa 0,0 l/m 3,6 km/h (1 Bft) NO 38 2 min 0,000 mm 1,2 UV-I 349 W/m 5,9 C 20,7 C 4,8 km/h (1 Bft) 97,37 %
27.09.2018 16:16 20,7 C 15,0 C 18,3 C 36 % 1026,9 hPa 0,0 l/m 3,2 km/h (1 Bft) NO 38 2 min 0,000 mm 1,2 UV-I 345 W/m 5,1 C 20,7 C 4,8 km/h (1 Bft) 96,43 %
27.09.2018 16:18 20,7 C 15,0 C 18,3 C 37 % 1026,9 hPa 0,0 l/m 3,3 km/h (1 Bft) NO 41 2 min 0,000 mm 1,2 UV-I 343 W/m 5,5 C 20,7 C 4,8 km/h (1 Bft) 97,87 %
27.09.2018 16:20 20,8 C 15,0 C 18,3 C 38 % 1026,8 hPa 0,0 l/m 6,1 km/h (2 Bft) O-NO 57 2 min 0,000 mm 1,1 UV-I 337 W/m 6,0 C 20,8 C 8,0 km/h (2 Bft) 97,87 %
27.09.2018 16:22 20,8 C 15,0 C 17,8 C 34 % 1026,8 hPa 0,0 l/m 5,2 km/h (1 Bft) O 96 2 min 0,000 mm 1,1 UV-I 330 W/m 4,4 C 20,8 C 6,4 km/h (2 Bft) 97,37 %
27.09.2018 16:24 20,8 C 15,0 C 17,8 C 32 % 1026,8 hPa 0,0 l/m 3,5 km/h (1 Bft) O 96 2 min 0,000 mm 1,1 UV-I 327 W/m 3,5 C 20,8 C 6,4 km/h (2 Bft) 98,00 %
27.09.2018 16:26 20,9 C 15,0 C 17,8 C 33 % 1026,7 hPa 0,0 l/m 6,0 km/h (2 Bft) O 91 2 min 0,000 mm 1,1 UV-I 323 W/m 4,0 C 20,9 C 8,0 km/h (2 Bft) 100,00 %
27.09.2018 16:28 20,8 C 15,0 C 17,8 C 35 % 1026,7 hPa 0,0 l/m 4,6 km/h (1 Bft) NO 56 2 min 0,000 mm 1,0 UV-I 319 W/m 4,8 C 20,8 C 6,4 km/h (2 Bft) 100,00 %
27.09.2018 16:30 20,7 C 15,0 C 17,8 C 36 % 1026,7 hPa 0,0 l/m 3,3 km/h (1 Bft) NO 56 2 min 0,000 mm 1,0 UV-I 313 W/m 5,1 C 20,7 C 4,8 km/h (1 Bft) 97,87 %
27.09.2018 16:32 20,7 C 15,0 C 17,8 C 35 % 1026,7 hPa 0,0 l/m 1,7 km/h (1 Bft) NO 55 2 min 0,000 mm 1,0 UV-I 309 W/m 4,7 C 20,7 C 3,2 km/h (1 Bft) 100,00 %
27.09.2018 16:34 20,7 C 15,0 C 17,2 C 34 % 1026,6 hPa 0,0 l/m 0,5 km/h (0 Bft) NO 55 2 min 0,000 mm 1,0 UV-I 304 W/m 4,3 C 20,7 C 3,2 km/h (1 Bft) 100,00 %
27.09.2018 16:36 21,0 C 15,0 C 17,2 C 34 % 1026,6 hPa 0,0 l/m 1,8 km/h (1 Bft) O-NO 62 2 min 0,000 mm 0,9 UV-I 300 W/m 4,5 C 21,0 C 4,8 km/h (1 Bft) 98,00 %
27.09.2018 16:38 20,9 C 15,0 C 17,2 C 36 % 1026,5 hPa 0,0 l/m 4,8 km/h (1 Bft) NO 40 2 min 0,000 mm 0,9 UV-I 295 W/m 5,3 C 20,9 C 8,0 km/h (2 Bft) 100,00 %
27.09.2018 16:40 20,9 C 15,0 C 17,8 C 38 % 1026,5 hPa 0,0 l/m 6,1 km/h (2 Bft) NO 44 2 min 0,000 mm 0,9 UV-I 290 W/m 6,0 C 20,9 C 8,0 km/h (2 Bft) 100,00 %
27.09.2018 16:42 20,8 C 15,0 C 17,8 C 38 % 1026,5 hPa 0,0 l/m 5,2 km/h (1 Bft) NO 44 2 min 0,000 mm 0,8 UV-I 286 W/m 6,0 C 20,8 C 6,4 km/h (2 Bft) 100,00 %
27.09.2018 16:44 20,8 C 15,0 C 17,8 C 36 % 1026,5 hPa 0,0 l/m 2,6 km/h (1 Bft) O 96 2 min 0,000 mm 0,8 UV-I 281 W/m 5,2 C 20,8 C 6,4 km/h (2 Bft) 97,87 %
27.09.2018 16:46 20,7 C 15,0 C 17,2 C 36 % 1026,5 hPa 0,0 l/m 5,9 km/h (2 Bft) O-NO 63 2 min 0,000 mm 0,8 UV-I 274 W/m 5,1 C 20,7 C 9,7 km/h (2 Bft) 95,74 %
27.09.2018 16:48 20,7 C 15,0 C 17,2 C 35 % 1026,4 hPa 0,0 l/m 5,2 km/h (1 Bft) O-NO 71 2 min 0,000 mm 0,8 UV-I 269 W/m 4,7 C 20,7 C 8,0 km/h (2 Bft) 96,00 %
27.09.2018 16:50 20,7 C 15,0 C 17,2 C 37 % 1026,4 hPa 0,0 l/m 5,6 km/h (1 Bft) NO 42 2 min 0,000 mm 0,7 UV-I 263 W/m 5,5 C 20,7 C 6,4 km/h (2 Bft) 97,87 %
27.09.2018 16:52 20,7 C 15,0 C 17,2 C 35 % 1026,4 hPa 0,0 l/m 5,6 km/h (1 Bft) O-NO 65 2 min 0,000 mm 0,7 UV-I 257 W/m 4,7 C 20,7 C 6,4 km/h (2 Bft) 97,87 %
27.09.2018 16:54 20,6 C 15,0 C 17,2 C 35 % 1026,4 hPa 0,0 l/m 4,7 km/h (1 Bft) NO 50 2 min 0,000 mm 0,7 UV-I 252 W/m 4,6 C 20,6 C 6,4 km/h (2 Bft) 100,00 %
27.09.2018 16:56 20,6 C 15,0 C 17,2 C 35 % 1026,3 hPa 0,0 l/m 4,0 km/h (1 Bft) NO 44 2 min 0,000 mm 0,7 UV-I 249 W/m 4,6 C 20,6 C 4,8 km/h (1 Bft) 100,00 %
27.09.2018 16:58 20,7 C 15,0 C 16,7 C 35 % 1026,3 hPa 0,0 l/m 5,0 km/h (1 Bft) NO 44 2 min 0,000 mm 0,7 UV-I 243 W/m 4,7 C 20,7 C 8,0 km/h (2 Bft) 100,00 %
27.09.2018 17:00 20,6 C 15,0 C 16,7 C 33 % 1026,3 hPa 0,0 l/m 4,3 km/h (1 Bft) NO 35 2 min 0,229 mm 0,6 UV-I 239 W/m 3,8 C 20,6 C 6,4 km/h (2 Bft) 100,00 %
27.09.2018 17:02 20,6 C 15,0 C 16,7 C 36 % 1026,3 hPa 0,0 l/m 4,6 km/h (1 Bft) O-NO 62 2 min 0,000 mm 0,6 UV-I 234 W/m 5,0 C 20,6 C 6,4 km/h (2 Bft) 100,00 %
27.09.2018 17:04 20,6 C 15,0 C 16,7 C 33 % 1026,3 hPa 0,0 l/m 4,6 km/h (1 Bft) NO 36 2 min 0,000 mm 0,6 UV-I 229 W/m 3,8 C 20,6 C 6,4 km/h (2 Bft) 100,00 %
27.09.2018 17:06 20,6 C 15,0 C 16,7 C 34 % 1026,2 hPa 0,0 l/m 5,1 km/h (1 Bft) NO 41 2 min 0,000 mm 0,6 UV-I 225 W/m 4,2 C 20,6 C 6,4 km/h (2 Bft) 100,00 %
27.09.2018 17:08 20,6 C 15,0 C 16,7 C 33 % 1026,2 hPa 0,0 l/m 5,4 km/h (1 Bft) NO 45 2 min 0,000 mm 0,5 UV-I 220 W/m 3,8 C 20,6 C 6,4 km/h (2 Bft) 100,00 %
27.09.2018 17:10 20,5 C 15,0 C 16,7 C 36 % 1026,2 hPa 0,0 l/m 5,1 km/h (1 Bft) O-NO 57 2 min 0,000 mm 0,5 UV-I 215 W/m 4,9 C 20,5 C 6,4 km/h (2 Bft) 97,87 %
27.09.2018 17:12 20,4 C 15,0 C 16,7 C 35 % 1026,1 hPa 0,0 l/m 4,3 km/h (1 Bft) NO 44 2 min 0,000 mm 0,5 UV-I 209 W/m 4,4 C 20,4 C 8,0 km/h (2 Bft) 96,00 %
27.09.2018 17:14 20,3 C 15,0 C 16,7 C 35 % 1026,1 hPa 0,0 l/m 4,8 km/h (1 Bft) O-NO 70 2 min 0,000 mm 0,5 UV-I 205 W/m 4,3 C 20,3 C 8,0 km/h (2 Bft) 97,87 %
27.09.2018 17:16 20,3 C 15,0 C 16,1 C 30 % 1026,1 hPa 0,0 l/m 2,6 km/h (1 Bft) O 82 2 min 0,000 mm 0,5 UV-I 200 W/m 2,2 C 20,3 C 4,8 km/h (1 Bft) 100,00 %
27.09.2018 17:18 20,3 C 15,0 C 16,1 C 34 % 1026,1 hPa 0,0 l/m 3,4 km/h (1 Bft) O-NO 77 2 min 0,000 mm 0,4 UV-I 194 W/m 3,9 C 20,3 C 4,8 km/h (1 Bft) 100,00 %
27.09.2018 17:20 20,3 C 15,0 C 15,6 C 30 % 1026,0 hPa 0,0 l/m 4,3 km/h (1 Bft) O-NO 71 2 min 0,000 mm 0,0 UV-I 189 W/m 2,2 C 20,3 C 6,4 km/h (2 Bft) 94,00 %
27.09.2018 17:22 20,3 C 15,0 C 16,1 C 32 % 1026,0 hPa 0,0 l/m 4,4 km/h (1 Bft) O-NO 70 2 min 0,000 mm 0,0 UV-I 184 W/m 3,1 C 20,3 C 6,4 km/h (2 Bft) 100,00 %
27.09.2018 17:24 20,2 C 15,0 C 15,6 C 32 % 1026,0 hPa 0,0 l/m 3,5 km/h (1 Bft) O-NO 70 2 min 0,000 mm 0,0 UV-I 179 W/m 3,0 C 20,2 C 4,8 km/h (1 Bft) 98,00 %
27.09.2018 17:26 20,1 C 15,0 C 15,0 C 32 % 1025,9 hPa 0,0 l/m 2,8 km/h (1 Bft) O-NO 76 2 min 0,000 mm 0,0 UV-I 173 W/m 2,9 C 20,1 C 4,8 km/h (1 Bft) 95,74 %
27.09.2018 17:28 20,1 C 15,0 C 15,0 C 29 % 1025,9 hPa 0,0 l/m 3,2 km/h (1 Bft) O 82 2 min 0,000 mm 0,0 UV-I 170 W/m 1,5 C 20,1 C 4,8 km/h (1 Bft) 98,11 %
27.09.2018 17:30 20,1 C 15,0 C 14,4 C 29 % 1025,9 hPa 0,0 l/m 2,4 km/h (1 Bft) O 82 2 min 0,000 mm 0,0 UV-I 165 W/m 1,5 C 20,1 C 3,2 km/h (1 Bft) 95,74 %
27.09.2018 17:32 19,9 C 15,0 C 14,4 C 32 % 1025,9 hPa 0,0 l/m 2,6 km/h (1 Bft) O 82 2 min 0,000 mm 0,0 UV-I 160 W/m 2,7 C 19,9 C 3,2 km/h (1 Bft) 94,74 %
27.09.2018 17:34 19,9 C 15,0 C 14,4 C 30 % 1025,8 hPa 0,0 l/m 3,3 km/h (1 Bft) O 82 2 min 0,000 mm 0,0 UV-I 155 W/m 1,8 C 19,9 C 4,8 km/h (1 Bft) 93,62 %
27.09.2018 17:36 19,8 C 15,0 C 14,4 C 31 % 1025,8 hPa 0,0 l/m 3,4 km/h (1 Bft) O 81 2 min 0,000 mm 0,0 UV-I 149 W/m 2,2 C 19,8 C 4,8 km/h (1 Bft) 95,74 %
27.09.2018 17:38 19,8 C 15,0 C 13,9 C 32 % 1025,7 hPa 0,0 l/m 3,1 km/h (1 Bft) O 83 2 min 0,000 mm 0,0 UV-I 145 W/m 2,6 C 19,8 C 4,8 km/h (1 Bft) 94,34 %
27.09.2018 17:40 19,8 C 15,0 C 13,9 C 32 % 1025,7 hPa 0,0 l/m 4,0 km/h (1 Bft) O 90 2 min 0,000 mm 0,0 UV-I 141 W/m 2,6 C 19,8 C 4,8 km/h (1 Bft) 91,49 %
27.09.2018 17:42 19,8 C 15,0 C 13,9 C 33 % 1025,7 hPa 0,0 l/m 3,3 km/h (1 Bft) O 90 2 min 0,000 mm 0,0 UV-I 136 W/m 3,1 C 19,8 C 6,4 km/h (2 Bft) 95,74 %
27.09.2018 17:44 19,8 C 15,0 C 13,9 C 34 % 1025,7 hPa 0,0 l/m 3,3 km/h (1 Bft) O 90 2 min 0,000 mm 0,0 UV-I 131 W/m 3,5 C 19,8 C 4,8 km/h (1 Bft) 95,83 %
27.09.2018 17:46 19,8 C 15,0 C 13,9 C 34 % 1025,6 hPa 0,0 l/m 3,0 km/h (1 Bft) O 82 2 min 0,000 mm 0,0 UV-I 127 W/m 3,5 C 19,8 C 4,8 km/h (1 Bft) 95,74 %
27.09.2018 17:48 19,7 C 15,0 C 13,9 C 35 % 1025,6 hPa 0,0 l/m 3,8 km/h (1 Bft) O 83 2 min 0,000 mm 0,0 UV-I 123 W/m 3,8 C 19,7 C 4,8 km/h (1 Bft) 93,62 %
27.09.2018 17:50 19,6 C 15,0 C 13,9 C 37 % 1025,5 hPa 0,0 l/m 3,0 km/h (1 Bft) O 83 2 min 0,000 mm 0,0 UV-I 119 W/m 4,5 C 19,6 C 4,8 km/h (1 Bft) 97,87 %
27.09.2018 17:52 19,6 C 15,0 C 13,9 C 36 % 1025,5 hPa 0,0 l/m 2,8 km/h (1 Bft) O 83 2 min 0,000 mm 0,0 UV-I 114 W/m 4,1 C 19,6 C 4,8 km/h (1 Bft) 89,36 %
27.09.2018 17:54 19,6 C 15,0 C 13,9 C 35 % 1025,5 hPa 0,0 l/m 3,4 km/h (1 Bft) O-NO 71 2 min 0,000 mm 0,0 UV-I 110 W/m 3,7 C 19,6 C 4,8 km/h (1 Bft) 95,74 %
27.09.2018 17:56 19,6 C 15,0 C 13,3 C 36 % 1025,5 hPa 0,0 l/m 2,4 km/h (1 Bft) O-NO 71 2 min 0,000 mm 0,0 UV-I 105 W/m 4,1 C 19,6 C 3,2 km/h (1 Bft) 97,87 %
27.09.2018 17:58 19,5 C 15,0 C 13,3 C 37 % 1025,5 hPa 0,0 l/m 2,7 km/h (1 Bft) O 84 2 min 0,000 mm 0,0 UV-I 101 W/m 4,4 C 19,5 C 4,8 km/h (1 Bft) 95,74 %
27.09.2018 18:00 19,4 C 15,0 C 13,3 C 38 % 1025,5 hPa 0,0 l/m 2,8 km/h (1 Bft) O 83 2 min 0,127 mm 0,0 UV-I 96 W/m 4,7 C 19,4 C 4,8 km/h (1 Bft) 95,74 %
27.09.2018 18:02 19,3 C 15,0 C 13,3 C 39 % 1025,5 hPa 0,0 l/m 3,1 km/h (1 Bft) O 82 2 min 0,000 mm 0,0 UV-I 92 W/m 5,0 C 19,3 C 4,8 km/h (1 Bft) 95,74 %
27.09.2018 18:04 19,2 C 15,0 C 13,3 C 38 % 1025,4 hPa 0,0 l/m 2,9 km/h (1 Bft) O 82 2 min 0,000 mm 0,0 UV-I 90 W/m 4,5 C 19,2 C 4,8 km/h (1 Bft) 97,14 %
27.09.2018 18:06 19,1 C 15,0 C 13,3 C 39 % 1025,4 hPa 0,0 l/m 2,2 km/h (1 Bft) O 82 2 min 0,000 mm 0,0 UV-I 86 W/m 4,8 C 19,1 C 3,2 km/h (1 Bft) 98,00 %
27.09.2018 18:08 19,2 C 15,0 C 12,8 C 39 % 1025,4 hPa 0,0 l/m 1,2 km/h (1 Bft) O 82 2 min 0,000 mm 0,0 UV-I 82 W/m 4,9 C 19,2 C 1,6 km/h (1 Bft) 98,00 %
27.09.2018 18:10 19,2 C 15,0 C 12,8 C 39 % 1025,5 hPa 0,0 l/m 0,6 km/h (0 Bft) O 82 2 min 0,000 mm 0,0 UV-I 77 W/m 4,9 C 19,2 C 1,6 km/h (1 Bft) 100,00 %
27.09.2018 18:12 19,2 C 15,0 C 12,8 C 40 % 1025,4 hPa 0,0 l/m 0,6 km/h (0 Bft) O 82 2 min 0,000 mm 0,0 UV-I 74 W/m 5,3 C 19,2 C 1,6 km/h (1 Bft) 100,00 %
27.09.2018 18:14 19,1 C 15,0 C 12,2 C 42 % 1025,4 hPa 0,0 l/m 1,5 km/h (1 Bft) O 82 2 min 0,000 mm 0,0 UV-I 70 W/m 5,9 C 19,1 C 1,6 km/h (1 Bft) 97,37 %
27.09.2018 18:16 18,8 C 15,0 C 12,2 C 44 % 1025,4 hPa 0,0 l/m 1,3 km/h (1 Bft) O 82 2 min 0,000 mm 0,0 UV-I 67 W/m 6,3 C 18,8 C 3,2 km/h (1 Bft) 100,00 %
27.09.2018 18:18 18,7 C 15,0 C 12,2 C 46 % 1025,3 hPa 0,0 l/m 1,8 km/h (1 Bft) O 82 2 min 0,000 mm 0,0 UV-I 63 W/m 6,8 C 18,7 C 3,2 km/h (1 Bft) 100,00 %
27.09.2018 18:20 18,4 C 15,0 C 11,7 C 47 % 1025,3 hPa 0,0 l/m 1,7 km/h (1 Bft) O 82 2 min 0,000 mm 0,0 UV-I 61 W/m 6,9 C 18,4 C 3,2 km/h (1 Bft) 98,00 %
27.09.2018 18:22 18,3 C 15,0 C 11,7 C 47 % 1025,3 hPa 0,0 l/m 2,1 km/h (1 Bft) O 82 2 min 0,000 mm 0,0 UV-I 56 W/m 6,8 C 18,3 C 3,2 km/h (1 Bft) 100,00 %
27.09.2018 18:24 18,2 C 15,0 C 11,7 C 46 % 1025,3 hPa 0,0 l/m 1,7 km/h (1 Bft) O 82 2 min 0,000 mm 0,0 UV-I 54 W/m 6,4 C 18,2 C 3,2 km/h (1 Bft) 100,00 %
27.09.2018 18:26 18,1 C 15,0 C 11,1 C 45 % 1025,2 hPa 0,0 l/m 1,3 km/h (1 Bft) O 82 2 min 0,000 mm 0,0 UV-I 50 W/m 6,0 C 18,1 C 1,6 km/h (1 Bft) 100,00 %
27.09.2018 18:28 18,1 C 15,0 C 11,1 C 49 % 1025,2 hPa 0,0 l/m 1,3 km/h (1 Bft) O 82 2 min 0,000 mm 0,0 UV-I 47 W/m 7,2 C 18,1 C 3,2 km/h (1 Bft) 100,00 %
27.09.2018 18:30 17,8 C 15,0 C 11,1 C 51 % 1025,1 hPa 0,0 l/m 1,1 km/h (1 Bft) O 82 2 min 0,000 mm 0,0 UV-I 43 W/m 7,5 C 17,8 C 1,6 km/h (1 Bft) 100,00 %
27.09.2018 18:32 17,3 C 15,0 C 11,1 C 53 % 1025,0 hPa 0,0 l/m 0,9 km/h (0 Bft) O 82 2 min 0,000 mm 0,0 UV-I 39 W/m 7,6 C 17,3 C 1,6 km/h (1 Bft) 100,00 %
27.09.2018 18:34 16,8 C 15,0 C 11,1 C 55 % 1025,1 hPa 0,0 l/m 1,4 km/h (1 Bft) O 82 2 min 0,000 mm 0,0 UV-I 35 W/m 7,7 C 16,8 C 1,6 km/h (1 Bft) 100,00 %
27.09.2018 18:36 16,6 C 15,0 C 11,1 C 56 % 1025,1 hPa 0,0 l/m 0,8 km/h (0 Bft) O 82 2 min 0,000 mm 0,0 UV-I 33 W/m 7,8 C 16,6 C 1,6 km/h (1 Bft) 100,00 %
27.09.2018 18:38 16,4 C 15,0 C 11,1 C 57 % 1025,0 hPa 0,0 l/m 0,9 km/h (0 Bft) O 82 2 min 0,000 mm 0,0 UV-I 29 W/m 7,9 C 16,4 C 1,6 km/h (1 Bft) 100,00 %
27.09.2018 18:40 16,2 C 15,0 C 10,6 C 56 % 1024,9 hPa 0,0 l/m 0,8 km/h (0 Bft) O 82 2 min 0,000 mm 0,0 UV-I 26 W/m 7,4 C 16,2 C 1,6 km/h (1 Bft) 93,62 %
27.09.2018 18:42 15,9 C 15,0 C 11,1 C 57 % 1024,9 hPa 0,0 l/m 0,4 km/h (0 Bft) O 82 0 min 0,000 mm 0,0 UV-I 13 W/m 7,4 C 15,9 C 1,6 km/h (1 Bft) 100,00 %
27.09.2018 18:44 15,5 C 15,6 C 10,6 C 59 % 1024,9 hPa 0,0 l/m 1,0 km/h (0 Bft) O 82 0 min 0,000 mm 0,0 UV-I 19 W/m 7,5 C 15,5 C 1,6 km/h (1 Bft) 97,87 %
27.09.2018 18:46 15,2 C 15,6 C 10,6 C 60 % 1024,9 hPa 0,0 l/m 1,6 km/h (1 Bft) O 82 0 min 0,000 mm 0,0 UV-I 13 W/m 7,5 C 15,2 C 3,2 km/h (1 Bft) 100,00 %
27.09.2018 18:48 15,1 C 15,6 C 10,0 C 61 % 1024,9 hPa 0,0 l/m 2,3 km/h (1 Bft) O 82 0 min 0,000 mm 0,0 UV-I 11 W/m 7,6 C 15,1 C 3,2 km/h (1 Bft) 100,00 %
27.09.2018 18:50 15,1 C 15,6 C 10,0 C 60 % 1024,9 hPa 0,0 l/m 2,6 km/h (1 Bft) O 81 0 min 0,000 mm 0,0 UV-I 11 W/m 7,4 C 15,1 C 3,2 km/h (1 Bft) 100,00 %
27.09.2018 18:52 15,4 C 15,6 C 10,0 C 57 % 1024,8 hPa 0,0 l/m 2,7 km/h (1 Bft) O 81 0 min 0,000 mm 0,0 UV-I 9 W/m 6,9 C 15,4 C 3,2 km/h (1 Bft) 97,22 %
27.09.2018 18:54 15,7 C 15,6 C 10,0 C 56 % 1024,8 hPa 0,0 l/m 3,2 km/h (1 Bft) O 81 0 min 0,000 mm 0,0 UV-I 9 W/m 6,9 C 15,7 C 4,8 km/h (1 Bft) 98,00 %
27.09.2018 18:56 15,9 C 15,6 C 9,4 C 55 % 1024,8 hPa 0,0 l/m 2,7 km/h (1 Bft) O 81 0 min 0,000 mm 0,0 UV-I 8 W/m 6,9 C 15,9 C 3,2 km/h (1 Bft) 97,87 %
27.09.2018 18:58 16,2 C 15,6 C 9,4 C 53 % 1024,7 hPa 0,0 l/m 2,5 km/h (1 Bft) O 81 0 min 0,000 mm 0,0 UV-I 7 W/m 6,6 C 16,2 C 3,2 km/h (1 Bft) 97,87 %
27.09.2018 19:00 16,3 C 15,6 C 9,4 C 53 % 1024,7 hPa 0,0 l/m 2,2 km/h (1 Bft) O 81 0 min 0,051 mm 0,0 UV-I 7 W/m 6,7 C 16,3 C 3,2 km/h (1 Bft) 97,87 %
27.09.2018 19:02 16,3 C 15,6 C 9,4 C 53 % 1024,6 hPa 0,0 l/m 1,7 km/h (1 Bft) O 81 0 min 0,000 mm 0,0 UV-I 5 W/m 6,7 C 16,3 C 3,2 km/h (1 Bft) 97,87 %
27.09.2018 19:04 16,2 C 15,6 C 9,4 C 53 % 1024,6 hPa 0,0 l/m 1,5 km/h (1 Bft) O 81 0 min 0,000 mm 0,0 UV-I 5 W/m 6,6 C 16,2 C 1,6 km/h (1 Bft) 96,00 %
27.09.2018 19:06 16,1 C 15,6 C 9,4 C 54 % 1024,6 hPa 0,0 l/m 1,3 km/h (1 Bft) O 81 0 min 0,000 mm 0,0 UV-I 5 W/m 6,8 C 16,1 C 1,6 km/h (1 Bft) 97,87 %
27.09.2018 19:08 16,0 C 15,6 C 8,9 C 54 % 1024,6 hPa 0,0 l/m 1,5 km/h (1 Bft) O 81 0 min 0,000 mm 0,0 UV-I 5 W/m 6,7 C 16,0 C 3,2 km/h (1 Bft) 95,74 %
27.09.2018 19:10 15,7 C 15,6 C 8,9 C 55 % 1024,6 hPa 0,0 l/m 1,3 km/h (1 Bft) O 81 0 min 0,000 mm 0,0 UV-I 1 W/m 6,7 C 15,7 C 1,6 km/h (1 Bft) 97,87 %
27.09.2018 19:12 15,1 C 15,6 C 8,9 C 57 % 1024,5 hPa 0,0 l/m 1,7 km/h (1 Bft) O 81 0 min 0,000 mm 0,0 UV-I 0 W/m 6,6 C 15,1 C 3,2 km/h (1 Bft) 97,87 %
27.09.2018 19:14 14,7 C 15,6 C 8,9 C 57 % 1024,4 hPa 0,0 l/m 2,2 km/h (1 Bft) O 81 0 min 0,000 mm 0,0 UV-I 0 W/m 6,3 C 14,7 C 3,2 km/h (1 Bft) 97,87 %
27.09.2018 19:16 14,6 C 15,0 C 8,9 C 58 % 1024,4 hPa 0,0 l/m 2,7 km/h (1 Bft) O 81 0 min 0,000 mm 0,0 UV-I 0 W/m 6,4 C 14,6 C 3,2 km/h (1 Bft) 97,87 %
27.09.2018 19:18 14,7 C 15,6 C 8,9 C 57 % 1024,4 hPa 0,0 l/m 3,2 km/h (1 Bft) O 81 0 min 0,000 mm 0,0 UV-I 0 W/m 6,3 C 14,7 C 4,8 km/h (1 Bft) 97,87 %
27.09.2018 19:20 15,2 C 15,6 C 8,3 C 53 % 1024,5 hPa 0,0 l/m 3,1 km/h (1 Bft) O 81 0 min 0,000 mm 0,0 UV-I 0 W/m 5,7 C 15,2 C 4,8 km/h (1 Bft) 95,74 %
27.09.2018 19:22 15,7 C 15,6 C 8,3 C 51 % 1024,5 hPa 0,0 l/m 2,2 km/h (1 Bft) O 81 0 min 0,000 mm 0,0 UV-I 0 W/m 5,6 C 15,7 C 4,8 km/h (1 Bft) 100,00 %
27.09.2018 19:24 16,0 C 15,6 C 8,3 C 50 % 1024,4 hPa 0,0 l/m 2,4 km/h (1 Bft) O 81 0 min 0,000 mm 0,0 UV-I 0 W/m 5,6 C 16,0 C 3,2 km/h (1 Bft) 97,87 %
27.09.2018 19:26 16,0 C 15,6 C 8,3 C 50 % 1024,4 hPa 0,0 l/m 1,6 km/h (1 Bft) O 81 0 min 0,000 mm 0,0 UV-I 0 W/m 5,6 C 16,0 C 3,2 km/h (1 Bft) 97,87 %
27.09.2018 19:28 15,9 C 15,6 C 8,3 C 50 % 1024,4 hPa 0,0 l/m 1,0 km/h (0 Bft) O 81 0 min 0,000 mm 0,0 UV-I 0 W/m 5,5 C 15,9 C 1,6 km/h (1 Bft) 100,00 %
27.09.2018 19:30 15,7 C 15,6 C 8,3 C 53 % 1024,3 hPa 0,0 l/m 1,3 km/h (1 Bft) O 81 0 min 0,000 mm 0,0 UV-I 0 W/m 6,1 C 15,7 C 1,6 km/h (1 Bft) 96,00 %
27.09.2018 19:32 15,3 C 15,6 C 8,3 C 54 % 1024,3 hPa 0,0 l/m 1,2 km/h (1 Bft) O 81 0 min 0,000 mm 0,0 UV-I 0 W/m 6,0 C 15,3 C 1,6 km/h (1 Bft) 100,00 %
27.09.2018 19:34 14,9 C 15,6 C 8,3 C 57 % 1024,3 hPa 0,0 l/m 1,4 km/h (1 Bft) O 81 0 min 0,000 mm 0,0 UV-I 0 W/m 6,5 C 14,9 C 1,6 km/h (1 Bft) 100,00 %
27.09.2018 19:36 14,7 C 15,6 C 8,3 C 58 % 1024,3 hPa 0,0 l/m 1,8 km/h (1 Bft) O 81 0 min 0,000 mm 0,0 UV-I 0 W/m 6,5 C 14,7 C 3,2 km/h (1 Bft) 95,74 %
27.09.2018 19:38 14,3 C 15,6 C 8,3 C 59 % 1024,3 hPa 0,0 l/m 2,1 km/h (1 Bft) O 81 0 min 0,000 mm 0,0 UV-I 0 W/m 6,4 C 14,3 C 3,2 km/h (1 Bft) 95,74 %
27.09.2018 19:40 13,8 C 15,6 C 8,3 C 61 % 1024,3 hPa 0,0 l/m 1,9 km/h (1 Bft) O 81 0 min 0,000 mm 0,0 UV-I 0 W/m 6,4 C 13,8 C 3,2 km/h (1 Bft) 95,74 %
27.09.2018 19:42 13,4 C 15,6 C 8,3 C 62 % 1024,3 hPa 0,0 l/m 0,9 km/h (0 Bft) O 81 0 min 0,000 mm 0,0 UV-I 0 W/m 6,3 C 13,4 C 3,2 km/h (1 Bft) 98,00 %
27.09.2018 19:44 13,2 C 15,6 C 8,3 C 61 % 1024,3 hPa 0,0 l/m 0,5 km/h (0 Bft) O 81 0 min 0,000 mm 0,0 UV-I 0 W/m 5,8 C 13,2 C 1,6 km/h (1 Bft) 95,74 %
27.09.2018 19:46 13,2 C 15,6 C 8,3 C 63 % 1024,3 hPa 0,0 l/m 0,2 km/h (0 Bft) O 81 0 min 0,000 mm 0,0 UV-I 0 W/m 6,3 C 13,2 C 1,6 km/h (1 Bft) 97,87 %
27.09.2018 19:48 13,2 C 15,6 C 8,3 C 63 % 1024,3 hPa 0,0 l/m 0,0 km/h (0 Bft) O 81 0 min 0,000 mm 0,0 UV-I 0 W/m 6,3 C 13,2 C 0,0 km/h (0 Bft) 97,87 %
27.09.2018 19:50 13,2 C 15,6 C 7,8 C 62 % 1024,3 hPa 0,0 l/m 0,0 km/h (0 Bft) O 81 0 min 0,000 mm 0,0 UV-I 0 W/m 6,1 C 13,2 C 0,0 km/h (0 Bft) 93,62 %
27.09.2018 19:52 13,2 C 15,6 C 7,8 C 63 % 1024,3 hPa 0,0 l/m 0,0 km/h (0 Bft) O 81 0 min 0,000 mm 0,0 UV-I 0 W/m 6,3 C 13,2 C 0,0 km/h (0 Bft) 98,00 %
27.09.2018 19:54 13,3 C 15,6 C 7,8 C 61 % 1024,3 hPa 0,0 l/m 0,0 km/h (0 Bft) O 81 0 min 0,000 mm 0,0 UV-I 0 W/m 5,9 C 13,3 C 0,0 km/h (0 Bft) 91,49 %
27.09.2018 19:56 13,1 C 15,6 C 7,8 C 62 % 1024,3 hPa 0,0 l/m 0,0 km/h (0 Bft) O 81 0 min 0,000 mm 0,0 UV-I 0 W/m 6,0 C 13,1 C 0,0 km/h (0 Bft) 95,74 %
27.09.2018 19:58 12,9 C 15,6 C 7,8 C 64 % 1024,3 hPa 0,0 l/m 0,0 km/h (0 Bft) O 81 0 min 0,000 mm 0,0 UV-I 0 W/m 6,3 C 12,9 C 0,0 km/h (0 Bft) 92,11 %
27.09.2018 20:00 12,7 C 15,6 C 7,8 C 63 % 1024,3 hPa 0,0 l/m 0,0 km/h (0 Bft) O 81 0 min 0,000 mm 0,0 UV-I 0 W/m 5,8 C 12,7 C 0,0 km/h (0 Bft) 95,74 %
27.09.2018 20:02 12,6 C 15,6 C 7,8 C 66 % 1024,2 hPa 0,0 l/m 0,0 km/h (0 Bft) O 81 0 min 0,025 mm 0,0 UV-I 0 W/m 6,4 C 12,6 C 0,0 km/h (0 Bft) 91,49 %
27.09.2018 20:04 12,5 C 15,6 C 7,8 C 66 % 1024,2 hPa 0,0 l/m 0,0 km/h (0 Bft) O 81 0 min 0,000 mm 0,0 UV-I 0 W/m 6,3 C 12,5 C 0,0 km/h (0 Bft) 95,74 %
27.09.2018 20:06 12,4 C 15,6 C 7,8 C 67 % 1024,3 hPa 0,0 l/m 0,0 km/h (0 Bft) O 81 0 min 0,000 mm 0,0 UV-I 0 W/m 6,4 C 12,4 C 0,0 km/h (0 Bft) 94,00 %
27.09.2018 20:08 12,4 C 15,6 C 7,8 C 67 % 1024,2 hPa 0,0 l/m 0,0 km/h (0 Bft) O 81 0 min 0,000 mm 0,0 UV-I 0 W/m 6,4 C 12,4 C 0,0 km/h (0 Bft) 95,74 %
27.09.2018 20:10 12,6 C 15,6 C 7,8 C 68 % 1024,2 hPa 0,0 l/m 0,0 km/h (0 Bft) O 81 0 min 0,000 mm 0,0 UV-I 0 W/m 6,9 C 12,6 C 0,0 km/h (0 Bft) 97,92 %
27.09.2018 20:12 12,7 C 15,6 C 7,8 C 67 % 1024,3 hPa 0,0 l/m 0,0 km/h (0 Bft) O 81 0 min 0,000 mm 0,0 UV-I 0 W/m 6,7 C 12,7 C 0,0 km/h (0 Bft) 89,36 %
27.09.2018 20:14 12,8 C 15,6 C 7,8 C 67 % 1024,3 hPa 0,0 l/m 0,7 km/h (0 Bft) O 81 0 min 0,000 mm 0,0 UV-I 0 W/m 6,8 C 12,8 C 1,6 km/h (1 Bft) 94,00 %
27.09.2018 20:16 12,8 C 15,6 C 7,8 C 66 % 1024,3 hPa 0,0 l/m 0,7 km/h (0 Bft) O 81 0 min 0,000 mm 0,0 UV-I 0 W/m 6,6 C 12,8 C 1,6 km/h (1 Bft) 91,49 %
27.09.2018 20:18 12,6 C 15,6 C 7,8 C 67 % 1024,3 hPa 0,0 l/m 0,1 km/h (0 Bft) O 81 0 min 0,000 mm 0,0 UV-I 0 W/m 6,6 C 12,6 C 1,6 km/h (1 Bft) 92,11 %
27.09.2018 20:20 12,3 C 15,6 C 7,8 C 68 % 1024,3 hPa 0,0 l/m 0,0 km/h (0 Bft) O 81 0 min 0,000 mm 0,0 UV-I 0 W/m 6,6 C 12,3 C 0,0 km/h (0 Bft) 94,00 %
27.09.2018 20:22 12,1 C 15,6 C 7,8 C 67 % 1024,3 hPa 0,0 l/m 0,0 km/h (0 Bft) O 81 0 min 0,000 mm 0,0 UV-I 0 W/m 6,2 C 12,1 C 0,0 km/h (0 Bft) 94,00 %
27.09.2018 20:24 11,9 C 15,6 C 7,8 C 67 % 1024,3 hPa 0,0 l/m 0,2 km/h (0 Bft) O 81 0 min 0,000 mm 0,0 UV-I 0 W/m 6,0 C 11,9 C 1,6 km/h (1 Bft) 91,49 %
27.09.2018 20:26 11,9 C 15,6 C 7,8 C 67 % 1024,2 hPa 0,0 l/m 2,0 km/h (1 Bft) O 81 0 min 0,000 mm 0,0 UV-I 0 W/m 6,0 C 11,9 C 3,2 km/h (1 Bft) 93,62 %
27.09.2018 20:29 11,9 C 15,6 C 7,8 C 68 % 1024,2 hPa 0,0 l/m 2,3 km/h (1 Bft) O 81 0 min 0,000 mm 0,0 UV-I 0 W/m 6,2 C 11,9 C 3,2 km/h (1 Bft) 90,00 %
27.09.2018 20:30 11,9 C 15,6 C 8,3 C 68 % 1024,2 hPa 0,0 l/m 1,9 km/h (1 Bft) O 81 0 min 0,000 mm 0,0 UV-I 0 W/m 6,2 C 11,9 C 3,2 km/h (1 Bft) 95,83 %
27.09.2018 20:32 11,9 C 15,6 C 8,3 C 67 % 1024,2 hPa 0,0 l/m 2,2 km/h (1 Bft) O 81 0 min 0,000 mm 0,0 UV-I 0 W/m 6,0 C 11,9 C 3,2 km/h (1 Bft) 92,00 %
27.09.2018 20:34 12,1 C 15,6 C 8,3 C 67 % 1024,2 hPa 0,0 l/m 2,5 km/h (1 Bft) O 81 0 min 0,000 mm 0,0 UV-I 0 W/m 6,2 C 12,1 C 3,2 km/h (1 Bft) 95,74 %
27.09.2018 20:36 12,0 C 15,6 C 8,3 C 67 % 1024,2 hPa 0,0 l/m 2,3 km/h (1 Bft) O 81 0 min 0,000 mm 0,0 UV-I 0 W/m 6,1 C 12,0 C 3,2 km/h (1 Bft) 100,00 %
27.09.2018 20:38 11,9 C 15,6 C 8,3 C 67 % 1024,2 hPa 0,0 l/m 2,1 km/h (1 Bft) O 81 0 min 0,000 mm 0,0 UV-I 0 W/m 6,0 C 11,9 C 3,2 km/h (1 Bft) 92,00 %
27.09.2018 20:40 11,8 C 15,6 C 7,8 C 67 % 1024,2 hPa 0,0 l/m 1,2 km/h (1 Bft) O 81 0 min 0,000 mm 0,0 UV-I 0 W/m 5,9 C 11,8 C 1,6 km/h (1 Bft) 95,74 %
27.09.2018 20:42 11,8 C 15,6 C 7,8 C 68 % 1024,2 hPa 0,0 l/m 1,4 km/h (1 Bft) O 81 0 min 0,000 mm 0,0 UV-I 0 W/m 6,1 C 11,8 C 3,2 km/h (1 Bft) 95,74 %
27.09.2018 20:44 11,6 C 15,6 C 7,8 C 69 % 1024,2 hPa 0,0 l/m 2,5 km/h (1 Bft) O 81 0 min 0,000 mm 0,0 UV-I 0 W/m 6,1 C 11,6 C 3,2 km/h (1 Bft) 98,00 %
27.09.2018 20:46 11,5 C 15,6 C 7,8 C 69 % 1024,1 hPa 0,0 l/m 2,5 km/h (1 Bft) O 81 0 min 0,000 mm 0,0 UV-I 0 W/m 6,0 C 11,5 C 3,2 km/h (1 Bft) 98,00 %
27.09.2018 20:48 11,6 C 15,6 C 7,8 C 68 % 1024,1 hPa 0,0 l/m 1,8 km/h (1 Bft) O 81 0 min 0,000 mm 0,0 UV-I 0 W/m 5,9 C 11,6 C 3,2 km/h (1 Bft) 100,00 %
27.09.2018 20:50 11,6 C 15,6 C 7,8 C 69 % 1024,1 hPa 0,0 l/m 1,6 km/h (1 Bft) O 81 0 min 0,000 mm 0,0 UV-I 0 W/m 6,1 C 11,6 C 3,2 km/h (1 Bft) 100,00 %
27.09.2018 20:52 11,6 C 15,6 C 7,8 C 69 % 1024,1 hPa 0,0 l/m 1,6 km/h (1 Bft) O 81 0 min 0,000 mm 0,0 UV-I 0 W/m 6,1 C 11,6 C 3,2 km/h (1 Bft) 100,00 %
27.09.2018 20:54 11,5 C 15,6 C 7,8 C 69 % 1024,1 hPa 0,0 l/m 1,8 km/h (1 Bft) O 81 0 min 0,000 mm 0,0 UV-I 0 W/m 6,0 C 11,5 C 3,2 km/h (1 Bft) 100,00 %
27.09.2018 20:56 11,5 C 15,6 C 7,8 C 69 % 1024,1 hPa 0,0 l/m 2,1 km/h (1 Bft) O 81 0 min 0,000 mm 0,0 UV-I 0 W/m 6,0 C 11,5 C 3,2 km/h (1 Bft) 97,87 %
27.09.2018 20:58 11,4 C 15,6 C 7,8 C 68 % 1024,1 hPa 0,0 l/m 2,2 km/h (1 Bft) O 81 0 min 0,000 mm 0,0 UV-I 0 W/m 5,7 C 11,4 C 3,2 km/h (1 Bft) 100,00 %
27.09.2018 21:00 11,3 C 15,6 C 7,8 C 68 % 1024,1 hPa 0,0 l/m 2,2 km/h (1 Bft) O 81 0 min 0,000 mm 0,0 UV-I 0 W/m 5,6 C 11,3 C 3,2 km/h (1 Bft) 97,87 %
27.09.2018 21:02 11,2 C 15,6 C 7,8 C 67 % 1024,0 hPa 0,0 l/m 3,1 km/h (1 Bft) O 91 0 min 0,000 mm 0,0 UV-I 0 W/m 5,3 C 11,2 C 3,2 km/h (1 Bft) 100,00 %
27.09.2018 21:04 11,0 C 15,6 C 7,8 C 68 % 1024,0 hPa 0,0 l/m 3,1 km/h (1 Bft) O 92 0 min 0,000 mm 0,0 UV-I 0 W/m 5,3 C 11,0 C 4,8 km/h (1 Bft) 97,87 %
27.09.2018 21:06 10,9 C 15,6 C 7,8 C 69 % 1024,0 hPa 0,0 l/m 3,0 km/h (1 Bft) O 92 0 min 0,000 mm 0,0 UV-I 0 W/m 5,4 C 10,9 C 4,8 km/h (1 Bft) 100,00 %
27.09.2018 21:09 11,1 C 15,6 C 7,8 C 68 % 1023,9 hPa 0,0 l/m 3,4 km/h (1 Bft) SO 140 0 min 0,000 mm 0,0 UV-I 0 W/m 5,4 C 11,1 C 4,8 km/h (1 Bft) 97,30 %
27.09.2018 21:10 11,1 C 15,6 C 7,8 C 68 % 1023,9 hPa 0,0 l/m 3,1 km/h (1 Bft) SO 140 0 min 0,000 mm 0,0 UV-I 0 W/m 5,4 C 11,1 C 4,8 km/h (1 Bft) 100,00 %
27.09.2018 21:12 11,1 C 15,6 C 7,2 C 69 % 1023,9 hPa 0,0 l/m 2,8 km/h (1 Bft) SO 140 0 min 0,000 mm 0,0 UV-I 0 W/m 5,6 C 11,1 C 3,2 km/h (1 Bft) 100,00 %
27.09.2018 21:14 10,9 C 15,6 C 7,2 C 70 % 1023,8 hPa 0,0 l/m 2,6 km/h (1 Bft) SO 140 0 min 0,000 mm 0,0 UV-I 0 W/m 5,6 C 10,9 C 3,2 km/h (1 Bft) 97,87 %
27.09.2018 21:16 10,7 C 15,6 C 7,2 C 71 % 1023,8 hPa 0,0 l/m 2,5 km/h (1 Bft) SO 140 0 min 0,000 mm 0,0 UV-I 0 W/m 5,7 C 10,7 C 3,2 km/h (1 Bft) 97,87 %
27.09.2018 21:19 10,6 C 15,6 C 7,2 C 72 % 1023,8 hPa 0,0 l/m 2,2 km/h (1 Bft) SO 140 0 min 0,000 mm 0,0 UV-I 0 W/m 5,8 C 10,6 C 3,2 km/h (1 Bft) 100,00 %
27.09.2018 21:20 10,6 C 15,6 C 7,2 C 72 % 1023,8 hPa 0,0 l/m 1,8 km/h (1 Bft) SO 140 0 min 0,000 mm 0,0 UV-I 0 W/m 5,8 C 10,6 C 3,2 km/h (1 Bft) 100,00 %
27.09.2018 21:22 10,7 C 15,6 C 7,2 C 71 % 1023,8 hPa 0,0 l/m 2,6 km/h (1 Bft) SO 135 0 min 0,000 mm 0,0 UV-I 0 W/m 5,7 C 10,7 C 4,8 km/h (1 Bft) 100,00 %
27.09.2018 21:24 10,8 C 15,6 C 7,2 C 72 % 1023,7 hPa 0,0 l/m 1,7 km/h (1 Bft) SO 135 0 min 0,000 mm 0,0 UV-I 0 W/m 6,0 C 10,8 C 4,8 km/h (1 Bft) 100,00 %
27.09.2018 21:26 10,8 C 15,6 C 7,2 C 72 % 1023,7 hPa 0,0 l/m 1,5 km/h (1 Bft) SO 136 0 min 0,000 mm 0,0 UV-I 0 W/m 6,0 C 10,8 C 4,8 km/h (1 Bft) 100,00 %
27.09.2018 21:28 10,7 C 15,6 C 7,2 C 72 % 1023,7 hPa 0,0 l/m 1,5 km/h (1 Bft) SO 136 0 min 0,000 mm 0,0 UV-I 0 W/m 5,9 C 10,7 C 3,2 km/h (1 Bft) 98,00 %
27.09.2018 21:30 10,7 C 15,6 C 6,7 C 73 % 1023,7 hPa 0,0 l/m 2,3 km/h (1 Bft) SO 136 0 min 0,000 mm 0,0 UV-I 0 W/m 6,1 C 10,7 C 4,8 km/h (1 Bft) 100,00 %
27.09.2018 21:32 10,7 C 15,6 C 6,7 C 73 % 1023,7 hPa 0,0 l/m 2,4 km/h (1 Bft) SO 136 0 min 0,000 mm 0,0 UV-I 0 W/m 6,1 C 10,7 C 3,2 km/h (1 Bft) 97,37 %
27.09.2018 21:34 10,7 C 15,6 C 6,7 C 73 % 1023,7 hPa 0,0 l/m 1,9 km/h (1 Bft) SO 136 0 min 0,000 mm 0,0 UV-I 0 W/m 6,1 C 10,7 C 3,2 km/h (1 Bft) 97,87 %
27.09.2018 21:36 10,7 C 15,6 C 6,7 C 73 % 1023,7 hPa 0,0 l/m 1,7 km/h (1 Bft) SO 136 0 min 0,000 mm 0,0 UV-I 0 W/m 6,1 C 10,7 C 3,2 km/h (1 Bft) 95,74 %
27.09.2018 21:39 10,7 C 15,6 C 6,7 C 71 % 1023,7 hPa 0,0 l/m 3,1 km/h (1 Bft) S-SO 154 0 min 0,000 mm 0,0 UV-I 0 W/m 5,7 C 10,7 C 4,8 km/h (1 Bft) 94,29 %
27.09.2018 21:40 10,8 C 15,6 C 6,7 C 71 % 1023,7 hPa 0,0 l/m 5,5 km/h (1 Bft) S 189 0 min 0,000 mm 0,0 UV-I 0 W/m 5,8 C 10,8 C 6,4 km/h (2 Bft) 100,00 %
27.09.2018 21:42 10,8 C 15,6 C 7,2 C 71 % 1023,7 hPa 0,0 l/m 5,0 km/h (1 Bft) S 190 0 min 0,000 mm 0,0 UV-I 0 W/m 5,8 C 10,8 C 6,4 km/h (2 Bft) 98,00 %
27.09.2018 21:44 10,9 C 15,6 C 7,8 C 71 % 1023,7 hPa 0,0 l/m 5,7 km/h (1 Bft) S-SW 202 0 min 0,000 mm 0,0 UV-I 0 W/m 5,9 C 10,9 C 6,4 km/h (2 Bft) 97,37 %
27.09.2018 21:46 10,9 C 15,6 C 7,8 C 72 % 1023,7 hPa 0,0 l/m 5,4 km/h (1 Bft) S-SW 203 0 min 0,000 mm 0,0 UV-I 0 W/m 6,1 C 10,9 C 6,4 km/h (2 Bft) 98,00 %
27.09.2018 21:48 10,8 C 15,6 C 7,8 C 73 % 1023,7 hPa 0,0 l/m 5,4 km/h (1 Bft) S-SW 207 0 min 0,000 mm 0,0 UV-I 0 W/m 6,2 C 10,8 C 6,4 km/h (2 Bft) 97,87 %
27.09.2018 21:50 10,6 C 15,6 C 7,8 C 73 % 1023,7 hPa 0,0 l/m 4,7 km/h (1 Bft) S-SW 207 0 min 0,000 mm 0,0 UV-I 0 W/m 6,0 C 10,6 C 6,4 km/h (2 Bft) 97,87 %
27.09.2018 21:52 10,4 C 15,6 C 7,8 C 74 % 1023,7 hPa 0,0 l/m 4,2 km/h (1 Bft) S-SW 207 0 min 0,000 mm 0,0 UV-I 0 W/m 6,0 C 10,4 C 4,8 km/h (1 Bft) 93,62 %
27.09.2018 21:54 10,2 C 15,6 C 7,2 C 75 % 1023,7 hPa 0,0 l/m 5,0 km/h (1 Bft) SW 225 0 min 0,000 mm 0,0 UV-I 0 W/m 6,0 C 10,2 C 6,4 km/h (2 Bft) 100,00 %
27.09.2018 21:56 10,1 C 15,6 C 7,2 C 75 % 1023,7 hPa 0,0 l/m 4,5 km/h (1 Bft) SW 224 0 min 0,000 mm 0,0 UV-I 0 W/m 5,9 C 10,1 C 6,4 km/h (2 Bft) 98,00 %
27.09.2018 21:59 10,1 C 15,6 C 6,7 C 76 % 1023,6 hPa 0,0 l/m 3,9 km/h (1 Bft) SW 219 0 min 0,000 mm 0,0 UV-I 0 W/m 6,1 C 10,1 C 4,8 km/h (1 Bft) 100,00 %
27.09.2018 22:00 10,2 C 15,6 C 6,7 C 76 % 1023,6 hPa 0,0 l/m 3,8 km/h (1 Bft) SW 219 0 min 0,000 mm 0,0 UV-I 0 W/m 6,2 C 10,2 C 4,8 km/h (1 Bft) 100,00 %
27.09.2018 22:02 10,3 C 15,6 C 6,7 C 75 % 1023,7 hPa 0,0 l/m 2,7 km/h (1 Bft) SW 219 0 min 0,025 mm 0,0 UV-I 0 W/m 6,1 C 10,3 C 3,2 km/h (1 Bft) 97,87 %
27.09.2018 22:04 10,5 C 15,6 C 6,7 C 75 % 1023,7 hPa 0,0 l/m 2,9 km/h (1 Bft) SW 219 0 min 0,000 mm 0,0 UV-I 0 W/m 6,3 C 10,5 C 3,2 km/h (1 Bft) 97,87 %
27.09.2018 22:06 10,6 C 15,6 C 6,7 C 74 % 1023,6 hPa 0,0 l/m 2,4 km/h (1 Bft) SW 219 0 min 0,000 mm 0,0 UV-I 0 W/m 6,2 C 10,6 C 3,2 km/h (1 Bft) 100,00 %
27.09.2018 22:08 10,6 C 15,6 C 6,7 C 74 % 1023,6 hPa 0,0 l/m 2,3 km/h (1 Bft) SW 219 0 min 0,000 mm 0,0 UV-I 0 W/m 6,2 C 10,6 C 3,2 km/h (1 Bft) 98,00 %
27.09.2018 22:10 10,6 C 15,6 C 6,7 C 74 % 1023,6 hPa 0,0 l/m 2,7 km/h (1 Bft) SW 219 0 min 0,000 mm 0,0 UV-I 0 W/m 6,2 C 10,6 C 4,8 km/h (1 Bft) 100,00 %
27.09.2018 22:12 10,4 C 15,6 C 6,7 C 75 % 1023,5 hPa 0,0 l/m 3,0 km/h (1 Bft) SW 219 0 min 0,000 mm 0,0 UV-I 0 W/m 6,2 C 10,4 C 4,8 km/h (1 Bft) 100,00 %
27.09.2018 22:14 10,3 C 15,6 C 6,7 C 75 % 1023,5 hPa 0,0 l/m 3,2 km/h (1 Bft) SW 219 0 min 0,000 mm 0,0 UV-I 0 W/m 6,1 C 10,3 C 4,8 km/h (1 Bft) 100,00 %
27.09.2018 22:16 10,1 C 15,6 C 6,7 C 75 % 1023,4 hPa 0,0 l/m 3,1 km/h (1 Bft) SW 219 0 min 0,000 mm 0,0 UV-I 0 W/m 5,9 C 10,1 C 4,8 km/h (1 Bft) 97,87 %
27.09.2018 22:18 9,8 C 15,6 C 6,7 C 76 % 1023,4 hPa 0,0 l/m 3,1 km/h (1 Bft) SW 219 0 min 0,000 mm 0,0 UV-I 0 W/m 5,8 C 9,8 C 4,8 km/h (1 Bft) 97,87 %
27.09.2018 22:20 9,7 C 15,6 C 6,1 C 77 % 1023,4 hPa 0,0 l/m 3,3 km/h (1 Bft) SW 219 0 min 0,000 mm 0,0 UV-I 0 W/m 5,9 C 9,7 C 4,8 km/h (1 Bft) 100,00 %
27.09.2018 22:22 10,0 C 15,6 C 6,1 C 77 % 1023,4 hPa 0,0 l/m 2,3 km/h (1 Bft) SW 219 0 min 0,000 mm 0,0 UV-I 0 W/m 6,2 C 10,0 C 3,2 km/h (1 Bft) 97,87 %
27.09.2018 22:24 10,2 C 15,6 C 6,1 C 76 % 1023,4 hPa 0,0 l/m 3,1 km/h (1 Bft) SW 219 0 min 0,000 mm 0,0 UV-I 0 W/m 6,2 C 10,2 C 4,8 km/h (1 Bft) 97,87 %
27.09.2018 22:26 10,3 C 15,6 C 6,1 C 77 % 1023,4 hPa 0,0 l/m 3,1 km/h (1 Bft) SW 219 0 min 0,000 mm 0,0 UV-I 0 W/m 6,4 C 10,3 C 3,2 km/h (1 Bft) 95,74 %
27.09.2018 22:28 10,3 C 15,6 C 6,1 C 76 % 1023,4 hPa 0,0 l/m 2,9 km/h (1 Bft) SW 219 0 min 0,000 mm 0,0 UV-I 0 W/m 6,3 C 10,3 C 3,2 km/h (1 Bft) 95,74 %
27.09.2018 22:30 10,3 C 15,6 C 6,1 C 77 % 1023,4 hPa 0,0 l/m 3,4 km/h (1 Bft) SW 219 0 min 0,000 mm 0,0 UV-I 0 W/m 6,4 C 10,3 C 4,8 km/h (1 Bft) 97,87 %
27.09.2018 22:32 10,3 C 15,6 C 6,7 C 78 % 1023,4 hPa 0,0 l/m 3,3 km/h (1 Bft) SW 219 0 min 0,000 mm 0,0 UV-I 0 W/m 6,6 C 10,3 C 4,8 km/h (1 Bft) 96,00 %
27.09.2018 22:34 10,3 C 15,6 C 6,1 C 78 % 1023,4 hPa 0,0 l/m 3,2 km/h (1 Bft) SW 219 0 min 0,000 mm 0,0 UV-I 0 W/m 6,6 C 10,3 C 4,8 km/h (1 Bft) 98,00 %
27.09.2018 22:36 10,2 C 15,6 C 6,1 C 78 % 1023,3 hPa 0,0 l/m 2,2 km/h (1 Bft) SW 219 0 min 0,000 mm 0,0 UV-I 0 W/m 6,5 C 10,2 C 3,2 km/h (1 Bft) 97,44 %
27.09.2018 22:38 10,1 C 15,6 C 6,1 C 77 % 1023,3 hPa 0,0 l/m 2,4 km/h (1 Bft) SW 219 0 min 0,000 mm 0,0 UV-I 0 W/m 6,3 C 10,1 C 3,2 km/h (1 Bft) 97,96 %
27.09.2018 22:40 10,1 C 15,6 C 6,1 C 79 % 1023,4 hPa 0,0 l/m 2,7 km/h (1 Bft) SW 219 0 min 0,000 mm 0,0 UV-I 0 W/m 6,6 C 10,1 C 3,2 km/h (1 Bft) 93,75 %
27.09.2018 22:42 10,2 C 15,6 C 6,1 C 80 % 1023,3 hPa 0,0 l/m 2,8 km/h (1 Bft) SW 219 0 min 0,000 mm 0,0 UV-I 0 W/m 6,9 C 10,2 C 3,2 km/h (1 Bft) 95,74 %
27.09.2018 22:44 10,2 C 15,6 C 6,1 C 80 % 1023,3 hPa 0,0 l/m 3,3 km/h (1 Bft) SW 219 0 min 0,000 mm 0,0 UV-I 0 W/m 6,9 C 10,2 C 4,8 km/h (1 Bft) 97,87 %
27.09.2018 22:46 10,3 C 15,6 C 6,1 C 80 % 1023,3 hPa 0,0 l/m 4,2 km/h (1 Bft) SW 219 0 min 0,000 mm 0,0 UV-I 0 W/m 7,0 C 10,3 C 6,4 km/h (2 Bft) 94,00 %
27.09.2018 22:48 10,3 C 15,6 C 6,1 C 79 % 1023,3 hPa 0,0 l/m 4,3 km/h (1 Bft) SW 219 0 min 0,000 mm 0,0 UV-I 0 W/m 6,8 C 10,3 C 6,4 km/h (2 Bft) 91,49 %
27.09.2018 22:50 9,9 C 15,6 C 6,1 C 78 % 1023,1 hPa 0,0 l/m 3,0 km/h (1 Bft) SW 219 0 min 0,000 mm 0,0 UV-I 0 W/m 6,2 C 9,9 C 4,8 km/h (1 Bft) 93,62 %
27.09.2018 22:52 9,6 C 15,6 C 6,1 C 80 % 1023,2 hPa 0,0 l/m 2,8 km/h (1 Bft) SW 219 0 min 0,000 mm 0,0 UV-I 0 W/m 6,3 C 9,6 C 3,2 km/h (1 Bft) 95,74 %
27.09.2018 22:54 9,6 C 15,6 C 6,1 C 80 % 1023,1 hPa 0,0 l/m 3,0 km/h (1 Bft) SW 219 0 min 0,000 mm 0,0 UV-I 0 W/m 6,3 C 9,6 C 3,2 km/h (1 Bft) 95,74 %
27.09.2018 22:56 9,7 C 15,6 C 6,1 C 80 % 1023,1 hPa 0,0 l/m 2,7 km/h (1 Bft) SW 219 0 min 0,000 mm 0,0 UV-I 0 W/m 6,4 C 9,7 C 3,2 km/h (1 Bft) 95,74 %
27.09.2018 22:58 9,8 C 15,6 C 6,1 C 80 % 1023,1 hPa 0,0 l/m 2,7 km/h (1 Bft) SW 219 0 min 0,000 mm 0,0 UV-I 0 W/m 6,5 C 9,8 C 3,2 km/h (1 Bft) 95,74 %
27.09.2018 23:00 10,0 C 15,6 C 6,1 C 80 % 1023,1 hPa 0,0 l/m 3,7 km/h (1 Bft) SW 219 0 min 0,000 mm 0,0 UV-I 0 W/m 6,7 C 10,0 C 4,8 km/h (1 Bft) 93,62 %
27.09.2018 23:02 10,1 C 15,6 C 6,1 C 80 % 1023,1 hPa 0,0 l/m 3,2 km/h (1 Bft) SW 219 0 min 0,000 mm 0,0 UV-I 0 W/m 6,8 C 10,1 C 4,8 km/h (1 Bft) 93,62 %
27.09.2018 23:04 9,9 C 15,6 C 6,1 C 79 % 1023,1 hPa 0,0 l/m 3,6 km/h (1 Bft) SW 219 0 min 0,000 mm 0,0 UV-I 0 W/m 6,4 C 9,9 C 4,8 km/h (1 Bft) 93,62 %
27.09.2018 23:06 9,7 C 15,6 C 6,1 C 80 % 1023,1 hPa 0,0 l/m 3,8 km/h (1 Bft) SW 219 0 min 0,000 mm 0,0 UV-I 0 W/m 6,4 C 9,7 C 4,8 km/h (1 Bft) 95,74 %
27.09.2018 23:08 9,6 C 15,6 C 6,1 C 81 % 1023,0 hPa 0,0 l/m 3,3 km/h (1 Bft) SW 219 0 min 0,000 mm 0,0 UV-I 0 W/m 6,5 C 9,6 C 4,8 km/h (1 Bft) 95,74 %
27.09.2018 23:10 9,6 C 15,6 C 6,1 C 82 % 1023,0 hPa 0,0 l/m 3,2 km/h (1 Bft) SW 219 0 min 0,000 mm 0,0 UV-I 0 W/m 6,7 C 9,6 C 4,8 km/h (1 Bft) 91,49 %
27.09.2018 23:12 9,8 C 15,6 C 6,1 C 82 % 1023,1 hPa 0,0 l/m 3,0 km/h (1 Bft) SW 219 0 min 0,000 mm 0,0 UV-I 0 W/m 6,9 C 9,8 C 4,8 km/h (1 Bft) 100,00 %
27.09.2018 23:14 9,9 C 15,6 C 6,1 C 81 % 1023,0 hPa 0,0 l/m 3,0 km/h (1 Bft) SW 219 0 min 0,000 mm 0,0 UV-I 0 W/m 6,8 C 9,9 C 3,2 km/h (1 Bft) 100,00 %
27.09.2018 23:16 9,8 C 15,6 C 5,6 C 80 % 1023,0 hPa 0,0 l/m 2,9 km/h (1 Bft) SW 219 0 min 0,000 mm 0,0 UV-I 0 W/m 6,5 C 9,8 C 4,8 km/h (1 Bft) 95,92 %
27.09.2018 23:19 9,4 C 15,0 C 5,6 C 81 % 1023,0 hPa 0,0 l/m 2,6 km/h (1 Bft) SW 219 0 min 0,000 mm 0,0 UV-I 0 W/m 6,3 C 9,4 C 3,2 km/h (1 Bft) 95,77 %
27.09.2018 23:20 9,3 C 15,0 C 5,6 C 81 % 1023,0 hPa 0,0 l/m 3,3 km/h (1 Bft) SW 219 0 min 0,000 mm 0,0 UV-I 0 W/m 6,2 C 9,3 C 4,8 km/h (1 Bft) 100,00 %
27.09.2018 23:22 9,2 C 15,6 C 5,6 C 81 % 1022,9 hPa 0,0 l/m 3,6 km/h (1 Bft) SW 219 0 min 0,000 mm 0,0 UV-I 0 W/m 6,1 C 9,2 C 4,8 km/h (1 Bft) 95,74 %
27.09.2018 23:24 9,2 C 15,0 C 5,6 C 82 % 1022,9 hPa 0,0 l/m 3,7 km/h (1 Bft) SW 219 0 min 0,000 mm 0,0 UV-I 0 W/m 6,3 C 9,2 C 4,8 km/h (1 Bft) 96,00 %
27.09.2018 23:26 9,3 C 15,0 C 5,6 C 83 % 1022,8 hPa 0,0 l/m 3,5 km/h (1 Bft) SW 219 0 min 0,000 mm 0,0 UV-I 0 W/m 6,6 C 9,3 C 4,8 km/h (1 Bft) 100,00 %
27.09.2018 23:28 9,5 C 15,0 C 5,6 C 82 % 1022,8 hPa 0,0 l/m 3,9 km/h (1 Bft) SW 219 0 min 0,000 mm 0,0 UV-I 0 W/m 6,6 C 9,5 C 4,8 km/h (1 Bft) 97,87 %
27.09.2018 23:30 9,6 C 15,0 C 6,1 C 82 % 1022,8 hPa 0,0 l/m 4,8 km/h (1 Bft) SW 219 0 min 0,000 mm 0,0 UV-I 0 W/m 6,7 C 9,6 C 6,4 km/h (2 Bft) 97,87 %
27.09.2018 23:32 9,5 C 15,0 C 6,1 C 82 % 1022,8 hPa 0,0 l/m 4,5 km/h (1 Bft) SW 219 0 min 0,000 mm 0,0 UV-I 0 W/m 6,6 C 9,5 C 6,4 km/h (2 Bft) 94,00 %
27.09.2018 23:34 9,1 C 15,0 C 6,1 C 81 % 1022,8 hPa 0,0 l/m 3,8 km/h (1 Bft) SW 219 0 min 0,000 mm 0,0 UV-I 0 W/m 6,0 C 9,1 C 4,8 km/h (1 Bft) 96,00 %
27.09.2018 23:36 8,8 C 15,0 C 5,6 C 82 % 1022,8 hPa 0,0 l/m 4,8 km/h (1 Bft) SW 219 0 min 0,000 mm 0,0 UV-I 0 W/m 5,9 C 8,8 C 6,4 km/h (2 Bft) 96,00 %
27.09.2018 23:39 8,4 C 15,0 C 5,6 C 85 % 1022,7 hPa 0,0 l/m 4,7 km/h (1 Bft) SW 219 0 min 0,000 mm 0,0 UV-I 0 W/m 6,0 C 8,4 C 6,4 km/h (2 Bft) 95,71 %
27.09.2018 23:40 8,4 C 15,0 C 5,6 C 85 % 1022,7 hPa 0,0 l/m 4,4 km/h (1 Bft) SW 219 0 min 0,000 mm 0,0 UV-I 0 W/m 6,0 C 8,4 C 4,8 km/h (1 Bft) 95,83 %
27.09.2018 23:42 8,5 C 15,0 C 5,6 C 86 % 1022,7 hPa 0,0 l/m 4,8 km/h (1 Bft) SW 219 0 min 0,000 mm 0,0 UV-I 0 W/m 6,3 C 8,5 C 6,4 km/h (2 Bft) 97,87 %
27.09.2018 23:44 8,6 C 15,0 C 5,6 C 86 % 1022,7 hPa 0,0 l/m 4,9 km/h (1 Bft) SW 219 0 min 0,000 mm 0,0 UV-I 0 W/m 6,4 C 8,6 C 6,4 km/h (2 Bft) 93,62 %
27.09.2018 23:46 8,9 C 15,0 C 5,6 C 86 % 1022,7 hPa 0,0 l/m 4,5 km/h (1 Bft) SW 219 0 min 0,000 mm 0,0 UV-I 0 W/m 6,7 C 8,9 C 4,8 km/h (1 Bft) 97,87 %
27.09.2018 23:48 8,9 C 15,0 C 5,6 C 85 % 1022,7 hPa 0,0 l/m 4,0 km/h (1 Bft) SW 219 0 min 0,000 mm 0,0 UV-I 0 W/m 6,5 C 8,9 C 4,8 km/h (1 Bft) 97,87 %
27.09.2018 23:50 8,9 C 15,0 C 5,6 C 85 % 1022,7 hPa 0,0 l/m 4,4 km/h (1 Bft) SW 219 0 min 0,000 mm 0,0 UV-I 0 W/m 6,5 C 8,9 C 4,8 km/h (1 Bft) 94,44 %
27.09.2018 23:52 8,7 C 15,0 C 5,6 C 84 % 1022,7 hPa 0,0 l/m 4,6 km/h (1 Bft) SW 219 0 min 0,000 mm 0,0 UV-I 0 W/m 6,2 C 8,7 C 4,8 km/h (1 Bft) 97,87 %
27.09.2018 23:54 8,6 C 15,0 C 5,6 C 85 % 1022,6 hPa 0,0 l/m 4,8 km/h (1 Bft) SW 219 0 min 0,000 mm 0,0 UV-I 0 W/m 6,2 C 8,6 C 6,4 km/h (2 Bft) 97,87 %
27.09.2018 23:56 8,7 C 15,0 C 5,6 C 86 % 1022,6 hPa 0,0 l/m 4,7 km/h (1 Bft) SW 219 0 min 0,000 mm 0,0 UV-I 0 W/m 6,5 C 8,7 C 6,4 km/h (2 Bft) 97,87 %
27.09.2018 23:58 8,7 C 15,0 C 5,6 C 86 % 1022,6 hPa 0,0 l/m 4,9 km/h (1 Bft) SW 219 0 min 0,000 mm 0,0 UV-I 0 W/m 6,5 C 8,7 C 6,4 km/h (2 Bft) 95,74 %
_ Min-Zeit 07:24 04:06 04:25 17:28 23:54 - 06:40 - - - - - - 17:28 07:24 06:40 04:26
Minimum _ 3,1 C 15,0 C 1,1 C 29 % 1022,6 hPa - 0,0 km/h (0 Bft) - - - - - - 1,5 C 3,1 C 0,0 km/h (0 Bft) 82,61 %
_ Max-Zeit 16:36 00:00 13:16 07:30 00:00 00:00 14:48 - - 08:16 14:00 12:26 13:00 12:26 16:36 14:48 00:48
Maximum _ 21,0 C 15,6 C 31,7 C 95 % 1033,5 hPa 0,0 l/m 9,6 km/h
O-NO (2 Bft)
- - 4 min 0,356 mm 3,4 UV-I 618 W/m 10,0 C 21,0 C 17,7 km/h
O-SO (3 Bft)
100,00 %
Durchschnitt _ 11,7 C 15,2 C 11,8 C 71 % 1029,2 hPa #0,0 l/m 3,5 km/h (1 Bft) SW - #11:34 h #2,692 mm 2,1 UV-I 352 W/m 5,9 C 11,7 C 5,3 km/h (1 Bft) 97,14 %